     2.11           OBSERVATION DATA    G (GPS)             RINEX VERSION / TYPE
teqc 2010Oct21 OPUS Account 20111026 16:36:11UTC            PGM / RUN BY / DATE
E 1523                                                      MARKER NAME
1185                                                        MARKER NUMBER
CSMIDDLETON NGS                                             OBSERVER / AGENCY
0220379089 TRIMBLE R7 NP 2.28 / SP 0.00                     REC # / TYPE / VERS
60124975 TRM41249.00 NONE                                   ANT # / TYPE
  -748481.1524 -5508483.1807  3116532.8117                  APPROX POSITION XYZ
        2.0010        0.0000        0.0000                  ANTENNA: DELTA H/E/N
     1     1                                                WAVELENGTH FACT L1/2
     5    L1    L2    C1    P1    P2                        # / TYPES OF OBSERV
  2011     8     2     0     0   30.0000000     GPS         TIME OF FIRST OBS
                                                            END OF HEADER
 11  8  2  0  0 30.0000000  0  8G17G10G09G12G04G27G28G02
 -44302464.68458 -34490764.64556  21766694.1334                   21766690.8554
 -14015350.66057 -10893251.34054  22892778.2504                   22892776.6024
 -19194019.40257 -14924663.56655  22181528.3594                   22181526.3954
  -2033075.03956  -1555869.16453  24512436.4694                   24512432.8714
 -41226214.32858 -32089269.57457  19999314.2664                   19999311.3484
 -27114415.12958 -21097355.61355  22513906.6334                   22513905.1294
 -50506632.85557 -39332524.33255  22340425.4694                   22340422.6094
 -23209600.78958 -18053839.41456  21853079.1484                   21853074.7934
 11  8  2  0  1  0.0000000  0  8G17G10G09G12G04G27G28G02
 -44306644.41047 -34494021.57846  21765898.4384                   21765895.8594
 -14141844.12947 -10991817.57844  22868706.7664                   22868705.2894
 -19235231.79747 -14956777.10545  22173685.3054                   22173683.7114
  -2168236.80946  -1661189.94543  24486715.4384                   24486712.0274
 -41254560.19548 -32111357.25447  19993919.8444                   19993917.4494
 -27144571.60547 -21120854.17645  22508167.8834                   22508166.4774
 -50480506.36747 -39312166.07845  22345396.9534                   22345394.3094
 -23313803.84448 -18135036.56246  21833249.9844                   21833245.7814
 11  8  2  0  1 30.0000000  0  8G17G10G09G12G04G27G28G02
 -44310691.04747 -34497174.82046  21765128.2894                   21765125.7344
 -14268100.70347 -11090199.25845  22844681.6024                   22844679.6764
 -19275756.66047 -14988354.93045  22165974.0164                   22165972.2504
  -2303346.33646  -1766470.06243  24461005.0864                   24461002.2664
 -41282313.31248 -32132983.05947  19988638.6094                   19988636.2544
 -27174201.85947 -21143942.69945  22502529.3674                   22502527.7074
 -50453961.13747 -39291481.52745  22350448.8754                   22350445.4574
 -23417613.96548 -18215927.53146  21813495.9064                   21813491.8284
 11  8  2  0  2  0.0000000  0  8G17G10G09G12G04G27G28G02
 -44314620.73847 -34500236.93446  21764380.3594                   21764377.5084
 -14394133.55547 -11188406.60244  22820697.8594                   22820696.5124
 -19315611.07048 -15019410.32045  22158390.0394                   22158388.2814
  -2438418.27046  -1871720.88343  24435301.6254                   24435299.8754
 -41309491.46148 -32154160.82447  19983467.0784                   19983464.4654
 -27203323.23047 -21166634.68445  22496988.0084                   22496986.2974
 -50427014.13347 -39270483.89845  22355576.6884                   22355573.5904
 -23521046.65648 -18296524.38346  21793813.2274                   21793809.1684
 11  8  2  0  2 30.0000000  0  8G17G10G09G12G04G27G28G02
 -44318432.27047 -34503206.97746  21763655.6024                   21763652.5904
 -14519938.01247 -11286435.98044  22796758.2114                   22796756.6914
 -19354794.25447 -15049942.67245  22150933.7664                   22150931.5744
  -2573449.60546  -1976940.02744  24409606.4304                   24409604.2034
 -41336094.74248 -32174890.64847  19978404.4384                   19978402.1564
 -27231935.39547 -21188929.90245  22491543.5004                   22491541.3954
 -50399665.05547 -39249172.97745  22360780.4694                   22360778.2074
 -23624099.86348 -18376825.55146  21774202.7974                   21774198.7194
 11  8  2  0  3  0.0000000  0  8G17G10G09G12G04G27G28G02
 -44322122.26647 -34506082.32446  21762953.2274                   21762950.1294
 -14645507.50847 -11384282.24644  22772862.4694                   22772861.7304
 -19393303.21947 -15079949.66045  22143605.4224                   22143603.4384
  -2708435.22347  -2082123.53544  24383919.5944                   24383917.0434
 -41362120.67248 -32195170.58647  19973451.7894                   19973449.4694
 -27260035.95748 -21210826.46545  22486196.0314                   22486194.0044
 -50371910.37947 -39227546.01245  22366062.3364                   22366059.6914
 -23726769.18748 -18456827.58246  21754665.5554                   21754661.0314
 11  8  2  0  3 30.0000000  0  8G17G10G09G12G04G27G28G02
 -44325687.26647 -34508860.26246  21762274.6174                   21762271.9104
 -14770835.16047 -11481940.09845  22749014.0704                   22749012.6334
 -19431135.03147 -15109429.00445  22136406.3914                   22136404.1844
  -2843369.41446  -2187266.99244  24358241.5944                   24358239.1994
 -41387567.16048 -32214999.02047  19968609.6174                   19968607.3014
 -27287622.04747 -21232322.12945  22480946.4614                   22480944.7974
 -50343747.11747 -39205600.65645  22371421.7664                   22371419.0274
 -23829050.06648 -18536526.92646  21735201.8364                   21735197.6054
 11  8  2  0  4  0.0000000  0  8G17G10G09G12G04G27G28G02
 -44329125.76247 -34511539.63746  21761620.3284                   21761617.2114
 -14895915.75847 -11579405.44545  22725212.3204                   22725210.1914
 -19468289.31647 -15138380.40245  22129336.1174                   22129334.0164
  -2978248.72747  -2292367.66044  24332575.8284                   24332572.5984
 -41412434.09448 -32234375.84447  19963877.7424                   19963874.9064
 -27314693.09847 -21253416.48045  22475794.9454                   22475793.3634
 -50315174.55547 -39183336.35545  22376858.9064                   22376856.3524
 -23930940.37948 -18615921.93746  21715812.9534                   21715808.4534
 11  8  2  0  4 30.0000000  0  8G17G10G09G12G04G27G28G02
 -44332433.84447 -34514117.38346  21760990.9224                   21760988.0204
 -15020742.50447 -11676672.96945  22701458.0704                   22701456.4494
 -19504762.89547 -15166801.39145  22122395.5314                   22122393.2734
  -3113068.30147  -2397421.82444  24306920.2734                   24306917.9884
 -41436719.40248 -32253299.45347  19959256.2814                   19959253.7974
 -27341246.49648 -21274107.46545  22470742.2894                   22470740.1454
 -50286189.71147 -39160750.80945  22382374.2424                   22382371.8054
 -24032435.65648 -18695009.12546  21696499.2194                   21696493.9844
 11  8  2  0  5  0.0000000  0  8G17G10G09G12G04G27G28G02
 -44335610.80547 -34516592.95746  21760386.5164                   21760383.6454
 -15145311.54747 -11773739.70745  22677753.0634                   22677751.8794
 -19540555.66447 -15194691.87145  22115584.6804                   22115582.1994
  -3247825.26647  -2502427.21144  24281276.9064                   24281274.3754
 -41460423.21548 -32271769.95747  19954745.5474                   19954742.9804
 -27367282.34447 -21294395.15645  22465787.3914                   22465786.1334
 -50256792.26647 -39137843.73845  22387968.2894                   22387965.9344
 -24133534.37948 -18773787.30946  21677260.3444                   21677255.9104
 11  8  2  0  5 30.0000000  0  8G17G10G09G12G04G27G28G02
 -44338655.31647 -34518965.32446  21759807.1174                   21759803.7154
 -15269618.12947 -11870601.93744  22654098.8204                   22654097.1524
 -19575667.13347 -15222051.46945  22108902.9844                   22108901.2154
  -3382516.38347  -2607381.28144  24255645.7734                   24255643.2274
 -41483546.12548 -32289787.81647  19950345.5634                   19950342.9654
 -27392800.62148 -21314279.55545  22460931.7894                   22460929.9614
 -50226981.92647 -39114614.93045  22393641.7034                   22393638.3244
 -24234234.19148 -18852254.65646  21658097.9304                   21658093.3484
 11  8  2  0  6  0.0000000  0  8G17G10G09G12G04G27G28G02
 -44341565.65647 -34521233.13746  21759253.2584                   21759250.0864
 -15393656.82047 -11967255.40645  22630494.9774                   22630493.1094
 -19610096.12147 -15248879.28545  22102351.7344                   22102349.6954
  -3517137.85946  -2712281.09844  24230028.1174                   24230025.5514
 -41506087.23848 -32307352.30947  19946056.2814                   19946054.0044
 -27417800.04347 -21333759.65645  22456175.0704                   22456172.6914
 -50196757.06247 -39091063.10945  22399393.4844                   22399390.8204
 -24334532.56648 -18930409.20346  21639011.8054                   21639006.8714
 11  8  2  0  6 30.0000000  0  8G17G10G09G12G04G27G28G02
 -44344340.75047 -34523395.56246  21758725.2894                   21758722.2934
 -15517423.58647 -12063696.99645  22606942.7034                   22606941.3054
 -19643842.78147 -15275175.39545  22095929.7034                   22095927.6564
  -3651687.07046  -2817124.57844  24204424.2734                   24204421.4844
 -41528047.26648 -32324464.02047  19941877.2504                   19941874.7384
 -27442281.03147 -21352835.77745  22451515.6804                   22451514.0744
 -50166117.66047 -39067188.30945  22405223.4454                   22405220.7504
 -24434428.00048 -19008249.76646  21620002.4224                   21619997.7814
 11  8  2  0  7  0.0000000  0  8G17G10G09G12G04G27G28G02
 -44346980.92248 -34525452.84846  21758222.9844                   21758219.6644
 -15640915.13347 -12159924.13745  22583443.3754                   22583441.3404
 -19676908.02047 -15300940.51645  22089637.5784                   22089635.7344
  -3786162.39547  -2921910.48444  24178834.7194                   24178831.8094
 -41549427.91048 -32341124.26247  19937808.6254                   19937805.6334
 -27466244.91447 -21371508.95345  22446956.1884                   22446953.7114
 -50135064.69547 -39042991.23045  22411132.9844                   22411129.7384
 -24533919.96948 -19085775.94146  21601069.5944                   21601064.9494
 11  8  2  0  7 30.0000000  0  8G17G10G09G12G04G27G28G02
 -44349482.66048 -34527402.27046  21757746.8054                   21757743.6374
 -15764125.10547 -12255931.86345  22559997.0084                   22559995.4104
 -19709289.36747 -15326172.75445  22083475.4454                   22083473.8714
  -3920558.43447  -3026634.61743  24153259.8054                   24153256.3874
 -41570227.41048 -32357331.66447  19933850.4224                   19933847.8834
 -27489689.76248 -21389777.70345  22442494.5634                   22442492.5274
 -50103595.17247 -39018469.57445  22417121.3054                   22417118.4964
 -24633004.09447 -19162984.31246  21582214.3204                   21582209.5164
 11  8  2  0  8  0.0000000  0  8G17G10G09G12G04G27G28G02
 -44351848.50447 -34529245.80146  21757296.9384                   21757294.0434
 -15887052.29347 -12351719.21945  22536604.6804                   22536603.3134
 -19740990.29747 -15350874.78545  22077443.4144                   22077441.2424
  -4054875.98847  -3131297.60543  24127699.2344                   24127696.9104
 -41590449.75448 -32373089.33247  19930002.5234                   19929999.6134
 -27512619.00848 -21407644.67645  22438131.3364                   22438129.4884
 -50071712.63347 -38993626.08245  22423187.9694                   22423186.1484
 -24731682.49248 -19239876.53546  21563436.3134                   21563432.0474
 11  8  2  0  8 30.0000000  0  8G17G10G09G12G04G27G28G02
 -44354077.82048 -34530982.92646  21756872.8204                   21756869.5434
 -16009692.69147 -12447283.11745  22513267.2894                   22513265.0514
 -19772010.91047 -15375046.70345  22071540.1094                   22071538.0784
  -4189112.16046  -3235897.16443  24102155.9774                   24102152.2274
 -41610095.62548 -32388397.80547  19926263.8754                   19926261.0824
 -27535032.99648 -21425110.16445  22433866.0634                   22433864.6524
 -50039417.28547 -38968460.92245  22429334.1334                   22429331.5744
 -24829953.76248 -19316451.51646  21544735.9614                   21544731.9144
 11  8  2  0  9  0.0000000  0  8G17G10G09G12G04G27G28G02
 -44356167.90248 -34532611.56646  21756474.8914                   21756471.5904
 -16132041.09447 -12542619.48845  22489985.0004                   22489983.0554
 -19802350.34847 -15398687.84445  22065767.1024                   22065764.7544
  -4323263.28547  -3340430.47343  24076627.6484                   24076623.8524
 -41629164.20348 -32403256.43447  19922635.3594                   19922632.6484
 -27556930.64547 -21442173.30545  22429698.6644                   22429697.3014
 -50006707.41847 -38942972.73845  22435558.4774                   22435555.4774
 -24927814.71548 -19392706.77346  21526113.8914                   21526109.3834
 11  8  2  0  9 30.0000000  0  8G17G10G09G12G04G27G28G02
 -44358119.53548 -34534132.32046  21756103.5944                   21756100.5554
 -16254094.99647 -12637726.35545  22466758.6644                   22466757.4774
 -19832010.24647 -15421799.45345  22060122.6174                   22060120.8524
  -4457328.18447  -3444896.58643  24051115.7274                   24051112.6214
 -41647658.16448 -32417667.31247  19919115.8444                   19919113.2734
 -27578313.92647 -21458835.63345  22425629.7974                   22425628.3524
 -49973584.62547 -38917162.83645  22441861.4144                   22441858.8554
 -25025265.63748 -19468642.53146  21507569.4534                   21507565.0474
 11  8  2  0 10  0.0000000  0  8G17G10G09G12G04G27G28G02
 -44359932.43048 -34535544.96146  21755758.8364                   21755755.2194
 -16375850.23047 -12732600.51245  22443588.8524                   22443587.5594
 -19860991.01247 -15444381.89545  22054607.8754                   22054605.8984
  -4591303.84847  -3549293.15244  24025620.6174                   24025618.1054
 -41665578.27348 -32431631.02746  19915705.8754                   19915703.3094
 -27599183.47748 -21475097.66045  22421658.5234                   22421656.9184
 -49940049.11347 -38891031.32445  22448243.5004                   22448240.2464
 -25122305.35248 -19544257.86746  21489103.1644                   21489098.7774
 11  8  2  0 10 30.0000000  0  8G17G10G09G12G04G27G28G02
 -44361604.88748 -34536848.18446  21755440.3364                   21755437.3014
 -16497301.98847 -12827238.19545  22420478.0944                   22420476.4734
 -19889292.11747 -15466434.71545  22049222.4224                   22049220.8204
  -4725187.34447  -3653617.90644  24000143.4064                   24000141.7774
 -41682924.69148 -32445147.71147  19912404.8054                   19912402.2274
 -27619539.08248 -21490959.20745  22417784.9534                   22417783.6564
 -49906100.12547 -38864577.60244  22454703.4454                   22454701.1294
 -25218931.57448 -19619551.00046  21470716.0234                   21470711.7584
 11  8  2  0 11  0.0000000  0  8G17G10G09G12G04G27G28G02
 -44363135.09848 -34538040.57046  21755149.0704                   21755146.0234
 -16618445.22747 -12921635.46945  22397424.8054                   22397423.4774
 -19916913.12947 -15487957.60245  22043966.3914                   22043963.6684
  -4858974.91047  -3757867.91844  23974684.8674                   23974682.5084
 -41699697.29348 -32458217.27347  19909213.2814                   19909210.5744
 -27639380.31247 -21506419.93445  22414009.0474                   22414007.3874
 -49871736.76247 -38837801.01245  22461242.9304                   22461239.5864
 -25315142.08648 -19694520.19946  21452407.5944                   21452403.4024
 11  8  2  0 11 30.0000000  0  8G17G10G09G12G04G27G28G02
 -44364520.85548 -34539120.37946  21754885.0944                   21754882.3554
 -16739274.93747 -13015788.44145  22374431.9144                   22374430.2774
 -19943853.15647 -15508949.84045  22038839.8834                   22038837.5904
  -4992662.52047  -3862040.03544  23949244.8444                   23949242.2154
 -41715896.09048 -32470839.70347  19906130.5864                   19906128.4774
 -27658706.60947 -21521479.41845  22410332.0474                   22410330.1564
 -49836958.08647 -38810700.79745  22467860.8754                   22467858.7854
 -25410934.22748 -19769163.39846  21434179.1254                   21434174.5434
 11  8  2  0 12  0.0000000  0  8G17G10G09G12G04G27G28G02
 -44365760.62947 -34540086.44146  21754649.2424                   21754646.2624
 -16859786.39147 -13109693.42645  22351498.7664                   22351497.1724
 -19970111.78147 -15529411.13345  22033842.9614                   22033840.9144
  -5126247.08647  -3966131.84444  23923824.3364                   23923821.8554
 -41731520.96548 -32483014.92647  19903157.1414                   19903154.5704
 -27677517.69547 -21536137.43745  22406752.2504                   22406750.3674
 -49801763.50847 -38783276.50445  22474558.3594                   22474556.0124
 -25506306.07848 -19843479.09446  21416030.2584                   21416025.8594
 11  8  2  0 12 30.0000000  0  8G17G10G09G12G04G27G28G02
 -44366851.55548 -34540936.51646  21754442.2664                   21754438.7584
 -16979973.07847 -13203345.33245  22328628.6334                   22328626.6764
 -19995687.61747 -15549340.37145  22028976.1644                   22028974.3284
  -5259723.34046  -4070139.23444  23898424.0394                   23898421.9184
 -41746570.61348 -32494741.92247  19900293.4534                   19900291.1254
 -27695811.69947 -21550392.51645  22403270.3754                   22403269.7384
 -49766150.75447 -38755526.35544  22481335.0314                   22481332.2774
 -25601253.84448 -19917464.32846  21397962.3754                   21397957.7504
 11  8  2  0 13  0.0000000  0  8G17G10G09G12G04G27G28G02
 -44367791.31648 -34541668.80146  21754263.0394                   21754259.8954
 -17099829.55547 -13296739.94145  22305820.5784                   22305818.5234
 -20020579.50047 -15568736.66045  22024239.0784                   22024237.0594
  -5393087.15646  -4174059.02744  23873046.2664                   23873044.8134
 -41761044.58248 -32506020.34047  19897539.2664                   19897536.5704
 -27713588.18448 -21564244.36345  22399888.1484                   22399886.8404
 -49730118.59847 -38727449.40645  22488191.9614                   22488188.8284
 -25695774.94948 -19991117.09446  21379975.6804                   21379971.0394
 11  8  2  0 13 30.0000000  0  8G17G10G09G12G04G27G28G02
 -44368576.85248 -34542280.93446  21754113.5784                   21754110.6374
 -17219349.77047 -13389872.50845  22283076.3674                   22283074.5434
 -20044785.87147 -15587598.79345  22019633.1414                   22019631.2114
  -5526333.67246  -4277887.42244  23847690.5634                   23847688.4104
 -41774941.53548 -32516849.12547  19894894.3594                   19894891.7894
 -27730845.22347 -21577691.43445  22396604.5474                   22396602.8594
 -49693664.91447 -38699043.99245  22495128.5554                   22495126.3554
 -25789865.70748 -20064434.52746  21362070.6484                   21362065.9804
 11  8  2  0 14  0.0000000  0  8G17G10G09G12G04G27G28G02
 -44369206.05148 -34542771.23446  21753993.8914                   21753990.2934
 -17338528.62547 -13482739.10245  22260397.3134                   22260395.4224
 -20068306.57047 -15605926.62945  22015156.8134                   22015155.3404
  -5659458.91846  -4381621.31644  23822357.0784                   23822354.4884
 -41788261.58248 -32527228.38747  19892360.0394                   19892357.5984
 -27747582.65247 -21590733.61345  22393419.3134                   22393417.7664
 -49656788.62947 -38670309.26645  22502146.3594                   22502144.1374
 -25883524.40248 -20137415.28546  21344248.2974                   21344243.6054
 11  8  2  0 14 30.0000000  0  8G17G10G09G12G04G27G28G02
 -44369677.18748 -34543138.37546  21753904.3914                   21753901.2194
 -17457360.80547 -13575335.54745  22237784.1254                   22237783.0474
 -20091140.77347 -15623719.53145  22010811.7504                   22010810.3754
  -5792459.47346  -4485258.02744  23797047.9064                   23797045.7304
 -41801004.64148 -32537158.04747  19889935.0704                   19889932.3674
 -27763799.80547 -21603370.37145  22390333.2034                   22390331.5394
 -49619489.40247 -38641244.99645  22509243.9384                   22509241.1684
 -25976748.03948 -20210057.03946  21326507.8524                   21326503.4344
 11  8  2  0 15  0.0000000  0  8G17G10G09G12G04G27G28G02
 -44369987.93448 -34543380.54746  21753845.0314                   21753841.9454
 -17575841.02347 -13667657.72745  22215238.4144                   22215236.5314
 -20113287.60948 -15640976.83245  22006597.6804                   22006595.9264
  -5925331.28946  -4588794.46144  23771763.1564                   23771760.7734
 -41813169.94548 -32546637.50847  19887620.0164                   19887617.3594
 -27779495.92247 -21615601.13345  22387346.4304                   22387344.4614
 -49581766.00847 -38611850.19545  22516422.3054                   22516419.8404
 -26069534.03948 -20282357.78146  21308851.4844                   21308846.6374
 11  8  2  0 15 30.0000000  0  8G17G10G09G12G04G27G28G02
 -44370138.06248 -34543497.55546  21753817.1334                   21753813.6054
 -17693965.87147 -13759703.00845  22192759.7194                   22192757.9454
 -20134748.20748 -15657699.39545  22002513.4384                   22002511.7344
  -6058072.10547  -4692228.82044  23746503.6024                   23746501.8674
 -41824759.60248 -32555668.40647  19885414.8134                   19885412.1484
 -27794672.44547 -21627427.02745  22384458.7344                   22384456.9574
 -49543619.04747 -38582125.35245  22523681.7114                   22523679.5554
 -26161881.84448 -20354317.06246  21291278.1254                   21291273.6254
 11  8  2  0 16  0.0000000  0  8G17G10G09G12G04G27G28G02
 -44370125.89147 -34543488.08246  21753818.7034                   21753815.5204
 -17811730.62547 -13851467.68445  22170349.9454                   22170347.9304
 -20155522.48447 -15673887.17245  21998560.4384                   21998558.7774
  -6190677.91847  -4795557.97744  23721269.5634                   23721266.8634
 -41835773.60948 -32564250.75847  19883318.7974                   19883316.5044
 -27809329.25848 -21638847.94145  22381669.7344                   22381667.7344
 -49505047.77347 -38552069.86744  22531021.3134                   22531019.0354
 -26253789.68748 -20425933.52346  21273788.8134                   21273784.2154
 11  8  2  0 16 30.0000000  0  8G17G10G09G12G04G27G28G02
 -44369949.83647 -34543350.93446  21753852.7814                   21753849.6054
 -17929130.51247 -13942948.06245  22148009.2274                   22148007.6414
 -20175610.67647 -15689540.32845  21994737.9614                   21994736.0904
  -6323145.75847  -4898779.64844  23696061.4924                   23696058.6134
 -41846212.55548 -32572385.00847  19881332.2664                   19881329.3874
 -27823466.64147 -21649864.09445  22378979.0944                   22378977.4964
 -49466052.10947 -38521683.70345  22538442.4534                   22538440.0514
 -26345255.45748 -20497205.52046  21256383.1414                   21256378.3754
 11  8  2  0 17  0.0000000  0  8G17G10G09G12G04G27G28G02
 -44369609.50447 -34543085.77746  21753917.5554                   21753913.8874
 -18046162.02347 -14034141.37545  22125738.6564                   22125737.3444
 -20195014.07047 -15704659.87545  21991045.4454                   21991043.9964
  -6455473.38747  -5001892.02344  23670880.6024                   23670877.0824
 -41856077.84048 -32580072.23847  19879455.1174                   19879452.1174
 -27837085.76247 -21660476.43045  22376387.4844                   22376385.9184
 -49426632.52047 -38490967.20344  22545943.2974                   22545941.2584
 -26436278.27748 -20568132.35546  21239062.1954                   21239057.6254
 11  8  2  0 17 30.0000000  0  8G17G10G09G12G04G27G28G02
 -44369104.58647 -34542692.35546  21754012.8444                   21754010.2624
 -18162821.93747 -14125045.14845  22103539.3364                   22103537.6954
 -20213734.03947 -15719246.89545  21987482.7194                   21987481.8244
  -6587658.34047  -5104893.24644  23645726.4694                   23645723.2424
 -41865371.34048 -32587313.93747  19877686.6174                   19877683.6454
 -27850188.10947 -21670686.06645  22373894.1954                   22373892.9104
 -49386790.20347 -38459921.30545  22553525.1024                   22553522.7234
 -26526857.91848 -20638713.85246  21221825.3914                   21221820.6134
 11  8  2  0 18  0.0000000  0  8G17G10G09G12G04G27G28G02
 -44368432.34447 -34542168.55946  21754141.1024                   21754138.2814
 -18279103.98847 -14215654.48445  22081411.7734                   22081409.5314
 -20231769.32047 -15733300.39145  21984051.2424                   21984049.9804
  -6719696.04347  -5207779.74644  23620601.1484                   23620597.9494
 -41874092.32848 -32594109.51647  19876027.1724                   19876024.6174
 -27862772.50447 -21680492.11745  22371500.0164                   22371498.1094
 -49346523.65247 -38428544.83244  22561187.8364                   22561185.7544
 -26616991.34448 -20708947.66046  21204673.3984                   21204669.0594
 11  8  2  0 18 30.0000000  0  8G17G10G09G12G04G27G28G02
 -44367593.19147 -34541514.69546  21754300.7194                   21754297.9264
 -18395005.69947 -14305967.45345  22059355.8524                   22059354.1604
 -20249121.97347 -15746821.96145  21980749.0944                   21980747.7544
  -6851585.32847  -5310550.55144  23595502.8444                   23595500.2704
 -41882243.08648 -32600460.76647  19874476.1024                   19874473.3284
 -27874840.80947 -21689896.01645  22369203.1884                   22369201.9224
 -49305834.43447 -38396838.99644  22568930.5474                   22568928.3484
 -26706678.56248 -20778833.77046  21187606.5634                   21187602.1214
 11  8  2  0 19  0.0000000  0  8G17G10G09G12G04G27G28G02
 -42791164.94548 -33313129.04746  22054285.2894                   22054282.4614
 -16935097.65247 -13168376.70745  22337167.3204                   22337165.9964
 -18690370.96547 -14532210.81245  22277369.7894                   22277368.0004
  -5407897.14847  -4185598.65244  23870227.2734                   23870224.8554
 -40314403.01648 -31378767.19947  20172826.0784                   20172823.3874
 -26310972.16047 -20471297.09045  22666798.3674                   22666796.0004
 -47689302.43747 -37137203.75045  22876546.6804                   22876544.4844
 -25220493.87948 -19620767.73846  21470418.2504                   21470413.6724
 11  8  2  0 19 30.0000000  0  8G17G10G09G12G04G27G28G02
 -42789987.20348 -33312211.33646  22054509.0944                   22054506.5634
 -17050225.05547 -13258086.32445  22315259.2584                   22315257.0274
 -18706359.46147 -14544669.40645  22274327.3594                   22274325.5984
  -5539478.86347  -4288129.80544  23845188.4774                   23845186.3014
 -40321414.86748 -31384230.98446  20171491.7814                   20171488.7814
 -26322009.48847 -20479897.63345  22664697.3834                   22664694.9384
 -47647766.69947 -37104838.29344  22884450.4144                   22884448.2384
 -25309283.53948 -19689954.46146  21453521.8754                   21453517.3834
 11  8  2  0 20  0.0000000  0  8G17G10G09G12G04G27G28G02
 -42788638.45748 -33311160.38346  22054766.2504                   22054763.3554
 -17164958.62547 -13347489.05945  22293426.2344                   22293424.2584
 -18721666.72347 -14556597.16045  22271414.3754                   22271412.1844
  -5670901.91447  -4390537.32044  23820179.3054                   23820177.1334
 -40327858.42648 -31389251.93446  20170265.4064                   20170262.7034
 -26332531.94547 -20488096.98045  22662694.7974                   22662692.9104
 -47605807.75047 -37072143.06644  22892435.1564                   22892433.1914
 -25397621.86348 -19758789.47746  21436711.5164                   21436707.0824
 11  8  2  0 20 30.0000000  0  8G17G10G09G12G04G27G28G02
 -42787116.61347 -33309974.54346  22055055.7894                   22055052.5634
 -17279293.34047 -13436580.99645  22271668.9384                   22271666.9534
 -18736292.28147 -14567993.72345  22268631.2504                   22268629.3364
  -5802162.23447  -4492818.00444  23795201.1414                   23795198.8634
 -40333733.72348 -31393830.09046  20169147.5234                   20169144.7194
 -26342539.37547 -20495895.01245  22660790.4144                   22660788.6214
 -47563424.80947 -37039117.45744  22900500.9144                   22900498.1844
 -25485506.80548 -19827271.21946  21419987.7194                   21419983.0664
 11  8  2  0 21  0.0000000  0  8G17G10G09G12G04G27G28G02
 -42785421.26647 -33308653.50046  22055378.4844                   22055375.3834
 -17393225.93047 -13525359.57845  22249988.1804                   22249986.7504
 -18750238.24247 -14578860.72345  22265977.4144                   22265975.6804
  -5933257.94547  -4594970.43044  23770254.4774                   23770251.3444
 -40339042.77348 -31397967.00847  20168137.1644                   20168134.6134
 -26352033.40647 -20503292.98045  22658983.3594                   22658981.3484
 -47520619.08647 -37005762.42245  22908646.4224                   22908644.5234
 -25572938.15647 -19895399.50446  21403350.0474                   21403345.9574
 11  8  2  0 21 30.0000000  0  8G17G10G09G12G04G27G28G02
 -42783551.37147 -33307196.44546  22055734.0004                   22055731.0744
 -17506752.07047 -13613821.46145  22228385.1414                   22228383.4304
 -18763504.70347 -14589198.23445  22263452.8674                   22263451.0434
  -6064185.66047  -4696991.96144  23745339.7344                   23745336.4264
 -40343786.45348 -31401663.38747  20167234.5394                   20167231.7734
 -26361014.55147 -20510291.30145  22657274.8284                   22657273.0634
 -47477390.50047 -36972077.86344  22916872.0784                   22916869.8984
 -25659914.63348 -19963173.34446  21386798.8984                   21386794.3284
 11  8  2  0 22  0.0000000  0  8G17G10G09G12G04G27G28G02
 -42781507.27047 -33305603.64546  22056122.9844                   22056119.8244
 -17619869.38747 -13701964.77745  22206859.2504                   22206857.4734
 -18776094.33247 -14599008.35945  22261056.8054                   22261055.5274
  -6194944.12547  -4798881.62544  23720457.4614                   23720454.7464
 -40347967.39548 -31404921.26247  20166438.9224                   20166436.0354
 -26369485.16447 -20516891.81245  22655662.7034                   22655661.3014
 -47433740.89147 -36938065.21944  22925178.8754                   22925176.4844
 -25746436.46548 -20030592.92646  21370334.3834                   21370329.9224
 11  8  2  0 22 30.0000000  0  8G17G10G09G12G04G27G28G02
 -42779287.46947 -33303873.93746  22056545.8834                   22056542.7624
 -17732573.50447 -13789786.10945  22185412.3134                   22185410.2934
 -18788007.84847 -14608291.64145  22258790.0164                   22258787.9964
  -6325530.02747  -4900636.84444  23695608.0314                   23695604.9104
 -40351586.19148 -31407741.10947  20165750.2034                   20165747.6914
 -26377445.84047 -20523094.97745  22654148.2734                   22654146.4304
 -47389669.85247 -36903724.23844  22933565.3524                   22933563.1054
 -25832501.84448 -20097656.81646  21353956.5314                   21353952.3404
 11  8  2  0 23  0.0000000  0  8G17G10G09G12G04G27G28G02
 -42776890.76647 -33302006.39146  22057001.8054                   22056998.7074
 -17844860.18447 -13877282.18745  22164045.2274                   22164043.1524
 -18799246.01247 -14617048.65645  22256651.6414                   22256649.9454
  -6455940.43447  -5002255.28544  23670791.0234                   23670787.8674
 -40354644.19548 -31410123.97346  20165168.3594                   20165165.8204
 -26384897.39147 -20528901.41045  22652730.3674                   22652728.7624
 -47345178.52747 -36869055.69944  22942032.0864                   22942029.1604
 -25918109.76648 -20164364.25446  21337665.8754                   21337661.5274
 11  8  2  0 23 30.0000000  0  8G17G10G09G12G04G27G28G02
 -42774317.15648 -33300000.98846  22057491.6954                   22057488.5594
 -17956726.38747 -13964450.62545  22142757.4144                   22142755.6804
 -18809810.65248 -14625280.85245  22254641.2734                   22254639.4614
  -6586173.10247  -5103735.25844  23646008.4534                   23646005.8204
 -40357143.40648 -31412071.41846  20164692.7894                   20164689.9344
 -26391841.66847 -20534312.57845  22651408.8594                   22651407.6294
 -47300268.10947 -36834060.62144  22950577.3984                   22950575.8134
 -26003259.90248 -20230714.97346  21321462.1884                   21321457.8134
 11  8  2  0 24  0.0000000  0  8G17G10G09G12G04G27G28G02
 -42771567.16048 -33297858.14846  22058015.0704                   22058011.8554
 -18068169.59048 -14051289.43745  22121550.1884                   22121548.3014
 -18819704.48047 -14632990.33645  22252758.5474                   22252756.2304
  -6716226.42647  -5205075.50444  23621260.2194                   23621257.5944
 -40359086.54748 -31413585.55146  20164323.0634                   20164320.8094
 -26398281.05947 -20539330.32845  22650183.3524                   22650181.7304
 -47254939.75447 -36798739.87944  22959203.3054                   22959201.3484
 -26087952.96548 -20296709.53546  21305345.8754                   21305341.3484
 11  8  2  0 24 30.0000000  0  8G17G10G09G12G04G27G28G02
 -42768638.49247 -33295576.09046  22058571.9614                   22058569.1954
 -18179184.22347 -14137794.32045  22100424.8134                   22100422.7424
 -18828927.11347 -14640176.82445  22251003.5554                   22251001.6414
  -6846096.14547  -5306272.66044  23596547.2274                   23596544.1524
 -40360473.45748 -31414666.26247  20164059.1954                   20164056.4104
 -26404215.16847 -20543954.34845  22649054.1484                   22649052.6724
 -47209193.24647 -36763093.32444  22967908.8134                   22967906.7974
 -26172186.55548 -20362346.07446  21289316.6024                   21289311.9774
 11  8  2  0 25  0.0000000  0  8G17G10G09G12G04G27G28G02
 -42765531.70347 -33293155.24246  22059163.2424                   22059160.1094
 -18289768.17247 -14223963.60245  22079381.1954                   22079379.2194
 -18837481.62147 -14646842.68045  22249375.8674                   22249373.5664
  -6975781.43447  -5407326.08244  23571868.3594                   23571865.8324
 -40361307.02048 -31415315.79747  20163900.3134                   20163897.7114
 -26409646.61347 -20548186.68445  22648020.7734                   22648018.5634
 -47163030.31647 -36727122.24244  22976693.2344                   22976691.1454
 -26255961.08648 -20427624.90246  21273375.1024                   21273370.0864
 11  8  2  0 25 30.0000000  0  8G17G10G09G12G04G27G28G02
 -42762246.00448 -33290594.96946  22059788.1644                   22059785.4734
 -18399917.49247 -14309794.19945  22058421.1094                   22058418.4184
 -18845368.93747 -14652988.67245  22247874.9534                   22247872.5594
  -7105279.41847  -5508233.55944  23547226.0474                   23547223.5434
 -40361588.82448 -31415535.38347  20163846.5474                   20163844.0044
 -26414576.64547 -20552028.30145  22647082.7814                   22647080.7304
 -47116451.92247 -36690827.43044  22985557.7894                   22985554.9884
 -26339275.91848 -20492545.52346  21257520.7424                   21257516.1804
 11  8  2  0 26  0.0000000  0  8G17G10G09G12G04G27G28G02
 -42758781.11748 -33287895.09446  22060447.4844                   22060444.7234
 -18509629.85247 -14395284.30945  22037543.3834                   22037541.3874
 -18852591.63347 -14658616.75045  22246500.3914                   22246497.7504
  -7234588.23847  -5608993.65244  23522619.8594                   23522616.8204
 -40361321.34848 -31415326.96546  20163897.8914                   20163895.1844
 -26419007.46547 -20555480.92645  22646239.5474                   22646238.3054
 -47069459.72347 -36654210.19544  22994499.6254                   22994497.1884
 -26422131.15648 -20557108.02346  21241753.6564                   21241749.2584
 11  8  2  0 26 30.0000000  0  9G17G10G09G12G04G27G05G28G02
 -42755138.36748 -33285056.60946  22061141.1484                   22061138.2114
 -18618902.91047 -14480432.09845  22016749.4844                   22016747.4574
 -18859152.84447 -14663729.39145  22245251.9304                   22245249.8244
  -7363706.40647  -5709605.15644  23498048.6254                   23498046.1024
 -40360507.45348 -31414692.76247  20164052.8284                   20164050.0434
 -26422941.73047 -20558546.62545  22645490.6174                   22645489.3634
   1369989.68856   1082031.23854  24712308.8914                   24712309.6804
 -47022055.60947 -36617271.96144  23003520.0944                   23003518.3484
 -26504527.52348 -20621312.96146  21226074.3754                   21226069.5164
 11  8  2  0 27  0.0000000  0  9G17G10G09G12G04G27G05G28G02
 -42751320.31248 -33282081.52346  22061867.4454                   22061864.6724
 -18727736.27347 -14565237.28545  21996039.0474                   21996036.5824
 -18865057.82047 -14668330.69145  22244128.4844                   22244126.0984
  -7492635.19947  -5810069.10545  23473514.6804                   23473511.9024
 -40359152.32848 -31413636.82847  20164310.4614                   20164308.0044
 -26426384.61347 -20561229.43045  22644835.5634                   22644834.1954
   1231115.72746    973818.03944  24685880.5704                   24685883.3094
 -46974244.19947 -36580016.39144  23012618.4224                   23012616.1954
 -26586467.89148 -20685162.57446  21210481.5864                   21210477.2774
 11  8  2  0 27 30.0000000  0  9G17G10G09G12G04G27G05G28G02
 -42747332.40248 -33278974.10946  22062626.4144                   22062623.9574
 -18836132.90247 -14649702.14545  21975411.6724                   21975409.8524
 -18870313.85547 -14672426.33245  22243128.4384                   22243125.8984
  -7621377.60547  -5910387.82045  23449015.8204                   23449012.7234
 -40357263.99248 -31412165.39547  20164669.6254                   20164667.1684
 -26429343.61347 -20563535.17245  22644272.8914                   22644271.0514
   1092235.64846    865600.05944  24659453.5704                   24659454.7734
 -46926032.43747 -36542448.86344  23021792.6174                   23021791.4774
 -26667957.97348 -20748661.31246  21194974.4534                   21194969.7464
 11  8  2  0 28  0.0000000  0  9G17G10G09G12G04G27G05G28G02
 -42743176.59047 -33275735.83646  22063417.8914                   22063414.3164
 -18944091.61747 -14733825.76245  21954867.7664                   21954865.5084
 -18874925.39847 -14676019.77045  22242250.5784                   22242248.2734
  -7749934.18047  -6010561.74645  23424552.2894                   23424549.2974
 -40354846.62148 -31410281.73047  20165130.0084                   20165127.1684
 -26431822.94547 -20565467.14145  22643800.6954                   22643799.6454
    953348.98047    757376.91844  24633023.9924                   24633025.3954
 -46877424.01647 -36504572.22344  23031043.2034                   23031041.1884
 -26748999.88748 -20811810.83646  21179552.6414                   21179547.9774
 11  8  2  0 28 30.0000000  0  9G17G10G09G12G04G27G05G28G02
 -42738852.88348 -33272366.73446  22064240.4614                   22064237.6174
 -19051609.75447 -14817606.09045  21934408.0554                   21934405.6024
 -18878894.66047 -14679112.71545  22241495.3754                   22241493.3484
  -7878302.84047  -6110589.22345  23400124.1954                   23400121.8954
 -40351902.66048 -31407987.74247  20165690.0704                   20165687.2234
 -26433824.59047 -20567026.89845  22643419.7584                   22643418.5004
    814458.19146    649150.60544  24606593.4614                   24606594.8324
 -46828421.06647 -36466388.18044  23040367.3364                   23040365.7974
 -26829593.65248 -20874611.16046  21164215.9844                   21164211.9924
 11  8  2  0 29  0.0000000  0  9G17G10G09G12G04G27G05G28G02
 -42734359.82447 -33268865.67646  22065094.8914                   22065092.5554
 -19158682.85548 -14901039.62545  21914032.4534                   21914029.5904
 -18882222.58647 -14681705.94545  22240861.8594                   22240859.9964
  -8006479.84047  -6210467.36345  23375733.1094                   23375730.7274
 -40348432.83648 -31405283.97747  20166350.1334                   20166347.4844
 -26435349.15247 -20568214.92245  22643129.8054                   22643128.5554
    675567.50046    540924.30543  24580163.3054                   24580164.4924
 -46779022.64847 -36427895.99644  23049767.6954                   23049766.1884
 -26909737.87548 -20937061.17646  21148965.1484                   21148960.5904
 11  8  2  0 29 30.0000000  0  9G17G10G09G12G04G27G05G28G02
 -42729695.43747 -33265231.10546  22065983.0474                   22065979.9144
 -19265306.30948 -14984122.80545  21893742.5394                   21893740.3204
 -18884909.73047 -14683799.84845  22240350.5474                   22240349.3094
  -8134461.62147  -6310193.39145  23351378.9844                   23351376.4574
 -40344437.98448 -31402171.10547  20167110.5234                   20167108.1024
 -26436397.09847 -20569031.52045  22642930.3984                   22642929.0434
    536680.72746    432701.10243  24553733.7424                   24553734.5944
 -46729229.02347 -36389095.84844  23059243.3754                   23059241.1214
 -26989430.64548 -20999159.40646  21133800.2894                   21133795.7304
 11  8  2  0 30  0.0000000  0  9G17G10G09G12G04G27G05G28G02
 -42724856.93747 -33261460.87146  22066903.8524                   22066901.5594
 -19371474.51248 -15066851.23445  21873539.4844                   21873537.3714
 -18886955.65247 -14685394.09845  22239961.2814                   22239959.5234
  -8262243.41047  -6409763.57845  23327063.2344                   23327060.2664
 -40339917.50448 -31398648.65246  20167970.6414                   20167968.1174
 -26436968.18047 -20569476.53545  22642821.7034                   22642819.8444
    397802.75446    324484.73443  24527305.8984                   24527306.6954
 -46679038.89147 -36349986.71144  23068794.5864                   23068792.0164
 -27068669.37948 -21060903.86346  21118721.8594                   21118717.0084
 11  8  2  0 30 30.0000000  0  9G17G10G09G12G04G27G05G28G02
 -42719844.80547 -33257555.33646  22067857.5004                   22067854.7664
 -19477184.88748 -15149222.91445  21853423.2424                   21853421.3674
 -18888363.37147 -14686491.06245  22239693.4384                   22239691.5314
  -8389823.62147  -6509176.69145  23302785.7894                   23302781.9184
 -40334874.42248 -31394718.97746  20168930.2424                   20168927.8244
 -26437064.77047 -20569551.82845  22642803.3054                   22642801.8914
    258935.69146    216276.90243  24500879.1954                   24500880.8754
 -46628454.49247 -36310570.38344  23078420.8284                   23078418.1484
 -27147454.98048 -21122295.21146  21103728.9844                   21103724.2154
 11  8  2  0 31  0.0000000  0  9G17G10G09G12G04G27G05G28G02
 -42714657.27747 -33253513.12146  22068844.6484                   22068841.8984
 -19582433.02348 -15231234.39545  21833395.3444                   21833393.3524
 -18889133.53147 -14687091.21945  22239547.3204                   22239545.3554
  -8517198.61747  -6608429.88744  23278546.3364                   23278543.0514
 -40329309.62948 -31390382.78147  20169989.3984                   20169986.7464
 -26436687.75447 -20569258.06245  22642875.1954                   22642874.2114
    120083.42246    108080.52343  24474457.0394                   24474457.4574
 -46577476.02047 -36270846.97344  23088121.5474                   23088119.0514
 -27225785.98048 -21183332.33646  21088823.1094                   21088818.3874
 11  8  2  0 31 30.0000000  0  9G17G10G09G12G04G27G05G28G02
 -42709292.77047 -33249333.00846  22069865.3754                   22069862.8204
 -19687214.82848 -15312882.50845  21813456.1094                   21813453.5124
 -18889267.27047 -14687195.46145  22239521.1884                   22239519.8754
  -8644364.62947  -6707520.25445  23254347.7274                   23254344.2544
 -40323223.48448 -31385640.33646  20171147.4454                   20171144.8484
 -26435837.46547 -20568595.52045  22643036.4384                   22643035.1174
    -18750.19546      -101.25443  24448037.4224                   24448038.2774
 -46526103.22347 -36230816.29744  23097897.7584                   23097895.1684
 -27303660.88748 -21244014.05946  21074003.9384                   21073999.1764
 11  8  2  0 32  0.0000000  0  9G17G10G09G12G04G27G05G28G02
 -42703751.80948 -33245015.39845  22070919.8204                   22070917.2504
 -19791527.83648 -15394165.32045  21793605.6884                   21793603.6604
 -18888767.54347 -14686806.09445  22239616.7734                   22239615.0314
  -8771320.66047  -6806446.99244  23230188.4694                   23230185.3054
 -40316619.33648 -31380494.25046  20172404.1564                   20172401.2734
 -26434516.83647 -20567566.48045  22643287.7584                   22643286.6764
   -157563.49646   -108267.21143  24421622.0634                   24421623.5354
 -46474338.56247 -36190480.28944  23107748.3204                   23107745.8834
 -27381080.58248 -21304341.07446  21059271.5864                   21059267.0824
 11  8  2  0 32 30.0000000  0  9G17G10G09G12G04G27G05G28G02
 -42698032.10248 -33240558.48846  22072008.2424                   22072005.8484
 -19895366.95748 -15475078.87545  21773846.0704                   21773843.5554
 -18887634.65247 -14685923.35245  22239831.9614                   22239829.9734
  -8898062.45347  -6905206.76244  23206069.6884                   23206066.8244
 -40309497.45348 -31374944.73446  20173759.4144                   20173756.7584
 -26432725.84447 -20566170.93045  22643629.0944                   22643627.8054
   -296351.92646   -216413.84044  24395211.3834                   24395213.0554
 -46422181.44146 -36149838.44544  23117672.8594                   23117671.0274
 -27458042.67248 -21364311.51246  21044626.1564                   21044621.9184
 11  8  2  0 33  0.0000000  0  9G17G10G09G12G04G27G05G28G02
 -42692133.45348 -33235962.15646  22073130.6884                   22073127.6724
 -19998729.52748 -15555621.09045  21754176.4844                   21754174.3984
 -18885871.34447 -14684549.37145  22240167.8444                   22240166.1684
  -9024587.66047  -7003797.79745  23181993.3054                   23181990.0314
 -40301860.23048 -31368993.65646  20175212.8984                   20175210.1214
 -26430466.73847 -20564410.61745  22644059.0784                   22644057.1764
   -435113.05547   -324539.14844  24368806.3914                   24368807.0124
 -46369633.65247 -36108892.22344  23127672.2584                   23127670.5904
 -27534547.60548 -21423925.73846  21030067.6564                   21030062.6174
 11  8  2  0 33 30.0000000  0  9G17G10G09G12G04G27G05G28G02
 -42686053.93447 -33231224.86746  22074287.8834                   22074284.4494
 -20101610.66448 -15635788.16445  21734598.9774                   21734596.7384
 -18883477.86347 -14682684.34445  22240623.5314                   22240621.2154
  -9150892.10247  -7102216.80945  23157958.0944                   23157954.9144
 -40293708.18048 -31362641.41846  20176764.1094                   20176761.6764
 -26427739.84447 -20562285.77745  22644577.9534                   22644576.4494
   -573842.59847   -432639.88744  24342406.8984                   24342407.7304
 -46316694.78547 -36067641.23844  23137746.7814                   23137745.1054
 -27610593.49648 -21483182.25446  21015596.6024                   21015591.9844
 11  8  2  0 34  0.0000000  0  9G17G10G09G12G04G27G05G28G02
 -42679793.17648 -33226346.35546  22075478.7734                   22075476.2774
 -20204007.36747 -15715577.75045  21715112.9774                   21715111.2504
 -18880456.64547 -14680330.17245  22241198.4224                   22241196.3164
  -9276973.57447  -7200462.05144  23133965.2814                   23133963.0474
 -40285043.50048 -31355889.73846  20178413.0704                   20178410.5164
 -26424547.17247 -20559798.01245  22645185.4304                   22645183.6914
   -712537.99647   -540713.99644  24316014.3444                   24316015.0044
 -46263366.23447 -36026086.60944  23147895.1414                   23147893.2274
 -27686180.50448 -21542081.20746  21001213.0164                   21001208.0824
 11  8  2  0 34 30.0000000  0  9G17G10G09G12G04G27G05G28G02
 -42673350.74248 -33221326.28145  22076704.7344                   22076702.3674
 -20305916.68048 -15794987.57445  21695720.6174                   21695718.5004
 -18876810.20347 -14677488.81645  22241892.0944                   22241890.3164
  -9402830.16847  -7298532.07045  23110016.1414                   23110013.3324
 -40275868.32848 -31348740.26246  20180159.0944                   20180156.3524
 -26420890.94547 -20556949.02745  22645881.7504                   22645880.0824
   -851196.85247   -648759.62944  24289627.8444                   24289628.5274
 -46209649.76247 -35984229.68744  23158117.1024                   23158115.1454
 -27761308.72748 -21600622.65646  20986916.3594                   20986911.6484
 11  8  2  0 35  0.0000000  0  9G17G10G09G12G04G27G05G28G02
 -42666724.31247 -33216162.84845  22077965.9614                   22077963.3524
 -20407333.34848 -15874013.50845  21676421.8284                   21676419.2464
 -18872538.80947 -14674160.48845  22242704.6884                   22242702.3014
  -9528457.30147  -7396423.30945  23086110.0394                   23086107.2034
 -40266182.77748 -31341193.08246  20182002.2344                   20181999.6564
 -26416770.96147 -20553738.68745  22646665.6094                   22646664.1804
   -989814.09446   -756772.85244  24263250.0234                   24263250.6724
 -46155544.46547 -35942069.79744  23168412.7894                   23168410.5784
 -27835975.81648 -21658804.78146  20972707.7664                   20972703.4224
 11  8  2  0 35 30.0000000  0  9G17G10G09G12G04G27G05G28G02
 -42659914.84847 -33210856.78946  22079261.5394                   22079258.6764
 -20508255.46148 -15952654.07445  21657217.1884                   21657214.5554
 -18867646.10947 -14670348.00845  22243636.2194                   22243633.2814
  -9653853.59847  -7494134.66445  23062247.8984                   23062244.6994
 -40255990.44548 -31333251.01246  20183941.6094                   20183938.9304
 -26412190.62147 -20550169.62145  22647537.0634                   22647535.1214
  -1128388.66446   -864752.81244  24236879.6174                   24236880.5904
 -46101053.20747 -35899609.14844  23178782.0864                   23178780.7154
 -27910183.26648 -21716628.75046  20958587.0314                   20958581.6334
 11  8  2  0 36  0.0000000  0  9G17G10G09G12G04G27G05G28G02
 -42652919.97347 -33205406.25846  22080592.6804                   22080589.8794
 -20608678.57448 -16030905.81245  21638107.1484                   21638104.9224
 -18862132.53548 -14666051.74645  22244685.2344                   22244682.9534
  -9779015.18747  -7591663.14845  23038430.4924                   23038427.6024
 -40245291.80948 -31324914.41446  20185977.5314                   20185974.9184
 -26407150.43047 -20546242.23045  22648495.9454                   22648494.5004
  -1266915.53146   -972695.60944  24210518.6414                   24210519.2934
 -46046175.54347 -35856847.39544  23189226.0864                   23189224.3754
 -27983929.23048 -21774093.11346  20944553.3134                   20944548.6294
 11  8  2  0 36 30.0000000  0  9G17G10G09G12G04G27G05G28G02
 -42645738.27747 -33199810.14145  22081959.4304                   22081956.7424
 -20708598.53948 -16108765.48445  21619092.5234                   21619091.0474
 -18855999.33647 -14661272.64145  22245852.5784                   22245850.0864
  -9903938.53947  -7689005.98045  23014658.6644                   23014655.5084
 -40234087.94148 -31316184.13746  20188109.6804                   20188106.9964
 -26401651.21147 -20541957.14845  22649542.5704                   22649541.1564
  -1405391.89546  -1080599.07044  24184166.2274                   24184168.3914
 -45990912.31747 -35813785.23744  23199741.3204                   23199739.7974
 -28057212.57448 -21831196.99646  20930607.9144                   20930602.8554
 11  8  2  0 37  0.0000000  0  9G17G10G09G12G04G27G05G28G02
 -42638367.78147 -33194066.91445  22083362.1724                   22083358.9574
 -20808010.69548 -16186229.47345  21600175.3204                   21600172.6414
 -18849247.63747 -14656011.60245  22247137.5864                   22247135.2304
 -10028619.92247  -7786160.27345  22990932.2894                   22990929.2664
 -40222379.62148 -31307060.77046  20190337.5944                   20190334.9494
 -26395693.73847 -20537315.00445  22650676.4844                   22650674.6724
  -1543813.09446  -1188459.53544  24157826.3754                   24157826.8874
 -45935263.33646 -35770422.44144  23210331.1484                   23210329.8914
 -28130031.85948 -21887939.26646  20916750.6564                   20916745.6914
 11  8  2  0 37 30.0000000  0  9G17G10G09G12G04G27G05G28G02
 -42630808.31648 -33188176.44145  22084800.6804                   22084798.0004
 -20906912.17248 -16263295.52345  21581354.8834                   21581352.3054
 -18841879.91047 -14650270.54745  22248539.3524                   22248537.4064
 -10153056.88747  -7883124.11345  22967252.0314                   22967249.3554
 -40210169.07448 -31297546.05946  20192661.2114                   20192658.6994
 -26389280.25447 -20532317.53145  22651896.8914                   22651894.9844
  -1682176.04346  -1296274.60244  24131496.8204                   24131497.2854
 -45879230.04746 -35726760.21544  23220993.6644                   23220992.2504
 -28202387.36748 -21944320.15646  20902981.9224                   20902977.0204
 11  8  2  0 38  0.0000000  0  9G17G10G09G12G04G27G05G28G02
 -42623057.89848 -33182137.16045  22086275.6334                   22086272.7624
 -21005298.36348 -16339960.05145  21562632.1414                   21562630.0204
 -18833897.02747 -14644050.14845  22250058.1254                   22250056.4964
 -10277245.02347  -7979894.07845  22943620.0314                   22943617.0554
 -40197456.78948 -31287640.37946  20195080.1334                   20195077.7464
 -26382411.02047 -20526964.91045  22653204.1954                   22653202.2664
  -1820477.00846  -1404041.41844  24105178.7424                   24105179.3754
 -45822812.27046 -35682798.42244  23231729.9694                   23231728.0594
 -28274277.21148 -22000338.18046  20889301.6414                   20889296.9184
 11  8  2  0 38 30.0000000  0  9G17G10G09G12G04G27G05G28G02
 -42615114.05948 -33175947.18745  22087787.3134                   22087784.4344
 -21103164.59847 -16416219.42645  21544009.2194                   21544006.7194
 -18825299.38347 -14637350.71945  22251694.6174                   22251692.3554
 -10401180.71947  -8076467.30545  22920035.5394                   22920033.3244
 -40184243.48448 -31277344.30146  20197594.5084                   20197591.8714
 -26375086.49247 -20521257.52045  22654597.4694                   22654596.2384
  -1958711.69146  -1511756.59444  24078873.4144                   24078873.8674
 -45766010.14546 -35638537.10243  23242539.7504                   23242537.0944
 -28345699.80148 -22055992.11746  20875710.7504                   20875705.9654
 11  8  2  0 39  0.0000000  0  9G17G10G09G12G04G27G05G28G02
 -42606974.96548 -33169605.05545  22089336.2114                   22089333.3134
 -21200506.15648 -16492069.95345  21525485.5234                   21525483.7584
 -18816088.14147 -14630173.14145  22253447.3134                   22253445.1764
 -10524859.97747  -8172840.73845  22896500.7504                   22896497.2624
 -40170529.63748 -31266658.18746  20200204.3054                   20200201.8524
 -26367307.09847 -20515195.69145  22656077.9614                   22656077.2344
  -2096875.52046  -1619416.57844  24052582.0004                   24052582.2304
 -45708823.31246 -35593976.01643  23253421.4924                   23253419.5744
 -28416653.63348 -22111280.79346  20862208.2424                   20862204.0204
 11  8  2  0 39 30.0000000  0  9G17G10G09G12G04G27G05G28G02
 -42598639.94548 -33163110.25045  22090921.8364                   22090919.2624
 -21297320.28148 -16567509.50445  21507062.7034                   21507060.4964
 -18806265.80147 -14622519.41445  22255316.5474                   22255314.1054
 -10648280.14847  -8269012.28145  22873014.5394                   22873011.4064
 -40156317.57048 -31255583.85546  20202908.8674                   20202905.9344
 -26359075.26247 -20508781.31244  22657644.9924                   22657643.7234
  -2234965.46947  -1727018.98444  24026303.9534                   24026304.1914
 -45651253.54346 -35549116.55544  23264376.9144                   23264374.4654
 -28487139.01248 -22166204.43746  20848795.4844                   20848790.7974
 11  8  2  0 40  0.0000000  0  9G17G10G09G12G04G27G05G28G02
 -42590107.57847 -33156461.68445  22092545.6024                   22092543.0744
 -21393602.86347 -16642534.85945  21488740.6484                   21488738.6374
 -18795833.78547 -14614390.58645  22257301.6724                   22257299.2974
 -10771437.60247  -8364979.10945  22849578.3524                   22849575.5704
 -40141608.32048 -31244122.10946  20205707.8674                   20205704.8914
 -26350391.96947 -20502015.14845  22659297.1484                   22659295.5354
  -2372977.81647  -1834560.91044  24000041.0234                   24000041.2664
 -45593301.03546 -35503958.81644  23275404.5084                   23275402.8134
 -28557154.59448 -22220762.01246  20835472.2274                   20835467.2584
 11  8  2  0 40 30.0000000  0  9G17G10G09G12G04G27G05G28G02
 -42581374.84448 -33149656.99245  22094207.7664                   22094204.7544
 -21489347.79347 -16717141.25845  21470520.8134                   21470518.6134
 -18784792.03547 -14605786.64845  22259403.0004                   22259400.8364
 -10894327.11347  -8460737.13345  22826193.3674                   22826190.7544
 -40126401.29348 -31232272.48446  20208601.4144                   20208598.7974
 -26341256.50047 -20494896.63345  22661035.1484                   22661033.9494
  -2510907.19947  -1942038.19544  23973793.3674                   23973793.8244
 -45534964.56246 -35458501.90244  23286505.5474                   23286504.3404
 -28626697.76648 -22274951.47746  20822238.1804                   20822233.6374
 11  8  2  0 41  0.0000000  0  9G17G10G09G12G04G27G05G28G02
 -42572441.31248 -33142695.82045  22095907.6254                   22095904.9224
 -21584553.08247 -16791327.16445  21452404.0234                   21452401.9024
 -18773143.26247 -14596709.70345  22261619.8754                   22261617.6024
 -11016946.73847  -8556284.87545  22802859.9064                   22802856.3794
 -40110699.17648 -31220037.07446  20211589.7584                   20211586.8714
 -26331671.34847 -20487427.73045  22662859.4534                   22662858.0514
  -2648751.28947  -2049449.02044  23947562.9304                   23947563.1524
 -45476245.93446 -35412747.21543  23297680.0864                   23297678.4494
 -28695769.05948 -22328773.23446  20809094.4384                   20809089.4494
 11  8  2  0 41 30.0000000  0  9G17G10G09G12G04G27G05G28G02
 -42563304.31248 -33135576.08245  22097646.3834                   22097643.4344
 -21679213.41848 -16865088.44145  21434390.8914                   21434388.4144
 -18760887.57847 -14587159.84045  22263951.5704                   22263949.8524
 -11139291.41847  -8651618.37145  22779578.5084                   22779575.3634
 -40094502.03948 -31207415.93446  20214671.9224                   20214669.0784
 -26321636.49247 -20479608.39845  22664769.5394                   22664767.7344
  -2786504.68747  -2156789.15644  23921348.7424                   23921349.2774
 -45417144.86746 -35366694.53144  23308926.5234                   23308925.1454
 -28764366.10548 -22382225.45346  20796040.8204                   20796036.0944
 11  8  2  0 42  0.0000000  0  9G17G10G09G12G04G27G05G28G02
 -40978542.45747 -31900696.73045  22399216.6024                   22399213.8554
 -20197901.10247 -15710819.06245  21716275.0474                   21716272.5394
 -17172607.03147 -13349538.65245  22566191.3284                   22566189.5904
  -9685933.64547  -7519131.74245  23056143.0164                   23056140.4454
 -38502391.32448 -29966810.19546  20517640.3364                   20517637.8754
 -24735733.48847 -19243839.87145  22966556.5394                   22966555.5594
  -1348739.09047  -1036452.14844  24194946.4534                   24194946.1414
 -43782243.51247 -34092745.51644  23620037.9844                   23620036.5164
 -27257065.71548 -21207705.64846  21082870.7424                   21082865.6374
 11  8  2  0 42 30.0000000  0  9G17G10G09G12G04G27G05G28G02
 -40968993.73847 -31893256.16845  22401033.5704                   22401030.6294
 -20291458.58647 -15783720.96546  21698471.4844                   21698469.3444
 -17159142.30147 -13339046.68745  22568753.5164                   22568752.5514
  -9807717.98847  -7614028.60545  23032967.4694                   23032965.2344
 -38485207.12148 -29953419.91446  20520910.3284                   20520908.1414
 -24724802.47347 -19235322.24644  22968636.5554                   22968635.1524
  -1486299.52046  -1143641.89844  24168770.3524                   24168769.7034
 -43722378.45746 -34046097.51644  23631429.8984                   23631427.8594
 -27324711.46148 -21260416.59846  21069998.1644                   21069993.1054
 11  8  2  0 43  0.0000000  0  9G17G10G09G12G04G27G05G28G02
 -40959235.94947 -31885652.71545  22402890.7814                   22402887.7464
 -20384458.50847 -15856188.40646  21680774.3444                   21680771.9264
 -17145074.65247 -13328084.90645  22571430.7424                   22571428.9884
  -9929216.30547  -7708702.57445  23009847.3914                   23009844.5204
 -38467530.61748 -29939646.02746  20524274.1954                   20524271.5514
 -24713424.15647 -19226456.07045  22970801.9304                   22970800.3754
  -1623757.01247  -1250751.45744  24142611.9064                   24142612.3794
 -43662131.26246 -33999151.73443  23642894.5394                   23642893.0864
 -27391879.64148 -21312755.42246  21057216.3054                   21057211.4534
 11  8  2  0 43 30.0000000  0  9G17G10G09G12G04G27G05G28G02
 -40949268.60247 -31877885.95345  22404787.5394                   22404784.2504
 -20476897.34447 -15928218.63346  21663183.7194                   21663181.3244
 -17130406.69147 -13316655.34845  22574221.7664                   22574220.2504
 -10050425.90647  -7803151.58645  22986781.9454                   22986779.4964
 -38449364.06648 -29925490.28946  20527731.5554                   20527728.8594
 -24701600.93447 -19217243.19544  22973051.8284                   22973050.0314
  -1761108.94547  -1357778.73844  24116474.7584                   24116475.2464
 -43601503.78946 -33951909.66043  23654432.0864                   23654430.3794
 -27458570.24248 -21364722.10546  21044525.5084                   21044520.7154
 11  8  2  0 44  0.0000000  0  9G17G10G09G12G04G27G05G28G02
 -40939089.63348 -31869954.32045  22406724.2894                   22406721.7664
 -20568770.53947 -15999808.09446  21645700.9614                   21645698.5204
 -17115139.18447 -13304758.61745  22577127.0474                   22577125.5824
 -10171342.63347  -7897372.37545  22963772.4304                   22963770.3204
 -38430707.80948 -29910952.95746  20531281.3594                   20531278.6254
 -24689333.09447 -19207683.88745  22975386.3054                   22975384.8914
  -1898350.45747  -1464719.97344  24090357.8284                   24090359.0704
 -43540495.69946 -33904370.95743  23666040.7814                   23666039.1954
 -27524781.49248 -21416315.26646  21031926.2034                   21031921.2154
 11  8  2  0 44 30.0000000  0  9G17G10G09G12G04G27G05G28G02
 -40928698.17247 -31861857.10245  22408701.6414                   22408698.9804
 -20660075.31247 -16070954.62946  21628325.7734                   21628324.3874
 -17099274.68747 -13292396.70345  22580146.7424                   22580145.0394
 -10291963.39147  -7991362.51645  22940819.3364                   22940816.6954
 -38411563.70348 -29896035.48846  20534924.3834                   20534921.4224
 -24676622.79747 -19197779.78545  22977805.0864                   22977803.5864
  -2035478.44147  -1571572.78144  24064264.1564                   24064263.8094
 -43479108.52746 -33856536.89843  23677722.3674                   23677721.2194
 -27590513.12148 -21467534.68446  21019417.5944                   21019412.9534
 11  8  2  0 45  0.0000000  0  9G17G10G09G12G04G27G05G28G02
 -40918091.73847 -31853592.35945  22410719.5944                   22410717.8524
 -20750806.82447 -16141654.46945  21611060.6484                   21611057.9454
 -17082813.88747 -13279570.12945  22583278.4774                   22583276.9264
 -10412283.51247  -8085118.42245  22917923.1804                   22917919.8914
 -38391932.43748 -29880738.40246  20538660.1884                   20538657.2814
 -24663470.49247 -19187531.28145  22980307.2504                   22980306.3244
  -2172488.16447  -1678333.43044  24038191.5784                   24038191.4774
 -43417341.86346 -33808407.10943  23689477.0474                   23689475.1254
 -27655763.69148 -21518379.26246  21007000.6644                   21006995.6804
 11  8  2  0 45 30.0000000  0  9G17G10G09G12G04G27G05G28G02
 -40907267.82447 -31845158.15245  22412779.7894                   22412777.2234
 -20840959.99647 -16211903.67246  21593904.9614                   21593903.0124
 -17065757.43747 -13266279.42245  22586524.6804                   22586523.2154
 -10532299.05147  -8178636.99645  22895084.6954                   22895081.5984
 -38371813.98048 -29865061.69146  20542488.6484                   20542486.1604
 -24649876.40247 -19176938.52345  22982895.2664                   22982893.8444
  -2309375.13747  -1784998.42644  24012142.7894                   24012142.2774
 -43355195.27046 -33759981.28143  23701302.7734                   23701301.0124
 -27720531.39148 -21568847.58646  20994675.7894                   20994671.0864
 11  8  2  0 46  0.0000000  0  9G17G10G09G12G04G27G05G28G02
 -40896224.38348 -31836552.88345  22414881.0864                   22414879.0474
 -20930530.82447 -16281699.09446  21576860.0314                   21576857.8404
 -17048106.38747 -13252525.39145  22589883.6254                   22589882.3444
 -10652006.07047  -8271915.14145  22872304.8444                   22872302.2504
 -38351209.38748 -29849006.17646  20546409.5634                   20546406.7894
 -24635841.12147 -19166001.97745  22985565.9384                   22985564.1844
  -2446134.86747  -1891564.32044  23986118.2114                   23986117.6994
 -43292669.05947 -33711259.62543  23713201.7664                   23713199.6484
 -27784815.03548 -21618938.72746  20982443.1414                   20982437.9804
 11  8  2  0 46 30.0000000  0  9G17G10G09G12G04G27G05G28G02
 -40884959.35547 -31827774.94545  22417024.3754                   22417021.6374
 -21019515.61347 -16351037.86345  21559926.8674                   21559924.2304
 -17029862.64147 -13238309.51245  22593355.0004                   22593353.7814
 -10771400.51647  -8364949.73045  22849584.8984                   22849581.7934
 -38330119.56648 -29832572.55146  20550422.8674                   20550420.2274
 -24621365.91447 -19154722.61744  22988320.1804                   22988319.1254
  -2582763.28547  -1998027.84444  23960117.9844                   23960118.1054
 -43229763.73846 -33662242.58243  23725172.0864                   23725169.8674
 -27848613.58248 -21668651.86346  20970302.7194                   20970298.0124
 11  8  2  0 47  0.0000000  0  9G17G10G09G12G04G27G05G28G02
 -40873471.31247 -31818823.23845  22419210.9144                   22419208.3794
 -21107909.37547 -16419916.07446  21543106.1024                   21543103.9694
 -17011027.02347 -13223632.44945  22596939.1954                   22596938.2114
 -10890478.17247  -8457737.48445  22826925.4844                   22826922.0204
 -38308545.19548 -29815761.36746  20554528.3834                   20554525.8634
 -24606451.29347 -19143100.87945  22991158.7974                   22991157.3594
  -2719255.85947  -2104385.53544  23934144.4924                   23934144.3324
 -43166479.14847 -33612929.98844  23737215.1724                   23737213.0274
 -27911925.36348 -21717985.70346  20958254.7814                   20958250.2034
 11  8  2  0 47 30.0000000  0  9G17G10G09G12G04G27G05G28G02
 -40861758.08648 -31809696.06245  22421439.8524                   22421436.7814
 -21195708.34047 -16488330.81246  21526398.0394                   21526395.7584
 -16991601.20347 -13208495.47345  22600636.3054                   22600634.5634
 -11009235.48047  -8550275.60245  22804326.2734                   22804323.5274
 -38286487.50848 -29798573.56646  20558725.6724                   20558723.0084
 -24591098.56247 -19131137.72345  22994080.0784                   22994078.9264
  -2855608.43447  -2210634.12944  23908197.7034                   23908197.1174
 -43102816.05546 -33563322.47344  23749329.2734                   23749327.9384
 -27974749.75448 -21766939.76246  20946299.5864                   20946295.1174
 11  8  2  0 48  0.0000000  0  9G17G10G09G12G04G27G05G28G02
 -40849818.82447 -31800392.76245  22423711.6564                   22423709.6914
 -21282909.11748 -16556279.44146  21509804.5004                   21509802.0594
 -16971587.62147 -13192900.50445  22604444.5314                   22604442.9884
 -11127669.33247  -8642561.67645  22781789.1484                   22781785.9144
 -38263948.15648 -29781010.44946  20563014.6954                   20563012.6454
 -24575309.50447 -19118834.60545  22997084.6024                   22997083.0904
  -2991817.59047  -2316770.98844  23882277.5864                   23882276.5824
 -43038775.61746 -33513420.93743  23761516.3914                   23761514.8524
 -28037086.66848 -21815513.95746  20934437.5394                   20934432.7664
 11  8  2  0 48 30.0000000  0  9G17G10G09G12G04G27G05G28G02
 -40837650.77047 -31790911.18445  22426027.1644                   22426024.5704
 -21369507.22348 -16623758.45746  21493325.3984                   21493323.6564
 -16950987.09447 -13176848.18745  22608364.7734                   22608363.7424
 -11245774.94947  -8734592.00045  22759314.1094                   22759311.2234
 -38240927.59448 -29763072.35946  20567395.5944                   20567393.1094
 -24559084.53147 -19106191.81645  23000171.8594                   23000171.0704
  -3127878.87147  -2422792.60544  23856385.1094                   23856385.3634
 -42974357.59046 -33463225.20344  23773774.7114                   23773773.1764
 -28098934.06648 -21863706.71546  20922667.9144                   20922663.2154
 11  8  2  0 49  0.0000000  0  9G17G10G09G12G04G27G05G28G02
 -40825252.00047 -31781249.81645  22428386.9844                   22428384.1454
 -21455498.28947 -16690764.43746  21476961.9694                   21476959.4184
 -16929800.57847 -13160339.24245  22612396.4844                   22612395.1994
 -11363548.57447  -8826363.63345  22736903.3524                   22736899.9384
 -38217426.37948 -29744759.73446  20571867.6564                   20571865.0664
 -24542424.39147 -19093209.92245  23003342.0234                   23003341.3404
  -3263787.63747  -2528695.40244  23830522.9774                   23830522.3984
 -42909561.60246 -33412734.91844  23786104.5474                   23786103.6604
 -28160290.60248 -21911516.98046  20910992.1644                   20910987.8244
 11  8  2  0 49 30.0000000  0  9G17G10G09G12G04G27G05G28G02
 -40812621.21948 -31771407.67245  22430790.3204                   22430787.9614
 -21540878.88347 -16757294.75046  21460714.3524                   21460712.2234
 -16908030.39147 -13143375.48445  22616539.2814                   22616537.3054
 -11480987.01647  -8917874.06245  22714555.2894                   22714552.3014
 -38193446.10548 -29726073.80146  20576430.8914                   20576428.4574
 -24525330.47747 -19079890.02345  23006594.8054                   23006594.2034
  -3399540.22747  -2634476.49244  23804690.5164                   23804689.3284
 -42844389.10546 -33361951.25043  23798506.6414                   23798505.8284
 -28221155.62948 -21958944.25046  20899410.2344                   20899405.3444
 11  8  2  0 50  0.0000000  0  9G17G10G09G12G04G27G05G28G02
 -40799756.94947 -31761383.59045  22433238.3204                   22433235.8444
 -21625645.79348 -16823346.85546  21444583.8984                   21444581.3364
 -16885678.56247 -13125958.50045  22620792.1414                   22620790.6644
 -11598086.81647  -9009120.64545  22692271.7814                   22692268.5084
 -38168988.55948 -29707015.98846  20581084.9534                   20581082.4964
 -24507804.67247 -19066233.59445  23009930.4614                   23009929.5234
  -3535133.12147  -2740133.12944  23778887.3364                   23778887.0354
 -42778841.19546 -33310875.07443  23810979.5554                   23810978.9574
 -28281529.27048 -22005988.62546  20887921.3524                   20887916.7704
 11  8  2  0 50 30.0000000  0  9G17G10G09G12G04G27G05G28G02
 -40786658.52347 -31751177.02745  22435730.6254                   22435728.3014
 -21709795.53548 -16888918.04346  21428570.7814                   21428567.8914
 -16862747.38747 -13108090.09845  22625155.9844                   22625154.5634
 -11714844.87947  -9100100.93045  22670053.5944                   22670050.0784
 -38144055.42648 -29687587.57446  20585829.7274                   20585827.2424
 -24489848.96547 -19052242.17645  23013346.9304                   23013346.8914
  -3670563.14147  -2845662.86744  23753116.2194                   23753115.0984
 -42712919.07446 -33259507.28543  23823524.6884                   23823523.6254
 -28341411.34448 -22052649.96146  20876525.6804                   20876521.0474
 11  8  2  0 51  0.0000000  0  9G17G10G09G12G04G27G05G28G02
 -40773322.99648 -31740785.73045  22438268.3984                   22438265.6914
 -21793323.37148 -16954004.64146  21412675.7344                   21412673.1804
 -16839237.78547 -13089770.95745  22629630.0394                   22629628.2344
 -11831256.44947  -9190811.22745  22647900.8754                   22647897.6954
 -38118646.81248 -29667788.66446  20590664.9144                   20590662.2194
 -24471463.35947 -19037915.76645  23016845.7034                   23016845.1844
  -3805824.59847  -2951061.24244  23727376.1954                   23727376.1094
 -42646622.32846 -33207847.53543  23836140.1804                   23836139.9384
 -28400799.72348 -22098926.60946  20865225.0004                   20865219.9384
 11  8  2  0 51 30.0000000  0  9G17G10G09G12G04G27G05G28G02
 -40759749.60948 -31730209.08645  22440852.0554                   22440849.1484
 -21876226.65648 -17018604.56646  21396899.8054                   21396897.3054
 -16815152.53147 -13071003.25845  22634213.5474                   22634211.9924
 -11947318.60547  -9281249.24645  22625815.2034                   22625812.0394
 -38092764.87548 -29647620.93046  20595589.7894                   20595587.5044
 -24452650.25047 -19023256.24245  23020425.6564                   23020424.7424
  -3940914.96147  -3056326.30544  23701669.9844                   23701668.7034
 -42579952.50046 -33155897.10543  23848827.4614                   23848826.6954
 -28459694.71948 -22144818.80546  20854017.5474                   20854012.8674
 11  8  2  0 52  0.0000000  0  9G17G10G09G12G04G27G05G28G02
 -40745937.28547 -31719446.25845  22443480.0944                   22443477.2114
 -21958502.17248 -17082715.34446  21381243.3834                   21381241.1214
 -16790493.85547 -13051788.74645  22638905.7504                   22638904.4454
 -12063028.44947  -9371412.75445  22603796.3594                   22603793.0204
 -38066411.18748 -29627085.59846  20600605.1884                   20600602.5084
 -24433411.36347 -19008264.94944  23024087.1884                   23024086.4534
  -4075830.58647  -3161455.20744  23675995.9614                   23675995.5824
 -42512910.53146 -33103656.71943  23861585.9064                   23861584.6644
 -28518095.77048 -22190326.09446  20842904.1094                   20842899.4534
 11  8  2  0 52 30.0000000  0  9G17G10G09G12G04G27G05G28G02
 -40731885.78147 -31708497.05945  22446154.2034                   22446151.2274
 -22040147.69548 -17146335.19546  21365706.8594                   21365704.3954
 -16765264.85547 -13032129.83245  22643706.5314                   22643705.4924
 -12178383.69147  -9461299.93445  22581844.8204                   22581842.0314
 -38039588.55148 -29606184.85546  20605708.9064                   20605706.2814
 -24413749.39147 -18992943.97344  23027828.9144                   23027827.8444
  -4210568.92647  -3266445.98444  23650355.8054                   23650355.1454
 -42445498.65246 -33051128.07043  23874414.0084                   23874412.1844
 -28576003.82848 -22235449.24646  20831884.5864                   20831879.8324
 11  8  2  0 53  0.0000000  0  9G17G10G09G12G04G27G05G28G02
 -40717594.12947 -31697360.74645  22448873.6564                   22448871.3554
 -22121160.06248 -17209461.68746  21350290.6024                   21350288.4454
 -16739468.48447 -13012028.79745  22648615.6414                   22648613.8594
 -12293381.43747  -9550908.53945  22559961.2974                   22559959.2234
 -38012299.09048 -29584920.35246  20610902.2034                   20610899.6024
 -24393666.57447 -18977295.04744  23031650.5234                   23031649.5314
  -4345126.77347  -3371296.10945  23624750.0784                   23624750.1644
 -42377718.64146 -32998312.51243  23887311.8134                   23887309.7114
 -28633418.99648 -22280188.32046  20820959.0634                   20820953.9654
 11  8  2  0 53 30.0000000  0  9G17G10G09G12G04G27G05G28G02
 -40703062.61747 -31686037.52345  22451639.0474                   22451636.0434
 -22201537.71948 -17272093.59046  21334995.2034                   21334992.4774
 -16713108.24647 -12991488.38745  22653631.2194                   22653629.6414
 -12408019.71147  -9640237.05545  22538146.2664                   22538143.0904
 -37984545.52048 -29563294.19546  20616183.5084                   20616180.7274
 -24373165.96547 -18961320.59444  23035551.7274                   23035550.0124
  -4479501.57847  -3476003.62145  23599179.8914                   23599178.7704
 -42309572.55946 -32945211.79743  23900279.1334                   23900277.6094
 -28690342.39548 -22324544.19546  20810126.5554                   20810121.9654
 11  8  2  0 54  0.0000000  0  9G17G10G09G12G04G27G05G28G02
 -40688290.45347 -31674526.75845  22454449.6884                   22454447.4384
 -22281277.72348 -17334228.64546  21319821.0084                   21319818.9494
 -16686186.76247 -12970510.63345  22658754.7584                   22658753.5084
 -12522295.71147  -9729283.26245  22516400.6724                   22516397.1684
 -37956330.21948 -29541308.25046  20621552.2894                   20621550.1174
 -24352249.71947 -18945022.25444  23039532.1804                   23039530.6884
  -4613690.47347  -3580566.25845  23573643.8054                   23573643.2774
 -42241062.10246 -32891827.05943  23913316.5784                   23913315.0824
 -28746773.88348 -22368516.75846  20799388.1724                   20799383.4694
 11  8  2  0 54 30.0000000  0  9G17G10G09G12G04G27G05G28G02
 -40673279.54347 -31662829.98045  22457306.6884                   22457304.1844
 -22360380.43448 -17395867.07846  21304768.1414                   21304765.7424
 -16658709.60547 -12949099.90645  22663983.4844                   22663981.9804
 -12636209.29347  -9818047.05545  22494723.7664                   22494720.6454
 -37927657.94148 -29518966.23046  20627009.0314                   20627006.2274
 -24330922.87547 -18928403.98044  23043590.5634                   23043589.0474
  -4747693.25047  -3684983.85945  23548144.1334                   23548143.3444
 -42172191.84046 -32838161.96543  23926422.4844                   23926420.4614
 -28802716.69548 -22412108.53946  20788742.7814                   20788737.7734
 11  8  2  0 55  0.0000000  0  9G17G10G09G12G04G27G05G28G02
 -40658031.58247 -31650948.48045  22460207.3054                   22460205.9024
 -22438845.62948 -17457008.77346  21289837.2114                   21289834.3094
 -16630682.34847 -12927260.48845  22669316.7504                   22669315.6024
 -12749760.46147  -9906528.44945  22473115.4064                   22473112.0474
 -37898533.53148 -29496271.89546  20632551.1094                   20632548.7774
 -24309190.35947 -18911469.60544  23047725.4694                   23047725.0434
  -4881509.37147  -3789256.02745  23522679.3054                   23522679.1094
 -42102966.03546 -32784219.90643  23939595.5234                   23939594.7974
 -28858173.55548 -22455321.65646  20778189.7504                   20778184.8874
 11  8  2  0 55 30.0000000  0  9G17G10G09G12G04G27G05G28G02
 -40642548.16847 -31638883.52045  22463154.4384                   22463151.9344
 -22516672.71548 -17517653.23446  21275026.8364                   21275025.0044
 -16602109.82047 -12904996.22745  22674753.8444                   22674752.5824
 -12862948.57447  -9994726.95745  22451576.1564                   22451572.8634
 -37868961.04348 -29473228.40246  20638178.7584                   20638175.9454
 -24287056.65647 -18894222.60244  23051938.2734                   23051936.3954
  -5015137.60547  -3893381.80144  23497251.0314                   23497250.3554
 -42033388.33246 -32730003.59843  23952835.2584                   23952835.4454
 -28913147.04348 -22498158.13347  20767728.3674                   20767723.7034
 11  8  2  0 56  0.0000000  0  9G17G10G09G12G04G27G05G28G02
 -40626831.52047 -31626636.79345  22466144.9144                   22466142.5514
 -22593862.11348 -17577800.78946  21260338.3674                   21260335.5864
 -16572997.96947 -12882311.69945  22680293.8594                   22680292.1644
 -12975773.86347 -10082642.73445  22430106.4534                   22430103.5514
 -37838945.81248 -29449839.91846  20643890.3594                   20643887.7894
 -24264526.95747 -18876667.04344  23056224.6564                   23056223.7034
  -5148577.90647  -3997361.11744  23471857.5634                   23471857.3524
 -41963463.34046 -32675516.70743  23966141.4144                   23966141.3914
 -28967640.20748 -22540620.32046  20757358.9224                   20757353.6024
 11  8  2  0 56 30.0000000  0  9G17G10G09G12G04G27G05G28G02
 -40610886.40247 -31614212.03945  22469179.2344                   22469177.0554
 -22670416.90248 -17637453.84046  21245770.2664                   21245767.8204
 -16543354.98047 -12859213.29345  22685934.4614                   22685933.2344
 -13088239.31647 -10170278.12145  22408705.1724                   22408701.5784
 -37808495.57048 -29426112.48446  20649684.5314                   20649682.3754
 -24241609.18047 -18858809.06644  23060586.3984                   23060584.9734
  -5281833.03147  -4101196.15244  23446500.2424                   23446499.2504
 -41893198.38346 -32620764.89843  23979513.1484                   23979512.8874
 -29021659.13748 -22582712.97346  20747079.1954                   20747074.3094
 11  8  2  0 57  0.0000000  0  9G17G10G09G12G04G27G05G28G02
 -40594717.84847 -31601613.17245  22472256.1414                   22472253.7774
 -22746339.69948 -17696614.43446  21231322.3204                   21231320.2934
 -16513189.24647 -12835707.55945  22691675.4064                   22691674.1604
 -13200347.42247 -10257635.05945  22387371.4694                   22387368.6454
 -37777617.96548 -29402052.00846  20655560.3364                   20655558.6254
 -24218311.12547 -18840654.79744  23065019.1644                   23065017.8754
  -5414905.24247  -4204888.67644  23421177.1024                   23421176.4734
 -41822600.89547 -32565753.95744  23992947.6414                   23992946.9024
 -29075209.59848 -22624440.58647  20736888.8594                   20736884.1174
 11  8  2  0 57 30.0000000  0  9G17G10G09G12G04G27G05G28G02
 -40578332.49647 -31588845.38345  22475373.8204                   22475371.5864
 -22821635.76648 -17755286.66046  21216994.5864                   21216991.6134
 -16482511.68747 -12811802.99645  22697512.7504                   22697511.7234
 -13312103.20347 -10344717.45745  22366105.2584                   22366101.9574
 -37746322.81648 -29377666.19946  20661515.7194                   20661513.3484
 -24194643.02747 -18822212.16444  23069523.5004                   23069522.2034
  -5547799.15247  -4308442.25045  23395888.5864                   23395887.5164
 -41751680.19546 -32510491.15643  24006443.2974                   24006442.8554
 -29128299.43748 -22665809.27346  20726786.4534                   20726781.3404
 11  8  2  0 58  0.0000000  0  9G17G10G09G12G04G27G05G28G02
 -40561738.09847 -31575914.70345  22478532.3364                   22478529.5904
 -22896310.92648 -17813475.05946  21202783.8754                   21202781.8794
 -16451333.43047 -12787508.28145  22703445.8834                   22703444.0824
 -13423511.94947 -10431529.44145  22344904.4924                   22344901.7344
 -37714620.76648 -29352963.31246  20667548.1564                   20667545.6604
 -24170615.44547 -18803489.42644  23074095.4774                   23074095.0124
  -5680519.87947  -4411860.88344  23370632.1884                   23370631.6764
 -41680446.16047 -32454984.18043  24019999.0474                   24019997.6054
 -29180937.34048 -22706825.80147  20716769.4064                   20716764.5984
 11  8  2  0 58 30.0000000  0  9G17G10G09G12G04G27G05G28G02
 -40544944.69147 -31562828.94545  22481727.9064                   22481725.2194
 -22970374.03948 -17871186.55946  21188690.1334                   21188687.2734
 -16419668.09447 -12762834.02045  22709471.8054                   22709470.2894
 -13534582.14847 -10518077.61745  22323768.6484                   22323765.8754
 -37682524.77048 -29327953.45746  20673656.2344                   20673653.6764
 -24146241.84847 -18784497.07044  23078734.3364                   23078732.6954
  -5813075.39147  -4515150.78544  23345407.4774                   23345407.1454
 -41608911.35547 -32399242.85943  24033611.3134                   24033610.1724
 -29233134.76248 -22747499.10946  20706836.9144                   20706831.8204
 11  8  2  0 59  0.0000000  0  9G17G10G09G12G04G27G05G28G02
 -40527965.14847 -31549598.15245  22484958.8594                   22484956.4844
 -23043835.52348 -17928429.24646  21174710.7974                   21174708.5514
 -16387532.12947 -12737793.04345  22715586.7894                   22715584.8554
 -13645324.43447 -10604370.27345  22302695.1804                   22302692.1174
 -37650050.16448 -29302648.58246  20679835.8754                   20679833.1214
 -24121537.73847 -18765247.16044  23083434.9774                   23083433.4224
  -5945475.66447  -4618319.71544  23320212.4924                   23320211.5394
 -41537091.22747 -32343279.23043  24047278.9384                   24047278.3874
 -29284904.99648 -22787839.53546  20696985.3444                   20696979.9614
 11  8  2  0 59 30.0000000  0  9G17G10G09G12G04G27G05G28G02
 -40510813.82447 -31536233.48845  22488222.6094                   22488220.1644
 -23116708.27048 -17985213.18746  21160843.4534                   21160841.5944
 -16354944.11347 -12712399.80145  22721788.4454                   22721786.5864
 -13755751.39847 -10690417.24245  22281681.5634                   22281678.2774
 -37617214.79348 -29277062.57846  20686083.9454                   20686081.2704
 -24096521.07047 -18745753.71544  23088195.4924                   23088195.1294
  -6077733.05147  -4721377.30545  23295045.2974                   23295043.8014
 -41465002.83246 -32287106.55143  24060996.5864                   24060995.7854
 -29336264.34048 -22827859.78546  20687211.9384                   20687206.9574
 11  8  2  1  0  0.0000000  0  9G17G10G09G12G04G27G05G28G02
 -40493507.28547 -31522747.87945  22491516.2424                   22491513.4844
 -23189007.37148 -18041550.12546  21147085.5784                   21147082.8984
 -16321924.22347 -12686670.05144  22728072.0314                   22728070.3324
 -13865877.46947 -10776229.74645  22260725.1174                   22260721.9694
 -37584038.18048 -29251210.68046  20692397.7034                   20692395.1604
 -24071211.50047 -18726032.03544  23093012.5704                   23093011.3794
  -6209861.81247  -4824334.67245  23269901.6804                   23269900.4804
 -41392665.43446 -32230739.80543  24074761.8984                   24074760.9064
 -29387230.24648 -22867573.46547  20677513.5864                   20677508.5864
 11  8  2  1  0 30.0000000  0  9G17G10G09G12G04G27G05G28G02
 -40476065.15247 -31509156.62145  22494835.2894                   22494833.2664
 -23260750.45748 -18097453.80546  21133433.1334                   21133430.9224
 -16288495.17647 -12660621.47745  22734432.8674                   22734431.4494
 -13975720.02747 -10861821.33246  22239822.6724                   22239819.8954
 -37550542.57448 -29225110.23446  20698771.7034                   20698769.2504
 -24045631.62947 -18706099.71544  23097879.7034                   23097878.4774
  -6341879.01247  -4927205.10945  23244779.5864                   23244778.6254
 -41320100.57046 -32174195.84043  24088570.4144                   24088568.9694
 -29437823.15248 -22906996.50046  20667885.6094                   20667880.9104
 11  8  2  1  1  0.0000000  0  9G17G10G09G12G04G27G05G28G02
 -40458509.79347 -31495477.13745  22498176.0784                   22498173.1764
 -23331958.01648 -18152940.17646  21119882.8834                   21119880.4844
 -16254683.46547 -12634274.73045  22740867.4614                   22740865.6134
 -14085299.41447 -10947207.84445  22218970.7974                   22218967.8244
 -37516753.18748 -29198780.85546  20705201.6804                   20705199.0664
 -24019806.61347 -18685976.38344  23102793.6334                   23102793.0044
  -6473804.85547  -5030004.34845  23219674.8204                   23219673.7464
 -41247332.82846 -32117493.78143  24102418.3674                   24102417.4734
 -29488066.53948 -22946147.17646  20658324.8364                   20658319.8284
 11  8  2  1  1 30.0000000  0  9G17G10G09G12G04G27G05G28G02
 -40440865.37547 -31481728.25845  22501533.6804                   22501530.7344
 -23402652.57448 -18208026.83246  21106430.1024                   21106427.7234
 -16220516.64547 -12607651.27044  22747369.2734                   22747367.9734
 -14194637.73047 -11032406.50046  22198164.3754                   22198161.2774
 -37482697.15248 -29172243.69146  20711682.1024                   20711679.5744
 -23993763.84847 -18665683.38344  23107749.7814                   23107749.1724
  -6605660.85547  -5132749.16445  23194583.6954                   23194582.4024
 -41174389.40246 -32060654.82443  24116299.6484                   24116297.7774
 -29537986.00448 -22985045.44146  20648825.4844                   20648820.3134
 11  8  2  1  2  0.0000000  0  9G17G10G09G12G04G27G05G28G02
 -40423158.16447 -31467930.44945  22504903.1884                   22504900.9344
 -23472859.45748 -18262733.48046  21093070.2734                   21093067.5664
 -16186025.27347 -12580774.90645  22753932.4774                   22753931.4844
 -14303759.43747 -11117436.37545  22177399.1804                   22177396.5044
 -37448403.94948 -29145521.73846  20718207.7034                   20718205.5904
 -23967533.13747 -18645243.91844  23112741.3834                   23112740.7854
  -6737471.13347  -5235458.36745  23169500.4064                   23169499.7504
 -41101299.22746 -32003701.48442  24130207.2894                   24130206.5704
 -29587608.73848 -23023712.50047  20639382.8134                   20639377.8834
 11  8  2  1  2 30.0000000  0  9G17G10G09G12G04G27G05G28G02
 -40405415.23047 -31454104.80145  22508279.2504                   22508276.7504
 -23542603.72348 -18317079.62546  21079798.4924                   21079795.7034
 -16151239.54747 -12553669.19545  22760552.6484                   22760551.6524
 -14412689.45747 -11202316.88746  22156670.3674                   22156667.3714
 -37413903.18448 -29118638.03146  20724773.4614                   20724770.8404
 -23941144.43047 -18624681.35245  23117763.4924                   23117762.8554
  -6869260.04747  -5338150.93045  23144421.8444                   23144420.7234
 -41028091.69546 -31946656.77343  24144137.8444                   24144136.8484
 -29636963.08248 -23062170.43047  20629990.5474                   20629985.5394
 11  8  2  1  3  0.0000000  0  9G17G10G09G12G04G27G05G28G02
 -40387664.46947 -31440273.07445  22511657.5084                   22511654.4654
 -23611911.86748 -18371085.94946  21066609.7344                   21066606.8594
 -16116191.59047 -12526359.13345  22767221.4614                   22767220.7464
 -14521453.88347 -11287068.35945  22135973.2344                   22135969.7074
 -37379225.69548 -29091616.61746  20731372.3984                   20731369.5744
 -23914628.90247 -18604019.95745  23122809.4924                   23122807.9654
  -7001053.19147  -5440846.75445  23119342.6804                   23119340.5944
 -40954797.26246 -31889544.27742  24158085.4614                   24158085.0004
 -29686078.18448 -23100441.92247  20620644.3284                   20620639.3754
 11  8  2  1  3 30.0000000  0  9G17G10G09G12G04G27G05G28G02
 -40369935.29747 -31426458.17245  22515031.4844                   22515028.5234
 -23680811.68048 -18424774.08646  21053498.6024                   21053495.6994
 -16080914.39147 -12498870.46545  22773934.5634                   22773933.0594
 -14630079.82847 -11371711.93746  22115302.5634                   22115298.5744
 -37344404.07448 -29064482.89846  20737998.3914                   20737995.9774
 -23888019.55947 -18583285.46544  23127872.8594                   23127872.2194
  -7132877.64147  -5543566.99645  23094257.1484                   23094255.0124
 -40881447.86746 -31832388.96142  24172043.1884                   24172041.8444
 -29734984.67248 -23138550.86747  20611337.8594                   20611332.8794
 11  8  2  1  4  0.0000000  0  9G17G10G09G12G04G27G05G28G02
 -40352253.89547 -31412680.47345  22518396.2194                   22518393.5204
 -23749328.15248 -18478163.52046  21040460.1644                   21040457.3984
 -16045438.45347 -12471226.89544  22780685.9694                   22780684.9304
 -14738591.85247 -11456266.73045  22094653.1724                   22094649.5394
 -37309467.44148 -29037259.55146  20744646.8284                   20744644.2774
 -23861345.74247 -18562500.72344  23132948.6174                   23132948.1134
  -7264757.60247  -5646330.49245  23069160.8594                   23069159.5084
 -40808072.69546 -31775213.60942  24186006.3444                   24186005.2504
 -29783710.07848 -23176518.69547  20602065.4534                   20602060.6914
 11  8  2  1  4 30.0000000  0  9G17G10G09G12G04G27G05G28G02
 -40334646.66447 -31398960.56245  22521746.1724                   22521744.0234
 -23817485.68448 -18531273.25846  21027490.2424                   21027487.7664
 -16009793.37547 -12443451.53544  22787468.4694                   22787466.7344
 -14847013.86747 -11540751.39545  22074020.7814                   22074017.5204
 -37274445.05148 -29009969.38746  20751311.2664                   20751308.5474
 -23834636.74647 -18541688.57844  23138031.0634                   23138029.8054
  -7396716.58247  -5749155.56645  23044050.3984                   23044048.2704
 -40734700.29346 -31718040.38343  24199968.5944                   24199968.2584
 -29832281.72348 -23214366.72346  20592822.8524                   20592817.6604
 11  8  2  1  5  0.0000000  0  9G17G10G09G12G04G27G05G28G02
 -40317134.28547 -31385314.55945  22525078.8834                   22525076.2384
 -23885303.94548 -18584118.62546  21014584.9454                   21014581.7894
 -15974003.77747 -12415563.60544  22794279.2974                   22794277.8094
 -14955364.91048 -11625180.75046  22053402.4924                   22053399.2974
 -37239360.39548 -28982630.70346  20757987.7504                   20757985.2304
 -23807916.45347 -18520867.64144  23143115.8284                   23143114.8054
  -7528773.32047  -5852056.82045  23018920.3204                   23018919.1604
 -40661354.09446 -31660887.57043  24213926.4924                   24213925.7584
 -29880721.86748 -23252112.28547  20583604.6564                   20583599.5124
 11  8  2  1  5 30.0000000  0  8G17G10G09G12G04G27G05G02
 -40299731.95348 -31371754.34045  22528390.6884                   22528387.6484
 -23952796.50848 -18636710.20346  21001741.1954                   21001738.8404
 -15938088.77047 -12387577.93045  22801113.5164                   22801113.3594
 -15063658.26648 -11709565.13746  22032795.0164                   22032791.6454
 -37204231.48848 -28955257.54746  20764672.4534                   20764670.3794
 -23781203.41847 -18500052.34444  23148199.2584                   23148198.4494
  -7660940.25447  -5955043.96545  22993769.7974                   22993768.4344
 -29929046.64548 -23289767.95746  20574409.0004                   20574404.1884
 11  8  2  1  6  0.0000000  0  8G17G10G09G12G04G27G05G02
 -40282448.07847 -31358286.41445  22531679.5004                   22531677.5434
 -24019970.32448 -18689053.41846  20988958.6254                   20988956.0554
 -15902060.62147 -12359504.08645  22807969.7814                   22807968.7894
 -15171899.78547 -11793909.15246  22012197.1644                   22012193.9774
 -37169069.73448 -28927858.78146  20771363.6024                   20771361.2704
 -23754509.15247 -18479251.67644  23153279.2584                   23153278.4144
  -7793223.46947  -6058121.69145  22968596.7194                   22968595.4344
 -29977265.54348 -23327341.12546  20565233.0394                   20565228.3834
 11  8  2  1  6 30.0000000  0  8G17G10G09G12G04G27G05G02
 -40265284.96147 -31344912.57045  22534945.6094                   22534942.9494
 -24086825.85548 -18741148.61746  20976236.2814                   20976233.7624
 -15865925.09447 -12331346.60244  22814845.4844                   22814844.4304
 -15280089.71148 -11878212.94946  21991609.2734                   21991606.0234
 -37133880.12148 -28900438.31246  20778059.8674                   20778057.2934
 -23727839.00447 -18458469.79744  23158354.4384                   23158353.0594
  -7925622.60247  -6161289.75845  22943402.4064                   22943400.4694
 -30025382.49648 -23364834.83647  20556076.9534                   20556071.7704
 11  8  2  1  7  0.0000000  0  8G17G10G09G12G04G27G05G02
 -40248238.00847 -31331629.26245  22538189.1954                   22538187.7344
 -24153357.62948 -18792991.52746  20963575.7034                   20963573.3054
 -15829681.89547 -12303105.19945  22821743.0164                   22821741.5234
 -15388222.13347 -11962471.95746  21971032.4774                   21971029.1764
 -37098661.61748 -28872995.33646  20784761.8914                   20784759.6414
 -23701191.96147 -18437705.92644  23163424.8834                   23163424.3484
  -8058130.98847  -6264542.96945  22918187.0004                   22918184.6884
 -30073394.35948 -23402246.67246  20546940.5474                   20546935.9844
 11  8  2  1  7 30.0000000  0  8G17G10G09G12G04G27G05G02
 -40231298.08247 -31318429.35545  22541412.9224                   22541410.9144
 -24219555.09848 -18844573.95746  20950978.3444                   20950976.2704
 -15793325.48447 -12274775.59845  22828661.0394                   22828660.3284
 -15496285.52747 -12046677.16046  21950468.4384                   21950465.4184
 -37063407.61748 -28845524.69546  20791470.5314                   20791467.9024
 -23674561.91847 -18416955.28944  23168492.5394                   23168491.6764
  -8190737.14547  -6367872.36345  22892952.5784                   22892950.9264
 -30121293.05148 -23439570.31646  20537825.7974                   20537820.9264
 11  8  2  1  8  0.0000000  0  8G17G10G09G12G04G27G05G02
 -40214451.10247 -31305301.86745  22544619.0634                   22544616.2304
 -24285403.25848 -18895884.18446  20938448.4774                   20938445.6414
 -15756845.76647 -12246349.91045  22835603.6724                   22835602.4614
 -15604263.87147 -12130816.10246  21929920.8364                   21929917.9574
 -37028106.77048 -28818017.54746  20798187.9064                   20798185.7234
 -23647938.08247 -18396209.49244  23173559.2034                   23173557.0274
  -8323424.73847  -6471265.20745  22867703.0314                   22867701.7814
 -30169065.55548 -23476795.64546  20528734.7894                   20528729.7934
 11  8  2  1  8 30.0000000  0  8G17G10G09G12G04G27G05G02
 -40197676.55547 -31292230.80545  22547811.0864                   22547808.4384
 -24350879.75448 -18946904.80546  20925988.3284                   20925985.7504
 -15720225.96547 -12217815.05145  22842571.8984                   22842570.6134
 -15712134.46547 -12214871.08646  21909393.8054                   21909391.2854
 -36992741.43748 -28790460.15246  20804917.6954                   20804915.4184
 -23621303.03147 -18375454.96144  23178628.1804                   23178626.3634
  -8456170.49247  -6574703.35945  22842442.0554                   22842440.7704
 -30216692.66048 -23513907.66847  20519671.5864                   20519666.6334
 11  8  2  1  9  0.0000000  0  8G17G10G09G12G04G27G05G02
 -38605529.88347 -30051597.03945  22850786.6334                   22850784.5314
 -22840536.47348 -17770013.92646  21213397.2664                   21213394.7384
 -14108026.48847 -10961555.77745  23149363.3444                   23149362.1334
 -14244446.93048 -11071218.42646  22188685.4534                   22188682.0044
 -35381870.96548 -27535236.41846  21111456.1804                   21111453.8594
 -22019216.28547 -17127075.71944  23483494.4144                   23483494.0634
  -7013522.75847  -5450562.16845  23116968.8674                   23116967.6844
 -28688729.38748 -22323286.93046  20810433.6884                   20810428.2814
 11  8  2  1  9 30.0000000  0  8G17G10G09G12G04G27G05G02
 -38588818.84447 -30038575.45745  22853966.5704                   22853963.7894
 -22905185.39148 -17820389.68446  21201094.8834                   21201092.3794
 -14071057.57847 -10932748.89544  23156398.0784                   23156396.8554
 -14352015.04347 -11155037.71546  22168216.0004                   22168212.8554
 -35346304.68748 -27507522.44546  21118224.1024                   21118221.8834
 -21992488.12547 -17106248.64144  23488580.5234                   23488580.0984
  -7146296.90247  -5554022.46145  23091702.6484                   23091701.5394
 -28735988.96948 -22360112.56247  20801440.3594                   20801434.8634
 11  8  2  1 10  0.0000000  0  8G17G10G09G12G04G27G05G02
 -38572093.27347 -30025542.56645  22857149.3984                   22857146.4694
 -22969372.13348 -17870405.31246  21188880.1884                   21188878.4344
 -14033873.59047 -10903774.42244  23163474.2424                   23163472.6684
 -14459382.75447 -11238700.84846  22147784.1254                   22147781.3594
 -35310595.93448 -27479697.45346  21125019.5004                   21125016.8594
 -21965671.73046 -17085352.85544  23493683.7274                   23493683.3874
  -7279034.99647  -5657454.65245  23066443.4144                   23066442.2274
 -28783020.41848 -22396760.43446  20792490.4924                   20792485.0704
 11  8  2  1 10 30.0000000  0  8G17G10G09G12G04G27G05G02
 -38555322.06247 -30012474.12145  22860340.9064                   22860337.7074
 -23033064.29348 -17920035.55146  21176760.6254                   21176757.9064
 -13996446.85547 -10874610.78145  23170596.8134                   23170594.9414
 -14566516.61747 -11322181.75845  22127397.5164                   22127393.9734
 -35274716.02748 -27451739.08246  21131846.9924                   21131845.0124
 -21938739.08246 -17064366.44944  23498809.0554                   23498808.3594
  -7411703.44147  -5760832.57845  23041196.9774                   23041195.8914
 -28829793.81248 -22433207.22347  20783590.0634                   20783584.8404
 11  8  2  1 11  0.0000000  0  8G17G10G09G12G04G27G05G02
 -38538474.37547 -29999346.07445  22863547.0864                   22863544.8594
 -23096229.86348 -17969255.45746  21164740.0704                   21164737.6564
 -13958750.60947 -10845237.12545  23177770.4454                   23177768.8134
 -14673383.77747 -11405454.84846  22107061.5864                   22107058.6914
 -35238637.21948 -27423625.72746  21138712.6414                   21138710.3794
 -21911662.76646 -17043268.06244  23503961.5394                   23503960.5354
  -7544269.17647  -5864130.46545  23015971.2504                   23015969.4654
 -28876279.48848 -22469429.81247  20774743.6024                   20774738.5704
 11  8  2  1 11 30.0000000  0  8G17G10G09G12G04G27G05G02
 -38521522.52347 -29986136.85545  22866773.0004                   22866770.0704
 -23158840.16848 -18018042.68746  21152825.8204                   21152823.7464
 -13920761.10247 -10815634.96945  23184998.5084                   23184997.7194
 -14779954.79347 -11488497.17246  22086781.4774                   22086778.6804
 -35202334.99648 -27395338.28546  21145620.6094                   21145618.6604
 -21884418.38746 -17022038.71544  23509145.7974                   23509145.6564
  -7676702.21947  -5967324.94545  22990769.6024                   22990768.2854
 -28922451.32048 -22505407.86347  20765957.5864                   20765952.2854
 11  8  2  1 12  0.0000000  0  8G17G10G09G12G04G27G05G02
 -38504439.52347 -29972825.44145  22870023.5084                   22870021.3404
 -23220867.28948 -18066375.49246  21141022.4694                   21141020.0514
 -13882455.52747 -10785786.51245  23192288.1724                   23192286.8134
 -14886200.75048 -11571286.20746  22066563.4064                   22066560.7274
 -35165785.28548 -27366858.00846  21152575.8134                   21152573.2814
 -21856982.49646 -17000660.18044  23514366.9774                   23514366.2504
  -7808973.30147  -6070393.23845  22965599.1484                   22965597.9184
 -28968283.88748 -22541121.53147  20757236.0474                   20757231.2234
 11  8  2  1 12 30.0000000  0  8G17G10G09G12G04G27G05G02
 -38487203.10247 -29959394.48445  22873303.8134                   22873301.2624
 -23282287.57848 -18114235.43746  21129334.6174                   21129331.7894
 -13843815.26647 -10755677.29344  23199641.0944                   23199640.9304
 -14992097.11747 -11653802.84046  22046412.4064                   22046409.2074
 -35128968.28548 -27338169.44546  21159581.9454                   21159579.6094
 -21829335.82446 -16979117.37544  23519627.5784                   23519627.4734
  -7941057.35247  -6173315.80145  22940464.0864                   22940462.7034
 -29013756.21548 -22576554.50447  20748582.9774                   20748577.6764
 11  8  2  1 13  0.0000000  0  8G17G10G09G12G04G27G05G02
 -38469791.14847 -29945826.73845  22876617.3054                   22876615.0744
 -23343078.27048 -18161604.78546  21117766.5394                   21117763.9924
 -13804822.52347 -10725293.40244  23207061.1094                   23207060.5514
 -15097619.52348 -11736028.06646  22026331.9304                   22026328.8554
 -35091865.21548 -27309257.98446  21166642.6024                   21166640.1804
 -21801459.79747 -16957395.88744  23524932.2274                   23524932.5664
  -8072930.24647  -6276073.83245  22915369.8674                   22915367.5864
 -29058847.61348 -22611690.65647  20740002.4454                   20739997.4414
 11  8  2  1 13 30.0000000  0  8G17G10G09G12G04G27G05G02
 -38452187.19947 -29932109.39545  22879966.9924                   22879963.6054
 -23403221.44948 -18208469.57046  21106321.6484                   21106319.2384
 -13765464.37947 -10694624.77344  23214550.9064                   23214549.6764
 -15202750.50047 -11817948.29746  22006326.1254                   22006322.7624
 -35054462.08248 -27280112.69946  21173759.9224                   21173757.4964
 -21773341.02746 -16935485.22344  23530283.2584                   23530282.3794
  -8204572.98047  -6378652.50845  22890319.0634                   22890317.4964
 -29103542.71948 -22646518.00047  20731496.8914                   20731491.8594
 11  8  2  1 14  0.0000000  0  8G17G10G09G12G04G27G05G02
 -38434375.31247 -29918230.00445  22883356.3364                   22883353.3634
 -23462700.19148 -18254816.61746  21095003.1804                   21095001.0514
 -13725728.68047 -10663661.95344  23222112.1484                   23222111.5274
 -15307471.51248 -11899549.06246  21986398.5474                   21986395.2664
 -35016746.09448 -27250723.62946  21180937.3444                   21180935.2974
 -21744967.05546 -16913375.71144  23535683.3284                   23535681.9384
  -8335967.25847  -6481037.60245  22865315.7584                   22865313.6054
 -29147827.32848 -22681025.47747  20723070.0944                   20723065.2424
 11  8  2  1 14 30.0000000  0  8G17G10G09G12G04G27G05G02
 -38416341.60547 -29904177.78945  22886787.9844                   22886785.2734
 -23521499.88748 -18300634.53946  21083813.6254                   21083811.5664
 -13685605.73047 -10632397.37544  23229747.5864                   23229746.8324
 -15411766.83647 -11980818.12946  21966551.6024                   21966548.8754
 -34978706.10948 -27221082.10246  21188175.7584                   21188173.8714
 -21716327.49247 -16891059.24244  23541133.5554                   23541132.3594
  -8467096.81647  -6583216.39545  22840362.2974                   22840360.7974
 -29191688.95348 -22715203.36347  20714723.4924                   20714718.1524
 11  8  2  1 15  0.0000000  0  8G17G10G09G12G04G27G05G02
 -38398075.75447 -29889944.67645  22890264.4224                   22890261.3324
 -23579608.93448 -18345914.29746  21072756.0554                   21072752.8204
 -13645089.06647 -10600825.98444  23237457.8054                   23237456.7704
 -15515623.84847 -12061745.65646  21946788.2734                   21946785.1094
 -34940334.46148 -27191182.12546  21195477.8674                   21195475.9694
 -21687414.78547 -16868529.92644  23546635.7424                   23546634.6884
  -8597948.69147  -6685178.82045  22815461.8134                   22815459.6884
 -29235118.27048 -22749044.37947  20706459.1644                   20706454.1804
 11  8  2  1 15 30.0000000  0  8G17G10G09G12G04G27G05G02
 -38379568.54747 -29875523.48045  22893785.9224                   22893783.6294
 -23637017.22348 -18390648.00846  21061831.5944                   21061829.1604
 -13604173.41047 -10568943.71544  23245243.6644                   23245243.5204
 -15619031.30548 -12142322.87546  21927110.4304                   21927107.6804
 -34901624.72348 -27161018.70346  21202844.3134                   21202841.8914
 -21658223.03146 -16845783.18444  23552189.4924                   23552188.7584
  -8728510.89147  -6786915.52345  22790616.5004                   22790614.5474
 -29278107.46548 -22782542.44947  20698278.4844                   20698273.6724
 11  8  2  1 16  0.0000000  0  8G17G10G09G12G04G27G05G02
 -38360810.87147 -29860907.13345  22897355.0234                   22897352.9144
 -23693715.30548 -18434828.31246  21051042.5314                   21051039.6994
 -13562853.79747 -10536746.66844  23253106.4454                   23253105.9534
 -15721978.58248 -12222541.52346  21907520.3284                   21907517.4344
 -34862571.11748 -27130587.33646  21210275.5164                   21210273.3634
 -21628746.95346 -16822814.87144  23557798.9304                   23557797.8524
  -8858772.71947  -6888418.16445  22765828.4694                   22765826.5434
 -29320649.38348 -22815691.97747  20690183.1644                   20690177.6254
 11  8  2  1 16 30.0000000  0  8G17G10G09G12G04G27G05G02
 -38341796.22747 -29846090.54745  22900973.4614                   22900971.1604
 -23749695.32048 -18478449.07846  21040389.4064                   21040386.9924
 -13521127.55547 -10504232.78144  23261046.5234                   23261045.2194
 -15824457.14547 -12302394.93046  21888019.4304                   21888016.0554
 -34823169.70748 -27099884.94946  21217773.6804                   21217771.1484
 -21598983.09846 -16799622.34444  23563462.8594                   23563462.4774
  -8988725.00447  -6989679.59845  22741099.1174                   22741097.3204
 -29362738.84048 -22848488.94947  20682173.6884                   20682168.6844
 11  8  2  1 17  0.0000000  0  8G17G10G09G12G04G27G05G02
 -38322518.92247 -29831069.27745  22904641.7814                   22904639.0084
 -23804950.90248 -18521505.35946  21029874.9694                   21029872.1134
 -13478993.03547 -10471400.74644  23269064.5944                   23269063.8014
 -15926459.18747 -12381877.02746  21868608.6414                   21868605.5554
 -34783417.65648 -27068909.34046  21225338.1804                   21225336.1724
 -21568929.25447 -16776203.84044  23569182.4924                   23569182.7194
  -9118359.61347  -7090693.50045  22716430.3524                   22716428.9924
 -29404371.59048 -22880930.04347  20674251.3444                   20674246.5704
 11  8  2  1 17 30.0000000  0  8G17G10G09G12G04G27G05G02
 -38302975.46947 -29815840.64145  22908361.0474                   22908358.5514
 -23859477.32048 -18563993.45346  21019498.8364                   21019496.1134
 -13436450.45747 -10438250.72344  23277160.5004                   23277159.3834
 -16027978.95747 -12460983.31646  21849290.4534                   21849287.1454
 -34743314.10248 -27037659.83246  21232969.9304                   21232967.4694
 -21538584.75047 -16752558.87144  23574957.3284                   23574956.7544
  -9247670.28947  -7191454.99645  22691823.6724                   22691822.2464
 -29445545.27748 -22913013.43447  20666416.1484                   20666411.0124
 11  8  2  1 18  0.0000000  0  8G17G10G09G12G04G27G05G02
 -38283161.79347 -29800401.43445  22912131.0784                   22912128.2424
 -23913270.26648 -18605910.01646  21009262.5004                   21009259.7734
 -13393500.23847 -10404783.08244  23285334.1414                   23285332.6454
 -16129011.07048 -12539709.62946  21830064.7344                   21830060.8834
 -34702858.12548 -27006135.70746  21240668.4844                   21240666.1454
 -21507949.44146 -16728687.27744  23580785.8754                   23580785.8954
  -9376650.95747  -7291959.33245  22667279.4454                   22667277.3364
 -29486257.69548 -22944737.38747  20658668.9224                   20658664.0434
 11  8  2  1 18 30.0000000  0  8G17G10G09G12G04G27G05G02
 -38263075.54747 -29784749.82045  22915953.8834                   22915950.9304
 -23966326.18448 -18647252.26646  20999166.0944                   20999163.6804
 -13350143.96547 -10370999.00844  23293584.7194                   23293583.4304
 -16229550.83648 -12618052.28946  21810932.1644                   21810928.8674
 -34662050.10548 -26974337.26646  21248433.6484                   21248431.5824
 -21477024.13346 -16704589.73043  23586670.9304                   23586670.8524
  -9505296.89847  -7392202.84045  22642799.0394                   22642796.9964
 -29526507.87148 -22976101.14847  20651009.4304                   20651004.4654
 11  8  2  1 19  0.0000000  0  8G17G10G09G12G04G27G05G02
 -38242713.32047 -29768883.15245  22919827.9534                   22919826.2114
 -24018641.06648 -18688017.09446  20989210.8524                   20989208.1764
 -13306381.57847 -10336898.49244  23301912.0944                   23301910.1054
 -16329592.97347 -12696007.18446  21791895.1954                   21791892.1484
 -34620889.13748 -26942263.79346  21256266.4144                   21256264.2424
 -21445808.53146 -16680265.94943  23592611.0164                   23592611.3444
  -9633601.90647  -7492180.68745  22618383.0554                   22618380.9534
 -29566293.59848 -23007102.99647  20643438.4144                   20643433.5354
 11  8  2  1 19 30.0000000  0  8G17G10G09G12G04G27G05G02
 -38222074.16047 -29752800.69145  22923755.7894                   22923753.5634
 -24070213.18448 -18728203.14146  20979396.8524                   20979394.3914
 -13262216.21947 -10302483.96544  23310316.1954                   23310314.8674
 -16429134.28548 -12773571.81646  21772953.2734                   21772950.4104
 -34579377.17648 -26909916.81646  21264165.9224                   21264163.6214
 -21414305.09847 -16655717.87944  23598606.2894                   23598605.9844
  -9761562.77047  -7591890.38745  22594032.7034                   22594030.8754
 -29605615.64548 -23037743.53947  20635955.6174                   20635950.4654
 11  8  2  1 20  0.0000000  0  8G17G10G09G12G04G27G05G02
 -38201155.97747 -29736500.83245  22927736.8914                   22927733.9614
 -24121039.95348 -18767808.39546  20969725.1564                   20969722.7034
 -13217650.00847 -10267757.10244  23318797.3674                   23318795.8364
 -16528171.31647 -12850743.52046  21754106.7114                   21754103.5554
 -34537515.09448 -26877297.01246  21272131.8754                   21272129.6994
 -21382515.21546 -16630946.60244  23604655.7974                   23604656.2504
  -9889175.19147  -7691328.57045  22569748.8754                   22569746.9024
 -29644473.23848 -23068022.16847  20628561.3834                   20628556.4884
 11  8  2  1 20 30.0000000  0  9G17G10G09G12G04G27G05G25G02
 -38179958.71147 -29719983.51245  22931770.3134                   22931768.2704
 -24171120.55948 -18806832.23846  20960195.3594                   20960192.6094
 -13172686.95347 -10232721.00444  23327354.0164                   23327352.1804
 -16626701.68448 -12927520.41046  21735356.9384                   21735353.8554
 -34495305.63348 -26844406.54746  21280164.1094                   21280161.6684
 -21350441.90646 -16605954.48444  23610759.7274                   23610758.5234
 -10016436.56647  -7790493.20745  22545532.0634                   22545529.7384
   4531575.03756   3544569.56553  24653947.3594                   24653949.1134
 -29682867.76248 -23097939.96147  20621255.1564                   20621250.0634
 11  8  2  1 21  0.0000000  0  9G17G10G09G12G04G27G05G25G02
 -38158484.64847 -29703250.50045  22935857.0314                   22935854.6024
 -24220456.89848 -18845276.12546  20950806.7274                   20950803.7154
 -13127333.15647 -10197380.42645  23335983.9924                   23335982.9924
 -16724725.78947 -13003902.81246  21716703.7034                   21716700.4494
 -34452753.85548 -26811249.33646  21288261.7504                   21288259.2234
 -21318090.95746 -16580746.02744  23616916.2194                   23616914.9344
 -10143346.60547  -7889384.08645  22521381.8204                   22521379.5864
   4399404.30146   3441579.43843  24628796.5004                   24628797.4574
 -29720803.40248 -23127500.19147  20614036.2664                   20614031.2734
 11  8  2  1 21 30.0000000  0  9G17G10G09G12G04G27G05G25G02
 -38136737.78147 -29686304.91445  22939995.0944                   22939992.8754
 -24269051.89548 -18883142.33246  20941559.0554                   20941556.3754
 -13081596.48447 -10161741.52345  23344687.6094                   23344686.4224
 -16822245.59048 -13079892.25046  21698146.5164                   21698142.9144
 -34409866.29748 -26777830.45746  21296422.7274                   21296420.6294
 -21285469.44547 -16555326.74644  23623123.6954                   23623122.7194
 -10269907.00847  -7988002.52045  22497297.8834                   22497296.1414
   4267474.12146   3338776.75443  24603690.8204                   24603691.5234
 -29758285.17248 -23156706.74647  20606903.3524                   20606898.5204
 11  8  2  1 22  0.0000000  0  9G17G10G09G12G04G27G05G25G02
 -38114718.58647 -29669147.10545  22944185.3054                   22944182.5234
 -24316906.14548 -18920431.34446  20932452.7114                   20932450.4104
 -13035482.12947 -10125808.31644  23353463.0704                   23353461.6454
 -16919260.19147 -13155488.03146  21679685.3204                   21679681.5664
 -34366646.86748 -26744153.00446  21304647.1954                   21304645.0864
 -21252581.77747 -16529700.04744  23629382.0864                   23629380.3404
 -10396116.46147  -8086347.48445  22473280.9454                   22473278.7624
   4135785.10546   3236162.00044  24578631.5474                   24578632.3484
 -29795315.58248 -23185561.60547  20599857.1414                   20599852.1374
 11  8  2  1 22 30.0000000  0  9G17G10G09G12G04G27G05G25G02
 -38092427.36347 -29651777.34045  22948426.7194                   22948425.3244
 -24364019.07048 -18957142.70746  20923487.4064                   20923485.0554
 -12988993.78547 -10089583.69544  23362309.0004                   23362308.7734
 -17015767.48848 -13230688.51246  21661319.9844                   21661317.2304
 -34323097.83248 -26710218.70346  21312934.0704                   21312931.7194
 -21219431.03547 -16503868.37144  23635690.2974                   23635689.1134
 -10521972.11347  -8184416.77345  22449331.5084                   22449329.6294
   4004339.52747   3133736.93844  24553618.1564                   24553618.9384
 -29831896.29748 -23214066.03947  20592895.8914                   20592890.8954
 11  8  2  1 23  0.0000000  0  9G17G10G09G12G04G27G05G25G02
 -38069864.00447 -29634195.50845  22952720.9144                   22952718.2664
 -24410389.72748 -18993275.66046  20914663.3134                   20914660.8794
 -12942134.93747 -10053070.35944  23371226.3444                   23371225.3054
 -17111765.33248 -13305492.02046  21643052.6954                   21643049.3324
 -34279221.97748 -26676029.73446  21321283.1334                   21321281.2274
 -21186020.38746 -16477834.15244  23642048.0634                   23642047.2384
 -10647471.29747  -8282208.28945  22425449.5004                   22425447.6804
   3873139.44147   3031503.19144  24528651.8914                   24528652.3094
 -29868028.46148 -23242220.96147  20586019.9534                   20586015.1604
 11  8  2  1 23 30.0000000  0  9G17G10G09G12G04G27G05G25G02
 -38047026.59847 -29616400.13345  22957066.4454                   22957063.8914
 -24456015.56648 -19028828.26646  20905981.0864                   20905978.3834
 -12894908.06647 -10016270.27344  23380213.3674                   23380212.4494
 -17207250.06248 -13379895.69546  21624882.4454                   21624879.2234
 -34235020.17248 -26641586.79346  21329694.4774                   21329692.7154
 -21152351.33247 -16451598.58244  23648455.5474                   23648454.7424
 -10772609.77747  -8379718.74645  22401636.2974                   22401634.2934
   3742188.71947   2929463.72744  24503732.8674                   24503733.0744
 -29903711.37948 -23270025.83247  20579229.4454                   20579224.8794
 11  8  2  1 24  0.0000000  0  9G17G10G09G12G04G27G05G25G02
 -38023914.41847 -29598390.66245  22961464.3134                   22961462.4344
 -24500895.60548 -19063799.70746  20897440.9144                   20897438.3204
 -12847316.22747  -9979185.80544  23389269.4224                   23389268.9224
 -17302218.92648 -13453897.39546  21606810.6724                   21606807.1564
 -34190494.66848 -26606891.60946  21338167.9614                   21338165.4654
 -21118426.63347 -16425163.80544  23654910.7664                   23654911.3524
 -10897384.78147  -8476945.97345  22377892.5394                   22377890.5314
   3611489.79347   2827620.48043  24478861.9064                   24478861.6334
 -29938946.45348 -23297481.72347  20572524.8444                   20572520.0164
 11  8  2  1 24 30.0000000  0  9G17G10G09G12G04G27G05G25G02
 -38000527.33247 -29580166.98445  22965915.2734                   22965913.5084
 -24545029.48048 -19098189.72746  20889042.4224                   20889039.6454
 -12799363.57447  -9941820.16044  23398394.7344                   23398394.2304
 -17396669.83648 -13527495.50046  21588836.8984                   21588833.8594
 -34145647.86748 -26571946.06646  21346701.9454                   21346699.3404
 -21084249.45746 -16398532.34844  23661414.1484                   23661415.4654
 -11021793.62147  -8573887.87545  22354218.4844                   22354216.4264
   3481044.60547   2725974.95343  24454037.8134                   24454038.4654
 -29973735.16848 -23324589.80147  20565904.9064                   20565899.6454
 11  8  2  1 25  0.0000000  0  9G17G10G09G12G04G27G05G25G02
 -37976863.93047 -29561728.00445  22970418.2734                   22970415.5044
 -24588415.43448 -19131996.95346  20880786.5234                   20880784.2384
 -12751053.00047  -9904175.62945  23407588.4534                   23407587.6054
 -17490600.25047 -13600688.01646  21570962.8284                   21570959.5784
 -34100481.50848 -26536751.50846  21355296.8834                   21355294.5944
 -21049822.17246 -16371706.00444  23667966.1484                   23667965.8634
 -11145832.92247  -8670541.82045  22330614.5394                   22330612.5824
   3350856.33247   2624529.58243  24429264.2424                   24429264.1524
 -30008077.57848 -23351350.12147  20559369.7194                   20559364.6174
 11  8  2  1 25 30.0000000  0  9G17G10G09G12G04G27G05G25G02
 -37952924.73447 -29543074.11745  22974973.7114                   22974971.3834
 -24631053.21148 -19165221.17646  20872672.7504                   20872669.8874
 -12702388.29347  -9866255.12944  23416848.9064                   23416848.4414
 -17584008.25848 -13673473.46546  21553187.9304                   21553184.7074
 -34054998.16448 -26501309.95746  21363951.7734                   21363949.9144
 -21015147.71946 -16344687.03544  23674564.4064                   23674563.9964
 -11269499.99247  -8766905.70746  22307081.5944                   22307079.8364
   3220926.94946   2523285.98443  24404539.3984                   24404539.7854
 -30041975.45348 -23377764.03947  20552919.4774                   20552914.1684
 11  8  2  1 26  0.0000000  0  9G17G10G09G12G04G27G05G25G02
 -37928711.03947 -29524206.32045  22979581.4304                   22979578.9414
 -24672943.57448 -19197863.00046  20864701.2584                   20864698.5164
 -12653374.62947  -9828062.73844  23426175.6644                   23426175.9774
 -17676892.99648 -13745851.18446  21535512.0314                   21535508.8364
 -34009201.80948 -26465624.50046  21372666.8284                   21372664.9494
 -20980230.81246 -16317479.12944  23681209.1724                   23681209.2624
 -11392793.85247  -8862978.77346  22283619.1564                   22283617.4614
   3091257.21947   2422244.71143  24379864.3984                   24379863.3524
 -30075431.48848 -23403833.66847  20546552.8444                   20546547.5124
 11  8  2  1 26 30.0000000  0  9G17G10G09G12G04G27G05G25G02
 -37904222.36347 -29505124.23845  22984241.4774                   22984238.8244
 -24714086.07448 -19229922.08646  20856871.9844                   20856869.0164
 -12604015.85246  -9789601.43044  23435568.3524                   23435568.5354
 -17769252.31647 -13817819.47346  21517937.0704                   21517934.0704
 -33963095.09848 -26429697.21146  21381440.7504                   21381438.5704
 -20945074.70746 -16290084.84443  23687899.0164                   23687898.5634
 -11515712.11747  -8958759.16846  22260228.7814                   22260226.5594
   2961849.23846   2321407.39543  24355238.6724                   24355237.5234
 -30108447.03948 -23429560.06247  20540270.0864                   20540264.9104
 11  8  2  1 27  0.0000000  0  9G17G10G09G12G04G27G05G25G02
 -37879458.95347 -29485828.08245  22988953.9844                   22988951.8754
 -24754480.65648 -19261398.36346  20849185.1884                   20849182.1954
 -12554316.36346  -9750874.65244  23445025.8364                   23445025.4964
 -17861084.63747 -13889377.11346  21500461.7814                   21500458.6024
 -33916680.85548 -26393530.29346  21390272.6484                   21390270.3364
 -20909683.02046 -16262506.98443  23694633.3674                   23694633.7734
 -11638252.21147  -9054244.88746  22236909.8834                   22236908.1844
   2832704.71546   2220775.37543  24330663.0084                   24330661.9414
 -30141024.12548 -23454944.80547  20534070.8914                   20534065.7154
 11  8  2  1 27 30.0000000  0  9G17G10G09G12G04G27G05G25G02
 -37854421.52347 -29466318.40645  22993718.3444                   22993715.7034
 -24794127.43748 -19292291.94546  20841640.5004                   20841637.7274
 -12504280.48446  -9711885.72344  23454547.6724                   23454546.0634
 -17952388.50447 -13960522.97746  21483087.6024                   21483084.1524
 -33869962.27748 -26357126.22346  21399163.1024                   21399160.6644
 -20874059.39546 -16234748.42244  23701412.5634                   23701413.4224
 -11760412.51247  -9149434.66046  22213663.6644                   22213661.5824
   2703825.20346   2120349.83643  24306137.8284                   24306137.3134
 -30173164.66448 -23479989.37947  20527954.6334                   20527949.8834
 11  8  2  1 28  0.0000000  0  9G17G10G09G12G04G27G05G25G02
 -37829109.64847 -29446594.91045  22998535.1024                   22998532.6884
 -24833026.35948 -19322602.77746  20834238.3984                   20834235.7894
 -12453911.90246  -9672637.53944  23464132.4304                   23464131.0864
 -18043162.05548 -14031255.59446  21465813.7344                   21465810.2814
 -33822941.80948 -26320486.91046  21408111.1644                   21408108.4804
 -20838206.99946 -16206811.57544  23708234.5864                   23708235.6334
 -11882190.13347  -9244326.23446  22190490.4534                   22190487.8054
   2575212.91046   2020132.53543  24281664.4144                   24281663.6524
 -30204869.94948 -23504694.79347  20521921.3674                   20521916.3984
 11  8  2  1 28 30.0000000  0  9G17G10G09G12G04G27G05G25G02
 -37803524.13747 -29426658.17645  23003403.4924                   23003401.5554
 -24871177.59448 -19352330.99246  20826978.5634                   20826975.9454
 -12403215.43747  -9633133.82844  23473779.8364                   23473778.9024
 -18133403.97348 -14101573.96946  21448641.1644                   21448637.8094
 -33775622.82448 -26283614.98046  21417115.3204                   21417113.1254
 -20802129.80546 -16178699.58644  23715100.7194                   23715101.4344
 -12003583.66447  -9338918.53945  22167389.5634                   22167387.4964
   2446868.91046   1920124.27743  24257240.7424                   24257240.5824
 -30236142.10548 -23529062.71547  20515970.5784                   20515965.5084
 11  8  2  1 29  0.0000000  0  9G17G10G09G12G04G27G05G25G02
 -37777665.67647 -29406508.75845  23008324.2194                   23008323.1724
 -24908581.81648 -19381477.12946  20819860.9844                   20819858.3834
 -12352195.47347  -9593378.07844  23483488.1564                   23483486.6334
 -18223113.34447 -14171477.34846  21431570.1564                   21431566.6054
 -33728008.67648 -26246513.07446  21426175.9534                   21426174.2584
 -20765831.84447 -16150415.55544  23722008.2974                   23722007.7424
 -12124591.40247  -9433210.21546  22144362.5314                   22144360.4494
   2318794.68046   1820326.21544  24232869.1644                   24232869.0664
 -30266983.75048 -23553095.15247  20510101.4844                   20510096.7384
 11  8  2  1 29 30.0000000  0  9G17G10G09G12G04G27G05G25G02
 -37751533.99247 -29386146.42645  23013297.0634                   23013294.7114
 -24945238.23848 -19410040.56246  20812885.0474                   20812882.3094
 -12300856.14147  -9553373.43744  23493257.5164                   23493256.4344
 -18312287.88347 -14240963.99246  21414600.6024                   21414597.0744
 -33680101.87948 -26209183.11346  21435292.7664                   21435290.1604
 -20729316.31647 -16121961.98444  23728956.6564                   23728956.4144
 -12245210.64847  -9527199.16046  22121409.2344                   22121407.7034
   2190992.45747   1720740.10944  24208549.1024                   24208548.8984
 -30297395.98448 -23576792.99647  20504314.0944                   20504309.1844
 11  8  2  1 30  0.0000000  0  9G17G10G09G12G04G27G05G25G02
 -37725129.56647 -29365571.57845  23018322.1254                   23018319.3484
 -24981147.21148 -19438021.56646  20806051.8524                   20806048.7194
 -12249201.67247  -9513123.25844  23503087.0164                   23503086.9264
 -18400926.18447 -14310032.77746  21397733.6414                   21397729.5514
 -33631905.18748 -26171627.26246  21444463.9454                   21444461.2854
 -20692586.88746 -16093341.73043  23735946.3754                   23735945.4024
 -12365439.41847  -9620883.84046  22098530.6094                   22098528.3834
   2063463.88347   1621367.23844  24184281.3594                   24184281.2504
 -30327380.99248 -23600157.94547  20498608.2734                   20498603.4414
 11  8  2  1 30 30.0000000  0  9G17G10G09G12G04G27G05G25G02
 -37698452.90647 -29344784.57845  23023398.0634                   23023395.8484
 -25016309.03548 -19465420.38346  20799360.9304                   20799357.6564
 -12197236.33247  -9472630.82844  23512976.5164                   23512975.6254
 -18489026.57847 -14378682.41446  21380968.1174                   21380964.6954
 -33583421.79748 -26133848.01646  21453690.1724                   21453687.9224
 -20655647.17247 -16064557.60543  23742975.8594                   23742974.2234
 -12485275.58247  -9714262.58646  22075726.6414                   22075724.4494
   1936210.65247   1522208.91044  24160066.2974                   24160066.3284
 -30356940.49648 -23623191.32047  20492983.1644                   20492978.0944
 11  8  2  1 31  0.0000000  0  9G17G10G09G12G04G27G05G25G02
 -37671504.86347 -29323786.13745  23028526.3284                   23028524.0704
 -25050724.70348 -19492237.75846  20792811.4384                   20792808.7734
 -12144965.39847  -9431900.32444  23522923.2344                   23522922.6884
 -18576588.44947 -14446912.42246  21364305.6804                   21364302.3054
 -33534655.46148 -26095848.28946  21462969.8054                   21462967.4964
 -20618501.59847 -16035613.05543  23750044.3594                   23750043.2584
 -12604717.91847  -9807334.47346  22052997.0474                   22052995.4734
   1809233.58647   1423265.78144  24135903.0704                   24135903.0004
 -30386077.57848 -23645895.53947  20487438.7974                   20487433.6134
 11  8  2  1 31 30.0000000  0  9G17G10G09G12G04G27G05G25G02
 -37644285.79747 -29302576.52745  23033705.9614                   23033703.6174
 -25084394.55548 -19518473.99246  20786404.2344                   20786401.7034
 -12092392.96147  -9390934.83644  23532927.8444                   23532925.9574
 -18663610.59047 -14514721.85546  21347745.7894                   21347742.6804
 -33485608.84048 -26057630.14845  21472303.2584                   21472301.1254
 -20581153.85947 -16006511.01243  23757151.2894                   23757151.8554
 -12723764.39847  -9900097.90246  22030343.6804                   22030341.4454
   1682534.56347   1324539.28944  24111793.5314                   24111793.1414
 -30414793.56648 -23668271.63747  20481974.2664                   20481968.9734
 11  8  2  1 32  0.0000000  0  9G17G10G09G12G04G27G05G25G02
 -37616797.40247 -29281157.03944  23038936.7034                   23038934.2154
 -25117320.18048 -19544130.29746  20780139.1024                   20780136.4694
 -12039524.44547  -9349738.62944  23542988.5314                   23542987.1334
 -18750092.54347 -14582110.37546  21331289.0634                   21331285.7664
 -33436286.06248 -26019196.83645  21481689.0784                   21481686.7154
 -20543608.70747 -15977255.14143  23764296.5084                   23764297.3054
 -12842414.35547  -9992552.35246  22007765.0474                   22007762.8134
   1556114.10947   1226029.85244  24087735.7114                   24087736.1724
 -30443091.75048 -23690322.17647  20476589.4064                   20476583.9454
 11  8  2  1 32 30.0000000  0  9G17G10G09G12G04G27G05G25G02
 -37589038.18047 -29259526.50445  23044219.5394                   23044217.0944
 -25149499.98448 -19569205.45746  20774015.2664                   20774012.2734
 -11986362.28147  -9308313.60244  23553105.1094                   23553103.8054
 -18836031.03547 -14649075.41446  21314935.4534                   21314932.5554
 -33386688.41048 -25980549.32445  21491127.3834                   21491125.1684
 -20505867.80547 -15947846.72344  23771478.8284                   23771478.7664
 -12960663.50047 -10084694.50046  21985263.4454                   21985261.2934
   1429975.71546   1127740.20344  24063732.3984                   24063732.6134
 -30470972.53148 -23712047.45747  20471283.8834                   20471278.6804
 11  8  2  1 33  0.0000000  0  9G17G10G09G12G04G27G05G25G02
 -37561009.76647 -29237686.20345  23049552.6564                   23049550.7664
 -25180935.79348 -19593700.87946  20768033.6564                   20768030.7464
 -11932912.12147  -9266664.17244  23563276.2424                   23563275.5354
 -18921425.93448 -14715616.85946  21298685.6644                   21298682.4184
 -33336820.07448 -25941690.90645  21500616.5394                   21500614.8244
 -20467936.30946 -15918289.82043  23778695.9844                   23778697.1054
 -13078511.40247 -10176523.99246  21962837.2424                   21962835.1564
   1304119.60947   1029670.54744  24039783.0474                   24039782.5204
 -30498439.28948 -23733450.12147  20466056.5944                   20466051.5394
 11  8  2  1 33 30.0000000  0  9G17G10G09G12G04G27G05G25G02
 -37532711.78147 -29215635.84845  23054937.8524                   23054935.7194
 -25211627.32048 -19617616.34446  20762193.0554                   20762190.3364
 -11879177.68747  -9224793.25844  23573501.8284                   23573501.6294
 -19006275.16848 -14781733.12546  21282539.2814                   21282535.9494
 -33286683.64148 -25902623.57446  21510157.3594                   21510155.0784
 -20429817.07846 -15888586.64843  23785950.6094                   23785949.6884
 -13195955.32847 -10268038.70746  21940488.1254                   21940486.5704
   1178548.12147    931822.64544  24015887.4384                   24015886.7854
 -30525493.00848 -23754530.94147  20460908.3364                   20460903.5474
 11  8  2  1 34  0.0000000  0  9G17G10G09G12G04G27G05G25G02
 -37504144.72347 -29193375.82844  23060373.7034                   23060371.2894
 -25241574.97748 -19640952.15646  20756494.2814                   20756491.8594
 -11825163.25446  -9182704.16444  23583780.0554                   23583779.2274
 -19090577.48048 -14847423.22346  21266497.1024                   21266493.8754
 -33236281.74648 -25863349.39546  21519748.7194                   21519746.4184
 -20391513.67646 -15858739.93043  23793238.7194                   23793238.1884
 -13312993.42247 -10359237.16046  21918216.8674                   21918215.1024
   1053263.07047    834197.96143  23992046.1804                   23992045.9414
 -30552135.57448 -23775291.38747  20455838.9304                   20455833.9614
 11  8  2  1 34 30.0000000  0  9G17G10G09G12G04G27G05G25G02
 -37475309.20347 -29170906.58644  23065861.3134                   23065859.1054
 -25270779.57448 -19663708.97746  20750936.7664                   20750933.8714
 -11770873.24247  -9140400.34844  23594111.2274                   23594110.7734
 -19174331.33248 -14912685.94146  21250559.2974                   21250556.1844
 -33185617.42248 -25823870.71546  21529389.7274                   21529387.7234
 -20353030.12946 -15828752.84443  23800561.7734                   23800560.5944
 -13429623.55547 -10450117.73046  21896022.8444                   21896020.4344
    928266.00047    736797.66844  23968260.1334                   23968259.8164
 -30578369.74648 -23795733.59847  20450846.6414                   20450841.3484
 11  8  2  1 35  0.0000000  0  9G17G10G09G12G04G27G05G25G02
 -37446206.35247 -29148229.06645  23071399.9144                   23071397.0554
 -25299242.01648 -19685887.47346  20745520.3594                   20745517.5744
 -11716312.84047  -9097885.83244  23604493.6804                   23604493.4884
 -19257536.34048 -14977520.98846  21234725.6954                   21234722.8594
 -33134694.31648 -25784190.38745  21539080.2344                   21539078.1724
 -20314370.91446 -15798628.87943  23807919.0784                   23807918.1054
 -13545844.87547 -10540679.75046  21873906.5004                   21873904.0784
    803557.92247    639622.57443  23944528.8284                   23944528.3404
 -30604197.41448 -23815859.05546  20445931.6884                   20445926.5744
 11  8  2  1 35 30.0000000  0  9G17G10G09G12G04G27G05G25G02
 -37416835.97747 -29125343.07044  23076988.2034                   23076986.1254
 -25326962.39848 -19707487.75446  20740245.3914                   20740242.6804
 -11661485.64147  -9055163.43744  23614926.6484                   23614926.6374
 -19340190.27048 -15041926.62546  21218997.0554                   21218994.3484
 -33083514.96948 -25744310.39545  21548819.1254                   21548816.9614
 -20275539.08246 -15768370.43443  23815308.5084                   23815307.2544
 -13661654.69547 -10630921.10946  21851868.2814                   21851866.4574
    679140.98047    542674.29343  23920853.1024                   23920852.5314
 -30629620.60948 -23835669.33247  20441093.6804                   20441088.7424
 11  8  2  1 36  0.0000000  0  9G17G10G09G12G04G27G05G25G02
 -37387198.28147 -29102248.79344  23082627.8834                   23082626.1954
 -25353941.27047 -19728510.22746  20735111.2114                   20735108.7774
 -11606395.90646  -9012236.44144  23625410.1094                   23625410.2664
 -19422292.04348 -15105902.01646  21203373.8984                   21203370.9844
 -33032082.15648 -25704232.89145  21558606.3594                   21558604.6764
 -20236538.02346 -15737980.08244  23822730.4534                   23822730.8284
 -13777050.89147 -10720840.17246  21829909.5634                   21829907.3444
    555017.08647    445954.44144  23897233.4304                   23897233.4224
 -30654640.97748 -23855165.71547  20436332.7114                   20436328.0124
 11  8  2  1 36 30.0000000  0  9G17G10G09G12G04G27G05G25G02
 -35781876.50047 -27851348.71145  23388111.2344                   23388108.5204
 -23804759.93448 -18521355.92646  21029910.2974                   21029908.1094
  -9975631.56246  -7741511.05144  23935733.7894                   23935733.5984
 -17928419.30148 -13941845.31246  21487648.2814                   21487645.0864
 -31404981.94948 -24436362.62146  21868233.7344                   21868231.5864
 -18621954.56246 -14479863.23444  24129974.6884                   24129976.2234
 -12316609.18447  -9582833.58646  22107822.0004                   22107820.1644
   2006610.46147   1577066.20344  24173462.3054                   24173462.2304
 -29103841.60248 -22646750.61347  20731440.1174                   20731434.9574
 11  8  2  1 37  0.0000000  0  9G17G10G09G12G04G27G05G25G02
 -35751707.37547 -27827840.31644  23393852.0314                   23393849.7544
 -23830259.55148 -18541225.73446  21025058.1724                   21025055.4654
  -9920031.44146  -7698186.36344  23946315.2034                   23946313.9534
 -18009414.15248 -14004958.16046  21472235.4924                   21472232.0554
 -31353052.24248 -24395897.94145  21878115.4384                   21878113.2544
 -18582628.18446 -14449219.45744  24137458.7114                   24137460.1644
 -12431173.94547  -9672104.77746  22086020.9844                   22086019.0204
   1883076.00047   1480805.64544  24149954.3754                   24149954.3324
 -29128064.44948 -22665625.55947  20726830.5394                   20726825.8054
 11  8  2  1 37 30.0000000  0  9G17G10G09G12G04G27G05G25G02
 -35721272.73447 -27804125.02045  23399643.6564                   23399641.5124
 -23855020.16448 -18560519.69946  21020346.4224                   21020344.0274
  -9864182.40246  -7654667.72344  23956942.7504                   23956941.7544
 -18089853.55948 -14067638.20346  21456928.4224                   21456925.1054
 -31300878.40648 -24355243.00845  21888043.9064                   21888040.8714
 -18543144.41446 -14418453.01243  24144972.4844                   24144973.3524
 -12545319.98047  -9761049.69146  22064299.7194                   22064297.1024
   1759839.05947   1384776.94944  24126503.1024                   24126503.5434
 -29151891.26648 -22684191.90647  20722296.5084                   20722291.6374
 11  8  2  1 38  0.0000000  0  9G17G10G09G12G04G27G05G25G02
 -35690574.65647 -27780204.44544  23405485.1254                   23405482.9384
 -23879043.75447 -18579239.36346  21015774.6954                   21015772.3164
  -9808090.17247  -7610959.57844  23967617.1804                   23967616.2194
 -18169737.50448 -14129885.42646  21441727.0634                   21441723.7734
 -31248464.59848 -24314401.09045  21898017.3594                   21898015.3164
 -18503508.31246 -14387567.86344  24152515.3754                   24152515.4884
 -12659046.64547  -9849667.82446  22042658.6724                   22042655.9774
   1636899.96146   1288980.32044  24103107.8674                   24103108.2624
 -29175325.34448 -22702452.22347  20717837.1174                   20717832.2734
 11  8  2  1 38 30.0000000  0  9G17G10G09G12G04G27G05G25G02
 -35659612.43747 -27756078.07445  23411377.0944                   23411374.7424
 -23902330.22347 -18597384.64146  21011344.0784                   21011341.1524
  -9751757.88347  -7567064.36744  23978336.7734                   23978336.0664
 -18249063.47348 -14191697.85546  21426631.5164                   21426628.3204
 -31195812.51248 -24273373.50045  21908036.8984                   21908035.3444
 -18463722.41446 -14356565.98844  24160086.6804                   24160086.9534
 -12772350.79747  -9937956.73046  22021097.2664                   22021095.4804
   1514261.45347   1193417.94144  24079770.6954                   24079770.9104
 -29198367.66048 -22720407.27347  20713452.2894                   20713447.0044
 11  8  2  1 39  0.0000000  0  9G17G10G09G12G04G27G05G25G02
 -35628387.33247 -27731746.85544  23417319.1024                   23417316.7114
 -23924880.85548 -18614956.54346  21007052.3364                   21007049.7074
  -9695190.39847  -7522985.87944  23989101.7894                   23989100.6804
 -18327830.50848 -14253074.75446  21411642.8594                   21411639.7704
 -31142925.69948 -24232163.01645  21918101.4454                   21918098.6094
 -18423790.93446 -14325450.63744  24167685.2274                   24167685.9494
 -12885231.28147 -10025915.50446  21999616.5784                   21999614.0394
   1391924.72347   1098090.68044  24056490.7194                   24056490.6484
 -29221020.96548 -22738059.19147  20709141.6334                   20709136.5704
 11  8  2  1 39 30.0000000  0  9G17G10G09G12G04G27G05G25G02
 -35596900.18047 -27707211.42245  23423311.0474                   23423308.6804
 -23946697.16047 -18631956.23846  21002901.0084                   21002898.4774
  -9638392.87947  -7478728.14144  23999910.0084                   23999909.0634
 -18406038.66048 -14314016.15646  21396760.3754                   21396757.0274
 -31089807.87548 -24190772.51645  21928209.5474                   21928206.7504
 -18383718.21546 -14294225.27743  24175311.4224                   24175311.2624
 -12997686.80547 -10113543.13346  21978216.8674                   21978214.6134
   1269890.70347   1002999.30544  24033268.4064                   24033268.1804
 -29243288.00448 -22755410.11747  20704904.3364                   20704899.0274
 11  8  2  1 40  0.0000000  0  9G17G10G09G12G04G27G05G25G02
 -35565152.84447 -27682473.23845  23429352.2974                   23429349.9064
 -23967781.33648 -18648385.46146  20998888.9614                   20998886.3204
  -9581371.00447  -7434295.57044  24010760.2664                   24010760.2464
 -18483687.96948 -14374522.10946  21381984.0394                   21381980.4654
 -31036462.97348 -24149205.06645  21938360.8984                   21938358.2344
 -18343509.29746 -14262893.75044  24182961.9614                   24182963.4064
 -13109717.52747 -10200839.74646  21956898.1954                   21956895.7544
   1148159.68446    908144.07444  24010103.6334                   24010103.8674
 -29265172.17248 -22772462.71946  20700739.8984                   20700734.7424
 11  8  2  1 40 30.0000000  0  9G17G10G09G12G04G27G05G25G02
 -35533145.43447 -27657532.39845  23435442.5394                   23435441.0124
 -23988133.78148 -18664244.48846  20995015.7114                   20995012.9144
  -9524128.40647  -7389691.03944  24021653.6094                   24021653.6374
 -18560776.50448 -14434591.08646  21367314.8914                   21367311.1724
 -30982893.28548 -24107462.44945  21948554.7584                   21948551.7734
 -18303167.20746 -14231458.50443  24190639.4384                   24190640.0864
 -13221319.99247 -10287802.66046  21935661.2114                   21935658.3874
   1026734.13746    813526.87144  23986997.2034                   23986997.4964
 -29286674.89848 -22789218.08247  20696647.8054                   20696642.5944
 11  8  2  1 41  0.0000000  0  9G17G10G09G12G04G27G05G25G02
 -35500879.94547 -27632390.49245  23441583.1414                   23441580.4304
 -24007757.25048 -18679535.48846  20991281.5474                   20991278.8054
  -9466671.25047  -7344919.32043  24032586.2734                   24032586.2154
 -18637304.69948 -14494223.44946  21352751.7814                   21352748.2664
 -30929103.74248 -24065548.52745  21958790.6254                   21958787.6414
 -18262697.43046 -14199923.72343  24198340.5164                   24198341.5354
 -13332494.39847 -10374432.00846  21914505.2344                   21914502.6414
    905613.86347    719147.53144  23963949.2114                   23963949.0904
 -29307800.24248 -22805679.38347  20692628.0084                   20692622.6724
 11  8  2  1 41 30.0000000  0  9G17G10G09G12G04G27G05G25G02
 -35468358.43747 -27607049.08645  23447771.8524                   23447769.4414
 -24026653.96148 -18694260.18746  20987685.7424                   20987683.1764
  -9409005.24647  -7299984.82044  24043560.2664                   24043560.0164
 -18713272.31648 -14553418.99246  21338295.4144                   21338292.0514
 -30875098.41048 -24023466.45745  21969067.0704                   21969065.2584
 -18222105.17246 -14168293.51643  24206065.2664                   24206065.0704
 -13443240.33247 -10460727.49246  21893430.4924                   21893428.6764
    784799.16047    625006.25444  23940958.4454                   23940958.2074
 -29328551.71948 -22821849.35546  20688679.1254                   20688674.0274
 11  8  2  1 42  0.0000000  0  9G17G10G09G12G04G27G05G25G02
 -35435580.68747 -27581508.00844  23454009.0864                   23454006.5044
 -24044824.52748 -18708419.05946  20984227.8284                   20984225.4844
  -9351134.19547  -7254890.52043  24054573.4694                   24054571.8874
 -18788678.82848 -14612177.32046  21323946.1724                   21323943.2384
 -30820879.73448 -23981218.16445  21979384.9844                   21979382.1604
 -18181393.69546 -14136570.37543  24213812.6094                   24213812.4344
 -13553555.74247 -10546687.50846  21872438.5554                   21872436.5634
    664292.20347    531104.77044  23918027.3834                   23918026.3634
 -29348930.46548 -22837728.88346  20684801.1414                   20684796.1214
 11  8  2  1 42 30.0000000  0  9G17G10G09G12G04G27G05G25G02
 -35402548.92647 -27555769.00045  23460294.6804                   23460292.7974
 -24062271.23448 -18722013.88346  20980907.9924                   20980904.9884
  -9293063.91447  -7209640.98444  24065623.8204                   24065622.5594
 -18863524.16048 -14670498.35946  21309703.6954                   21309700.1054
 -30766451.97748 -23938806.93445  21989742.2034                   21989739.3594
 -18140567.99246 -14104758.22743  24221581.5554                   24221581.8594
 -13663439.99248 -10632311.56246  21851528.3984                   21851526.2854
    544093.18047    437443.22744  23895153.9614                   23895153.2274
 -29368940.50848 -22853321.12147  20680993.2974                   20680987.8984
 11  8  2  1 43  0.0000000  0  9G17G10G09G12G04G27G05G25G02
 -35369263.43447 -27529832.28545  23466628.7194                   23466627.0944
 -24078995.05148 -18735045.42246  20977725.4694                   20977723.0664
  -9234798.48447  -7164239.43444  24076710.8674                   24076711.0084
 -18937806.81648 -14728380.95346  21295568.1804                   21295564.6214
 -30711817.61748 -23896234.72745  22000138.3834                   22000136.0474
 -18099631.43446 -14072859.69943  24229371.9694                   24229371.0784
 -13772891.18048 -10717598.16046  21830700.6484                   21830697.7704
    424204.01247    344023.13744  23872339.8984                   23872339.9494
 -29388583.75448 -22868627.54347  20677255.4144                   20677250.6454
 11  8  2  1 43 30.0000000  0  9G17G10G09G12G04G27G05G25G02
 -35335726.38747 -27503699.54744  23473010.3984                   23473008.6914
 -24094998.68448 -18747515.77046  20974680.1414                   20974677.3714
  -9176343.71547  -7118690.32844  24087834.9384                   24087835.5664
 -19011527.30548 -14785825.48846  21281539.6174                   21281536.1294
 -30656981.22748 -23853505.09045  22010574.0164                   22010571.3244
 -18058589.34046 -14040878.94943  24237180.6884                   24237181.0084
 -13881909.02347 -10802547.07846  21809955.0474                   21809952.4024
    304624.86747    250844.64144  23849584.7584                   23849584.2814
 -29407863.80548 -22883650.95347  20673586.6884                   20673581.1684
 11  8  2  1 44  0.0000000  0  9G17G10G09G12G04G27G05G25G02
 -35301937.94147 -27477370.91844  23479440.5234                   23479438.0704
 -24110282.75448 -18759425.40646  20971771.5164                   20971768.8094
  -9117703.76647  -7072996.95343  24098993.4224                   24098993.2544
 -19084684.53548 -14842831.12146  21267618.2974                   21267614.8634
 -30601945.44948 -23810620.07045  22021046.7584                   22021043.9064
 -18017445.41445 -14008818.83643  24245009.9064                   24245011.6764
 -13990491.57847 -10887156.81646  21789292.2194                   21789289.4924
    185357.48447    157909.04344  23826888.2974                   23826888.7774
 -29426782.54348 -22898392.82047  20669986.4924                   20669980.8874
 11  8  2  1 44 30.0000000  0  9G17G10G09G12G04G27G05G25G02
 -35267898.19147 -27450846.48045  23485918.4694                   23485916.0164
 -24124848.09048 -18770775.01246  20968999.9384                   20968997.3834
  -9058882.37146  -7027162.20344  24110187.0474                   24110186.8954
 -19157276.48848 -14899396.27746  21253804.3914                   21253800.8524
 -30546712.48048 -23767581.41445  22031556.6804                   22031555.0554
 -17976202.59045 -13976681.74243  24252858.7274                   24252860.5204
 -14098636.53548 -10971425.56246  21768712.8914                   21768710.3014
     66404.28147     65218.27044  23804252.0084                   23804252.0354
 -29445341.30548 -22912854.18047  20666454.6644                   20666449.6914
 11  8  2  1 45  0.0000000  0  9G17G10G09G12G04G27G05G25G02
 -35233608.05147 -27424126.92644  23492443.1414                   23492440.5744
 -24138696.59848 -18781566.04746  20966364.4224                   20966362.1134
  -8999884.18746  -6981189.70343  24121413.7814                   24121414.3594
 -19229302.85248 -14955520.72746  21240098.2584                   21240094.7854
 -30491285.60548 -23724391.65645  22042104.5554                   22042102.0784
 -17934865.13746 -13944470.85243  24260725.6174                   24260726.9384
 -14206342.63747 -11055352.34846  21748217.2114                   21748214.7504
    -52233.62147    -27226.78544  23781675.9454                   23781676.6804
 -29463542.94948 -22927037.26647  20662991.0784                   20662986.2114
 11  8  2  1 45 30.0000000  0  9G17G10G09G12G04G27G05G25G02
 -35199067.20747 -27397212.00844  23499016.0944                   23499014.3954
 -24151828.30148 -18791798.52746  20963865.8524                   20963862.7504
  -8940712.78146  -6935082.22343  24132674.1334                   24132673.5434
 -19300761.57048 -15011202.83646  21226500.3914                   21226496.6844
 -30435666.82048 -23681052.35945  22052688.0004                   22052686.3524
 -17893435.60246 -13912188.23443  24268609.6804                   24268610.3524
 -14313607.05148 -11138934.96146  21727805.3364                   21727802.5704
   -170553.59447   -119424.11744  23759161.2114                   23759160.9064
 -29481388.66048 -22940943.00847  20659595.2274                   20659590.0984
 11  8  2  1 46  0.0000000  0  9G17G10G09G12G04G27G05G25G02
 -35164276.37147 -27370102.30144  23505636.7504                   23505634.1684
 -24164244.81247 -18801473.71146  20961502.7974                   20961500.1254
  -8881372.79747  -6888843.33244  24143966.5474                   24143966.3524
 -19371651.60548 -15066441.82446  21213010.3204                   21213006.2774
 -30379859.07448 -23637565.83245  22063308.1884                   22063305.9614
 -17851918.10246 -13879837.04743  24276510.1804                   24276511.6564
 -14420428.41448 -11222172.33246  21707478.0554                   21707475.4654
   -288554.07847   -211372.52044  23736705.4774                   23736706.5474
 -29498880.80148 -22954573.25046  20656266.5314                   20656261.4024
 11  8  2  1 46 30.0000000  0  9G17G10G09G12G04G27G05G25G02
 -35129234.43446 -27342796.93044  23512304.7894                   23512303.2734
 -24175945.66048 -18810591.24246  20959276.3914                   20959273.5354
  -8821866.65247  -6842474.98443  24155289.8984                   24155289.1024
 -19441970.46148 -15121235.73846  21199629.1024                   21199625.8094
 -30323863.22748 -23593932.72745  22073963.6954                   22073961.7664
 -17810314.32046 -13847418.64144  24284427.5944                   24284427.7894
 -14526803.12147 -11305061.65646  21687235.4924                   21687233.0274
   -406231.68747   -303069.33644  23714312.3054                   23714313.0744
 -29516019.72748 -22967928.26647  20653005.1334                   20652999.9264
 11  8  2  1 47  0.0000000  0  9G17G10G09G12G04G27G05G25G02
 -35093941.96946 -27315296.34444  23519020.5084                   23519019.4104
 -24186931.93747 -18819151.96146  20957186.1024                   20957183.0234
  -8762198.52347  -6795980.40643  24166644.0084                   24166644.0514
 -19511717.35948 -15175583.95746  21186356.6564                   21186353.4064
 -30267682.13347 -23550155.27045  22084654.4384                   22084652.9964
 -17768628.08646 -13814935.97743  24292359.6564                   24292360.1334
 -14632729.52748 -11387601.66446  21667078.4454                   21667075.6174
   -523584.82447   -394513.27744  23691980.5474                   23691980.8404
 -29532807.88348 -22981009.94147  20649810.2194                   20649805.4534
 11  8  2  1 47 30.0000000  0  9G17G10G09G12G04G27G05G25G02
 -35058397.20347 -27287599.15644  23525784.6414                   23525783.1254
 -24197202.94947 -18827155.33246  20955231.1414                   20955228.3524
  -8702370.52346  -6749361.30544  24178028.2344                   24178029.3164
 -19580888.95748 -15229483.89546  21173193.4924                   21173190.4694
 -30211316.66048 -23506234.14145  22095380.8594                   22095378.7624
 -17726860.82446 -13782390.16843  24300308.6334                   24300309.2304
 -14738203.64847 -11469789.24246  21647007.0634                   21647005.0204
   -640609.50847   -485701.30144  23669711.8834                   23669712.3014
 -29549245.02048 -22993818.09047  20646682.4534                   20646677.4184
 11  8  2  1 48  0.0000000  0  9G17G10G09G12G04G27G05G25G02
 -35022603.27346 -27259707.82444  23532596.1174                   23532594.1884
 -24206762.37548 -18834604.22346  20953412.0394                   20953409.3444
  -8642389.49246  -6702622.95743  24189443.1804                   24189443.9924
 -19649486.50048 -15282936.51646  21160140.1804                   21160136.3554
 -30154771.71548 -23462173.15645  22106140.7734                   22106138.5124
 -17685018.72746 -13749786.05543  24308270.2344                   24308271.4304
 -14843226.43447 -11551625.13746  21627022.1564                   21627019.4064
   -757306.60947   -576634.10545  23647505.0784                   23647505.2974
 -29565335.40248 -23006356.04747  20643620.7974                   20643615.8284
 11  8  2  1 48 30.0000000  0  9G17G10G09G12G04G27G05G25G02
 -34986558.28547 -27231620.82844  23539455.6804                   23539453.5944
 -24215609.11348 -18841497.77046  20951728.5784                   20951726.2074
  -8582257.26247  -6655766.80544  24200886.2894                   24200886.4344
 -19717506.77048 -15335939.31246  21147196.2664                   21147192.4884
 -30098047.87548 -23417972.78145  22116935.3914                   22116932.7704
 -17643103.09846 -13717124.68044  24316246.6174                   24316248.0084
 -14947793.32447 -11633105.80546  21607123.4774                   21607121.3834
   -873671.82847   -667308.30544  23625362.0554                   23625361.8444
 -29581078.84448 -23018623.65647  20640624.8754                   20640619.7704
 11  8  2  1 49  0.0000000  0  9G17G10G09G12G04G27G05G25G02
 -34950261.62946 -27203337.77344  23546362.3444                   23546359.7814
 -24223743.61748 -18847836.34046  20950180.5784                   20950178.1994
  -8521977.05547  -6608795.31644  24212357.2664                   24212357.4414
 -19784947.68448 -15388490.66446  21134362.6724                   21134359.0664
 -30041146.28947 -23373633.90245  22127762.8984                   22127761.0594
 -17601116.18446 -13684407.71944  24324236.3984                   24324238.2344
 -15051901.59447 -11714229.08246  21587312.3594                   21587309.8324
   -989702.33247   -757721.68044  23603281.9534                   23603281.3794
 -29596476.74248 -23030622.01247  20637694.8444                   20637689.6254
 11  8  2  1 49 30.0000000  0  9G17G10G09G12G04G27G05G25G02
 -34913713.32047 -27174858.62544  23553317.3444                   23553314.5824
 -24231166.55148 -18853620.42246  20948768.3054                   20948765.6724
  -8461552.16047  -6561711.11344  24223855.8834                   24223856.6024
 -19851807.77048 -15440589.43046  21121639.3754                   21121635.6804
 -29984069.26647 -23329158.32045  22138624.7894                   22138622.5234
 -17559060.87146 -13651637.46544  24332240.2734                   24332240.8054
 -15155548.96947 -11794993.21946  21567589.2034                   21567586.4024
  -1105395.72347   -847872.34844  23581266.2894                   23581265.8674
 -29611530.24648 -23042352.00847  20634830.0634                   20634825.3554
 11  8  2  1 50  0.0000000  0  9G17G10G09G12G04G27G05G25G02
 -34876913.02347 -27146183.08644  23560320.3364                   23560317.7504
 -24237878.27748 -18858850.33246  20947490.5084                   20947488.1994
  -8400986.07847  -6514516.86744  24235381.8914                   24235381.5824
 -19918084.79748 -15492233.85246  21109027.5394                   21109023.8204
 -29926818.33647 -23284547.23045  22149519.0234                   22149516.6804
 -17516939.86346 -13618816.00044  24340255.3134                   24340256.8754
 -15258732.77348 -11875396.12546  21547953.6484                   21547951.3014
  -1220749.34447   -937758.27744  23559314.8754                   23559314.9454
 -29626240.57448 -23053814.59847  20632030.7814                   20632025.9654
 11  8  2  1 50 30.0000000  0  9G17G10G09G12G04G27G05G25G02
 -34839861.55947 -27117311.86344  23567371.2584                   23567368.7234
 -24243880.80948 -18863527.60946  20946348.5944                   20946345.9344
  -8340283.47747  -6467216.22344  24246933.1884                   24246932.7544
 -19983778.50448 -15543423.73446  21096526.4144                   21096523.2664
 -29869396.84847 -23239803.22345  22160446.1414                   22160444.3594
 -17474757.36346 -13585946.64144  24348282.3284                   24348284.4184
 -15361451.87148 -11955436.93046  21528407.1254                   21528404.4694
  -1335761.86747  -1027378.42644  23537429.3754                   23537428.6764
 -29640610.29348 -23065011.77747  20629296.0164                   20629290.9454
 11  8  2  1 51  0.0000000  0  9G17G10G09G12G04G27G05G25G02
 -34802559.77747 -27088245.56644  23574469.2664                   23574467.1214
 -24249175.64548 -18867653.44946  20945340.8524                   20945338.1564
  -8279448.60247  -6419812.48844  24258510.0784                   24258508.3524
 -20048888.01648 -15594158.41046  21084136.6024                   21084133.2034
 -29811807.44547 -23194928.38345  22171404.8284                   22171403.0594
 -17432516.93046 -13553032.10943  24356320.8594                   24356321.9304
 -15463704.47348 -12035114.21946  21508948.7114                   21508946.1954
  -1450431.68747  -1116731.53144  23515607.8984                   23515607.4574
 -29654641.48048 -23075945.17647  20626626.2274                   20626621.4454
 11  8  2  1 51 30.0000000  0  9G17G10G09G12G04G27G05G25G02
 -34765006.03547 -27058982.92644  23581616.2424                   23581613.6684
 -24253762.56648 -18871227.67246  20944468.2814                   20944465.4024
  -8218483.55947  -6372307.35543  24270111.0554                   24270110.6294
 -20113410.84448 -15644435.93446  21071858.1174                   21071854.7664
 -29754051.06247 -23149923.42645  22182395.2584                   22182393.1174
 -17390220.32446 -13520073.84843  24364368.5634                   24364370.3484
 -15565487.13348 -12114425.33246  21489580.1334                   21489577.3404
  -1564755.33647  -1205814.85544  23493852.7194                   23493852.5984
 -29668334.64148 -23086615.17247  20624020.4844                   20624015.5004
 11  8  2  1 52  0.0000000  0  9G17G10G09G12G04G27G05G25G02
 -34727200.74647 -27029524.27744  23588810.1334                   23588807.4224
 -24257643.12548 -18874251.46146  20943729.4924                   20943726.8714
  -8157392.07446  -6324703.68043  24281735.5784                   24281736.2034
 -20177345.21148 -15694254.91446  21059691.9064                   21059688.4144
 -29696129.62547 -23104789.85245  22193417.5784                   22193415.5704
 -17347870.70346 -13487074.26643  24372427.8364                   24372429.2504
 -15666797.88348 -12193368.71946  21470301.5864                   21470298.8484
  -1678730.50047  -1294626.62544  23472163.8754                   23472163.8204
 -29681691.25848 -23097022.92246  20621478.6804                   20621473.9184
 11  8  2  1 52 30.0000000  0  9G17G10G09G12G04G27G05G25G02
 -34689144.17247 -26999869.83244  23596051.6644                   23596049.1804
 -24260818.30148 -18876725.61346  20943125.4144                   20943122.8954
  -8096178.30646  -6277004.72243  24293384.1804                   24293384.4734
 -20240690.41048 -15743614.79746  21047637.4384                   21047634.1484
 -29638045.77047 -23059529.70345  22204470.6804                   22204468.3284
 -17305471.37546 -13454035.93443  24380495.9384                   24380498.3284
 -15767634.66448 -12271942.77746  21451112.7274                   21451110.0944
  -1792355.20747  -1383165.32844  23450542.1484                   23450541.6844
 -29694713.30148 -23107169.95747  20619000.7814                   20618995.7274
 11  8  2  1 53  0.0000000  0  9G17G10G09G12G04G27G05G25G02
 -34650837.52747 -26970020.52744  23603341.5704                   23603339.4844
 -24263289.96948 -18878651.57846  20942655.2814                   20942652.2934
  -8034846.75046  -6229214.02743  24305055.0314                   24305055.3524
 -20303445.85548 -15792515.13746  21035695.8054                   21035692.2814
 -29579802.41447 -23014145.28145  22215554.0164                   22215552.0314
 -17263026.27746 -13420961.97343  24388573.4844                   24388576.4454
 -15867996.23048 -12350146.54346  21432014.3674                   21432011.9804
  -1905628.12947  -1471429.91844  23428986.7194                   23428987.0634
 -29707403.14548 -23117058.14147  20616586.1724                   20616580.8324
 11  8  2  1 53 30.0000000  0  9G17G10G09G12G04G27G05G25G02
 -34612281.17647 -26939976.64844  23610678.0554                   23610675.9304
 -24265059.87948 -18880030.71946  20942318.2114                   20942315.4064
  -7973401.45346  -6181334.66043  24316747.8834                   24316748.7234
 -20365610.34848 -15840955.00046  21023866.1024                   21023862.4844
 -29521402.00047 -22968638.48845  22226667.6954                   22226665.7974
 -17220538.99246 -13387855.07042  24396658.0234                   24396659.7774
 -15967880.95348 -12427978.75446  21413006.8524                   21413004.3834
  -2018547.46947  -1559418.98444  23407498.7424                   23407498.9184
 -29719762.87948 -23126689.09447  20614233.9614                   20614229.1374
 11  8  2  1 54  0.0000000  0  9G17G10G09G12G04G27G05G25G02
 -34573475.72747 -26909738.67644  23618062.6094                   23618060.4384
 -24266129.72748 -18880864.36346  20942114.7504                   20942112.2344
  -7911846.88746  -6133370.18043  24328461.6884                   24328463.0394
 -20427183.43748 -15888934.01646  21012148.9924                   21012145.4614
 -29462847.52047 -22923011.62945  22237809.7664                   22237807.3984
 -17178013.23046 -13354718.21143  24404752.0314                   24404751.9264
 -16067287.38348 -12505438.26646  21394091.0234                   21394087.7894
  -2131111.62947  -1647131.30144  23386078.8134                   23386078.6094
 -29731794.98448 -23136064.75447  20611944.5784                   20611939.5434
 11  8  2  1 54 30.0000000  0  9G17G10G09G12G04G27G05G25G02
 -34534421.08647 -26879306.51244  23625494.7584                   23625492.8674
 -24266500.61748 -18881153.34846  20942044.1414                   20942041.5904
  -7850186.58246  -6085323.28143  24340195.3984                   24340194.5354
 -20488164.07048 -15936451.39146  21000544.7114                   21000541.0984
 -29404140.65247 -22877266.01645  22248981.6644                   22248979.1604
 -17135451.93046 -13321553.66442  24412850.9304                   24412851.2624
 -16166213.12548 -12582523.21546  21375265.6564                   21375262.8984
  -2243318.16047  -1734564.92245  23364726.8674                   23364726.8014
 -29743500.83648 -23145186.19146  20609716.7814                   20609711.7734
 11  8  2  1 55  0.0000000  0  9G17G10G09G12G04G27G05G25G02
 -34495115.27047 -26848678.61744  23632974.2114                   23632972.2424
 -24266171.62948 -18880896.98446  20942106.9844                   20942104.0474
  -7788421.81246  -6037194.98443  24351948.6094                   24351948.3674
 -20548548.73448 -15983504.37146  20989053.9924                   20989050.5824
 -29345281.44147 -22831401.69545  22260182.1094                   22260180.0704
 -17092855.99646 -13288362.16442  24420955.6954                   24420957.6684
 -16264653.87948 -12659230.25846  21356532.8364                   21356530.1214
  -2355162.78147  -1821716.56645  23343443.2814                   23343443.2114
 -29754879.88348 -23154052.97747  20607551.6334                   20607546.7704
 11  8  2  1 55 30.0000000  0  9G17G10G09G12G04G27G05G25G02
 -34455560.84046 -26817857.01644  23640501.1564                   23640499.0634
 -24265146.21148 -18880097.93746  20942301.7274                   20942299.0394
  -7726558.96146  -5988990.22343  24363721.3284                   24363721.0554
 -20608338.12148 -16030093.50046  20977676.3754                   20977672.9884
 -29286274.28147 -22785422.09845  22271410.8594                   22271408.3554
 -17050230.76646 -13255147.80543  24429068.5234                   24429068.8324
 -16362609.90248 -12735559.58646  21337892.3054                   21337889.2424
  -2466645.52347  -1908586.21545  23322228.7974                   23322228.5864
 -29765935.97748 -23162668.11347  20605447.5634                   20605442.2154
 11  8  2  1 56  0.0000000  0  9G17G10G09G12G04G27G05G25G02
 -34415757.34446 -26786841.31244  23648075.4614                   23648074.0824
 -24263424.82848 -18878756.59046  20942629.4384                   20942626.6484
  -7664600.72746  -5940711.17643  24375512.3524                   24375511.1844
 -20667530.53148 -16076217.45346  20966412.6024                   20966409.2704
 -29227120.78147 -22739328.46545  22282667.2344                   22282664.7894
 -17007578.64846 -13221912.48843  24437184.2504                   24437185.4144
 -16460078.83648 -12811509.36346  21319344.8444                   21319342.0044
  -2577763.65647  -1995171.74645  23301083.2034                   23301083.3364
 -29776669.94548 -23171032.23447  20603404.9144                   20603399.9414
 11  8  2  1 56 30.0000000  0  9G17G10G09G12G04G27G05G25G02
 -34375705.84847 -26755632.41044  23655696.9384                   23655695.1174
 -24261009.99648 -18876874.88746  20943089.0474                   20943086.1484
  -7602551.78146  -5892361.46543  24387319.3444                   24387319.7074
 -20726125.78948 -16121876.08646  20955262.0164                   20955258.6454
 -29167823.84447 -22693123.07445  22293951.4774                   22293949.6374
 -16964903.53946 -13188659.29743  24445305.3444                   24445307.1414
 -16557059.52348 -12887078.69946  21300889.6804                   21300887.1764
  -2688515.77747  -2081472.08645  23280008.3984                   23280007.8134
 -29787084.72348 -23179147.64547  20601422.8594                   20601417.9384
 11  8  2  1 57  0.0000000  0  9G17G10G09G12G04G27G05G25G02
 -34335406.57046 -26724230.40644  23663366.2194                   23663363.9574
 -24257903.54348 -18874454.27346  20943680.1804                   20943677.5044
  -7540416.05546  -5843944.10243  24399142.7894                   24399143.7544
 -20784122.92648 -16167068.65246  20944225.7584                   20944222.2464
 -29108385.64847 -22646807.61745  22305262.0474                   22305260.0474
 -16922208.81246 -13155390.78543  24453429.9384                   24453430.9104
 -16653549.98048 -12962266.02746  21282528.5474                   21282525.6604
  -2798899.89147  -2167485.67645  23259002.6094                   23259002.6644
 -29797182.03948 -23187015.67246  20599501.7894                   20599496.8554
 11  8  2  1 57 30.0000000  0  8G17G10G09G12G04G05G25G02
 -34294859.18846 -26692635.08044  23671081.4774                   23671079.8674
 -24254106.25848 -18871495.34446  20944402.5084                   20944400.2854
  -7478196.64846  -5795461.56644  24410983.5474                   24410984.3204
 -20841520.39848 -16211793.94946  20933303.4144                   20933299.9844
 -29048807.77047 -22600383.30145  22316598.5164                   22316597.0164
 -16749547.71948 -13037069.42646  21264260.4614                   21264258.0124
  -2908913.40247  -2253210.46145  23238067.3444                   23238067.6764
 -29806963.20748 -23194637.35247  20597640.4454                   20597635.3134
 11  8  2  1 58  0.0000000  0  8G17G10G09G12G04G05G25G02
 -34254064.00046 -26660846.66844  23678845.0704                   23678842.7544
 -24249619.53147 -18867999.18446  20945256.5554                   20945253.5824
  -7415896.87946  -5746916.40644  24422838.8594                   24422839.5124
 -20898316.75048 -16256050.84446  20922495.3914                   20922491.5784
 -28989092.47747 -22553851.91045  22327962.5084                   22327959.9304
 -16845050.69548 -13111487.28946  21246086.8054                   21246084.2894
  -3018554.07847  -2338644.71544  23217203.1954                   23217203.7274
 -29816429.60548 -23202013.75847  20595839.0234                   20595833.7504
 11  8  2  1 58 30.0000000  0  8G17G10G09G12G04G05G25G02
 -34213017.10247 -26628862.10244  23686655.6644                   23686653.6374
 -24244440.58647 -18863963.62946  20946241.8754                   20946238.8874
  -7353516.76646  -5698308.62144  24434709.3984                   24434710.2304
 -20954506.89848 -16299835.36346  20911802.8524                   20911799.1214
 -28929237.59847 -22507211.77045  22339352.6414                   22339350.5634
 -16940053.18448 -13185515.15646  21228008.4774                   21228006.4144
  -3127815.84847  -2423783.70744  23196411.5554                   23196411.2504
 -29825579.10248 -23209143.22746  20594097.6884                   20594092.6334
 11  8  2  1 59  0.0000000  0  8G17G10G09G12G04G05G25G02
 -34171717.07446 -26596680.27044  23694514.8674                   23694513.3484
 -24238569.49247 -18859388.73446  20947359.2034                   20947355.6994
  -7291058.07046  -5649639.63744  24446595.5004                   24446595.9144
 -21010088.31648 -16343145.54746  20901225.8984                   20901222.8014
 -28869243.55947 -22460463.18745  22350769.4384                   22350767.0554
 -17034551.30948 -13259150.01246  21210026.0704                   21210023.2194
  -3236694.65647  -2508624.30544  23175693.2974                   23175692.3014
 -29834411.70748 -23216025.76246  20592416.8364                   20592411.8244
 11  8  2  1 59 30.0000000  0  8G17G10G09G12G04G05G25G02
 -34130164.09447 -26564301.35244  23702422.4064                   23702420.0314
 -24232007.67647 -18854275.62546  20948607.7194                   20948605.0434
  -7228524.75446  -5600912.50844  24458494.3754                   24458494.7194
 -21065059.91448 -16385980.54746  20890764.8364                   20890761.5904
 -28809112.36747 -22413607.73045  22362211.6644                   22362210.3404
 -17128543.27348 -13332390.45746  21192139.9614                   21192137.6884
  -3345188.43047  -2593164.87544  23155046.9144                   23155047.0514
 -29842929.14148 -23222662.71546  20590796.1564                   20590790.8954
 11  8  2  2  0  0.0000000  0  8G17G10G09G12G04G05G25G02
 -34088359.66047 -26531726.49644  23710377.5704                   23710375.3794
 -24224758.14847 -18848626.64146  20949987.3984                   20949983.9614
  -7165921.52747  -5552130.91444  24470408.2664                   24470407.8204
 -21119422.09048 -16428340.66846  20880420.5704                   20880416.5824
 -28748847.18747 -22366647.86745  22373679.7114                   22373677.2854
 -17222028.45748 -13405236.00446  21174350.1804                   21174347.6294
  -3453296.26647  -2677404.68444  23134475.2424                   23134474.9774
 -29851134.05548 -23229056.13746  20589234.9144                   20589229.8444
 11  8  2  2  0 30.0000000  0  8G17G10G09G12G04G05G25G02
 -34046303.37547 -26498955.39544  23718380.2974                   23718377.9454
 -24216821.53547 -18842442.25846  20951497.5704                   20951494.7034
  -7103251.37546  -5503297.15243  24482334.2584                   24482333.9884
 -21173172.91848 -16470224.41846  20870191.9614                   20870188.0664
 -28688449.80547 -22319584.99645  22385173.5394                   22385170.8914
 -17315004.32448 -13477684.68446  21156657.2814                   21156655.0274
  -3561015.37947  -2761341.59045  23113976.3754                   23113976.5744
 -29859027.65248 -23235206.98446  20587732.5554                   20587727.8554
 11  8  2  2  1  0.0000000  0  8G17G10G09G12G04G05G25G02
 -34003996.73447 -26465989.22344  23726431.4384                   23726429.3244
 -24208200.67648 -18835724.70346  20953138.2974                   20953135.1214
  -7040518.96146  -5454414.84043  24494271.0864                   24494271.9344
 -21226313.14148 -16511632.36746  20860079.7894                   20860076.4614
 -28627923.17647 -22272421.40245  22396690.9844                   22396688.9264
 -17407470.27348 -13549736.03146  21139061.6564                   21139059.5744
  -3668344.89547  -2844974.94545  23093552.5234                   23093552.6604
 -29866612.91448 -23241117.56647  20586289.4384                   20586284.0554
 11  8  2  2  1 30.0000000  0  8G17G10G09G12G04G05G25G02
 -33961442.18746 -26432829.83644  23734529.1804                   23734526.6484
 -24198899.92247 -18828477.35246  20954908.1334                   20954905.3714
  -6977730.34446  -5405488.75444  24506220.1094                   24506220.9144
 -21278843.78548 -16552565.32446  20850083.4694                   20850080.1414
 -28567271.84047 -22225160.64145  22408232.4844                   22408230.3554
 -17499426.39548 -13621390.10546  21121563.2584                   21121560.5004
  -3775284.98447  -2928304.85245  23073202.6724                   23073202.3204
 -29873893.85248 -23246791.01646  20584904.0554                   20584898.9574
 11  8  2  2  2  0.0000000  0  8G17G10G09G12G04G05G25G02
 -33918639.71946 -26399477.29344  23742674.5474                   23742672.5204
 -24188920.17648 -18820700.92246  20956807.1884                   20956804.5234
  -6914888.93447  -5356521.53944  24518178.3364                   24518179.1134
 -21330763.22748 -16593022.02346  20840203.6024                   20840200.1414
 -28506497.16447 -22177803.78145  22419797.6644                   22419795.4144
 -17590870.60248 -13692645.27746  21104161.6804                   21104159.0824
  -3881833.03147  -3011329.24645  23052926.8444                   23052927.5784
 -29880871.44948 -23252228.09846  20583576.0234                   20583570.6254
 11  8  2  2  2 30.0000000  0  8G17G10G09G12G04G05G25G02
 -33875589.16047 -26365931.39544  23750867.0234                   23750864.7464
 -24178263.10947 -18812396.70746  20958835.3524                   20958831.8674
  -6851997.74646  -5307515.52343  24530145.9694                   24530146.4064
 -21382070.50848 -16633001.70346  20830439.9774                   20830436.6644
 -28445601.02347 -22130352.26644  22431385.7504                   22431383.7154
 -17681800.96948 -13763500.07446  21086858.2664                   21086855.9344
  -3987986.66047  -3094046.29745  23032726.8754                   23032727.4224
 -29887547.37948 -23257430.09046  20582305.6954                   20582300.6764
 11  8  2  2  3  0.0000000  0  8G17G10G09G12G04G05G25G02
 -33832290.60946 -26332192.27044  23759105.8444                   23759103.8134
 -24166930.27748 -18803565.91446  20960991.6644                   20960988.8284
  -6789060.35546  -5258473.54343  24542122.1174                   24542122.6994
 -21432764.61348 -16672503.58646  20820793.1644                   20820789.6844
 -28384585.19547 -22082807.47745  22442996.6804                   22442994.9734
 -17772215.68048 -13833953.04746  21069652.9384                   21069650.1764
  -4093743.61747  -3176454.27045  23012601.7504                   23012601.4304
 -29893923.13748 -23262398.19147  20581092.3524                   20581086.7424
 11  8  2  2  3 30.0000000  0  8G17G10G09G12G04G05G25G02
 -33788745.52747 -26298261.04344  23767392.1564                   23767390.0864
 -24154924.17248 -18794210.50446  20963275.8834                   20963273.0314
  -6726081.11346  -5209398.95343  24554106.4844                   24554107.7154
 -21482845.54748 -16711527.68046  20811263.0944                   20811259.6914
 -28323452.44547 -22035171.58245  22454630.1954                   22454627.4884
 -17862113.47348 -13904003.23846  21052545.6174                   21052543.0474
  -4199102.56247  -3258552.10545  22992552.7974                   22992552.4144
 -29900001.25848 -23267134.36746  20579935.8674                   20579930.1334
 11  8  2  2  4  0.0000000  0  8G17G10G09G12G04G05G25G02
 -33744954.83246 -26264138.44544  23775725.1174                   23775722.3674
 -24142247.62148 -18784332.65246  20965688.7814                   20965685.5634
  -6663064.71546  -5160295.39143  24566098.7974                   24566099.5984
 -21532313.56648 -16750074.17246  20801849.3984                   20801845.7384
 -28262206.04747 -21987447.14544  22466284.9534                   22466282.6564
 -17951493.77348 -13973650.18046  21035537.0784                   21035534.5904
  -4304062.59847  -3340339.09445  22972579.0164                   22972579.2194
 -29905784.43448 -23271640.72346  20578835.2664                   20578830.0594
 11  8  2  2  4 30.0000000  0  8G17G10G09G12G04G05G25G02
 -33700918.44546 -26229824.36744  23784104.8444                   23784103.1604
 -24128901.93447 -18773933.41046  20968228.2034                   20968225.5864
  -6600014.43046  -5111165.35943  24578096.9614                   24578097.3284
 -21581167.19948 -16788141.91446  20792553.3444                   20792549.5824
 -28200846.97747 -21939634.89544  22477960.9304                   22477958.9774
 -18040354.14848 -14042892.00046  21018627.9454                   21018625.1054
  -4408620.88347  -3421813.03945  22952682.6174                   22952682.6764
 -29911273.89548 -23275918.21146  20577790.3984                   20577784.7234
 11  8  2  2  5  0.0000000  0  8G17G10G09G12G04G05G25G02
 -33656636.00046 -26195318.56644  23792531.8284                   23792530.5514
 -24114888.32848 -18763013.70746  20970894.8284                   20970891.8054
  -6536932.92646  -5062011.07443  24590100.7194                   24590102.3484
 -21629404.90248 -16825729.72746  20783373.6484                   20783370.3134
 -28139376.87147 -21891736.14144  22489658.1644                   22489656.1914
 -18128692.50048 -14111727.04346  21001817.6334                   21001814.8524
  -4512774.68747  -3502971.80545  22932862.8134                   22932862.9064
 -29916470.64848 -23279967.62146  20576801.4454                   20576796.1994
 11  8  2  2  5 30.0000000  0  8G17G10G09G12G04G05G25G02
 -33612109.12546 -26160622.31244  23801004.9144                   23801003.3244
 -24100210.03148 -18751576.05146  20973687.6804                   20973684.5904
  -6473825.09446  -5012836.28143  24602110.1804                   24602111.0594
 -21677027.46548 -16862838.19946  20774311.4224                   20774308.2424
 -28077798.91047 -21843753.30144  22501376.0164                   22501373.8324
 -18216508.63748 -14180155.16446  20985106.6954                   20985104.0634
  -4616523.43447  -3583814.93445  22913119.6334                   22913119.8444
 -29921377.80948 -23283791.35946  20575867.6024                   20575862.3714
 11  8  2  2  6  0.0000000  0  8G17G10G09G12G04G05G25G02
 -33567337.15246 -26125735.07044  23809525.1414                   23809523.0664
 -24084867.66048 -18739620.95746  20976607.8984                   20976604.6724
  -6410693.28146  -4963642.78143  24614124.0554                   24614125.0004
 -21724033.09848 -16899465.94946  20765366.7664                   20765363.3754
 -28016113.93747 -21795687.09844  22513114.1644                   22513112.1254
 -18303798.88348 -14248173.50046  20968495.8284                   20968492.9804
  -4719863.75047  -3664339.82045  22893454.5164                   22893454.6884
 -29925995.71148 -23287389.71146  20574988.7584                   20574983.6374
 11  8  2  2  6 30.0000000  0  8G17G10G09G12G04G05G25G02
 -33522320.78146 -26090657.40644  23818091.1804                   23818089.8054
 -24068863.63748 -18727150.26646  20979653.0554                   20979650.9694
  -6347541.71546  -4914433.84043  24626141.4224                   24626141.4494
 -21770421.17648 -16935612.48846  20756539.6884                   20756536.1604
 -27954324.23847 -21747539.29744  22524872.4924                   22524870.8674
 -18390562.47748 -14315781.46146  20951985.3914                   20951982.6134
  -4822793.95347  -3744545.15245  22873867.9844                   22873867.5044
 -29930326.59848 -23290764.41046  20574164.8204                   20574159.9224
 11  8  2  2  7  0.0000000  0  8G17G10G09G12G04G05G25G02
 -33477060.23446 -26055389.48444  23826703.9454                   23826702.4344
 -24052199.61748 -18714165.30146  20982823.9224                   20982821.3054
  -6284373.81646  -4865212.20743  24638161.1644                   24638162.9804
 -21816191.18748 -16971277.42646  20747829.6804                   20747826.2304
 -27892431.85547 -21699311.47745  22536650.5944                   22536648.0514
 -18476797.58648 -14382977.60946  20935574.9694                   20935572.3484
  -4925311.89547  -3824429.25045  22854359.3984                   22854358.3984
 -29934372.16448 -23293916.78546  20573395.1484                   20573390.2934
 11  8  2  2  7 30.0000000  0  8G17G10G09G12G04G05G25G02
 -33431555.75046 -26019931.45744  23835363.2734                   23835362.4884
 -24034877.67248 -18700667.67246  20986120.1644                   20986117.7424
  -6221192.72346  -4815980.28943  24650185.9454                   24650185.4694
 -21861342.02348 -17006459.88346  20739237.7114                   20739234.3594
 -27830438.32447 -21651004.84444  22548447.1094                   22548445.2934
 -18562502.36748 -14449760.52046  20919266.2274                   20919263.3204
  -5027415.37947  -3903990.38345  22834929.4844                   22834929.2194
 -29938133.85548 -23296847.96947  20572679.2034                   20572674.1054
 11  8  2  2  8  0.0000000  0  8G17G10G09G12G04G05G25G02
 -33385807.71546 -25984283.67244  23844068.6414                   23844066.7974
 -24016899.72748 -18686658.88746  20989541.6094                   20989539.2584
  -6158002.11346  -4766740.94743  24662209.2974                   24662210.8014
 -21905872.93048 -17041159.27346  20730763.5164                   20730760.4224
 -27768345.60947 -21602620.93045  22560263.4774                   22560261.5984
 -18647675.43048 -14516129.11346  20903057.8444                   20903055.2384
  -5129102.42247  -3983227.00445  22815579.1724                   22815578.7504
 -29941613.20348 -23299559.13747  20572017.3834                   20572012.2074
 11  8  2  2  8 30.0000000  0  8G17G10G09G12G04G05G25G02
 -33339815.52746 -25948445.60544  23852820.6484                   23852818.7774
 -23998267.17648 -18672140.00846  20993087.2734                   20993084.5084
  -6094805.06646  -4717496.56243  24674235.3444                   24674235.9144
 -21949782.91448 -17075374.83646  20722407.8834                   20722404.2234
 -27706154.77347 -21554160.53544  22572097.7734                   22572095.4694
 -18732314.30148 -14582081.43746  20886951.6254                   20886949.0354
  -5230370.14147  -4062136.91045  22796309.1564                   22796308.0784
 -29944811.52348 -23302051.33246  20571408.5084                   20571403.0664
 11  8  2  2  9  0.0000000  0  8G17G10G09G12G04G05G25G02
 -33293580.29746 -25912418.19944  23861618.8984                   23861617.1764
 -23978982.53548 -18657113.00446  20996756.8364                   20996754.0204
  -6031605.26247  -4668250.05543  24686262.7194                   24686263.0434
 -21993071.54348 -17109106.22346  20714170.2504                   20714166.9064
 -27643868.23847 -21505625.57044  22583950.5394                   22583948.5824
 -18816417.88348 -14647616.66446  20870947.8524                   20870944.5664
  -5331216.96547  -4140718.84845  22777118.1724                   22777117.3284
 -29947730.74248 -23304326.03546  20570853.1024                   20570847.9064
 11  8  2  2  9 30.0000000  0  8G17G10G09G12G04G05G25G02
 -33247103.17246 -25876202.27744  23870463.5084                   23870461.7114
 -23959048.65648 -18641580.09446  21000550.1724                   21000547.5434
  -5968407.02346  -4619004.79743  24698289.5004                   24698290.7114
 -22035739.45748 -17142353.94146  20706050.8054                   20706047.4774
 -27581488.97347 -21457018.36344  22595820.6884                   22595818.8754
 -18899985.46148 -14712734.22746  20855045.1884                   20855042.4304
  -5431641.65647  -4218971.84845  22758007.7504                   22758007.1724
 -29950373.34448 -23306385.18746  20570349.9454                   20570345.0234
 11  8  2  2 10  0.0000000  0  8G17G10G09G12G04G05G25G02
 -33200383.28546 -25839797.16844  23879354.5394                   23879351.8594
 -23938466.57048 -18625542.09046  21004466.8674                   21004463.9734
  -5905212.73046  -4569762.65643  24710314.4774                   24710315.6804
 -22077784.60548 -17175116.37946  20698050.0004                   20698046.6564
 -27519017.39147 -21408339.23045  22607708.7584                   22607707.2304
 -18983014.33248 -14777432.02046  20839245.1484                   20839242.5594
  -5531641.16847  -4296893.52345  22738978.8204                   22738978.5704
 -29952740.03148 -23308229.35246  20569899.9064                   20569894.4064
 11  8  2  2 10 30.0000000  0  8G17G10G09G12G04G05G25G02
 -33153421.82846 -25803203.86344  23888290.5084                   23888288.7774
 -23917239.09448 -18609001.18446  21008506.3364                   21008504.0204
  -5842026.81646  -4520526.96943  24722338.3054                   24722338.6174
 -22119207.25848 -17207393.77046  20690167.6484                   20690164.7344
 -27456456.39547 -21359590.43044  22619613.9534                   22619611.7464
 -19065503.60248 -14841709.34046  20823547.7734                   20823545.6374
  -5631214.12547  -4374482.83645  22720031.1724                   22720030.4344
 -29954833.30948 -23309860.45746  20569501.4924                   20569496.2384
 11  8  2  2 11  0.0000000  0  7G17G10G12G04G05G25G02
 -33106219.43046 -25766422.77343  23897272.6884                   23897270.7274
 -23895368.54348 -18591959.19146  21012668.0164                   21012665.3054
 -22160007.53948 -17239186.19546  20682403.3984                   20682399.7814
 -27393807.83647 -21310773.36744  22631534.8754                   22631533.2344
 -19147451.94548 -14905565.16046  20807953.8134                   20807950.7464
  -5730358.74647  -4451738.37945  22701164.4534                   22701163.2304
 -29956654.93448 -23311279.89546  20569154.6644                   20569149.2814
 11  8  2  2 11 30.0000000  0  7G17G10G12G04G05G25G02
 -33058775.54746 -25729453.48843  23906300.5234                   23906297.9774
 -23872855.87948 -18574416.85546  21016952.2584                   21016949.2584
 -22200183.68048 -17270492.27746  20674758.2424                   20674754.8594
 -27331072.34447 -21261888.57044  22643473.8284                   22643471.9414
 -19228856.67648 -14968997.39546  20792462.7664                   20792460.1954
  -5829071.88747  -4528657.71945  22682379.5634                   22682379.3244
 -29958205.52048 -23312488.13346  20568859.6484                   20568854.2114
 11  8  2  2 12  0.0000000  0  7G17G10G12G04G05G25G02
 -31435669.31647 -24464695.41844  24215167.8594                   24215166.0474
 -22274281.49648 -17328774.46546  21321150.9064                   21321147.8674
 -20664310.76248 -16073708.16846  20967025.1094                   20967021.4844
 -25692831.26247 -19985337.09045  22955220.8674                   22955218.8134
 -17734291.17248 -13804400.85946  21076869.0004                   21076866.4304
  -4351925.53147  -3377634.55945  22963471.2734                   22963470.8164
 -28384063.81248 -22085884.19546  20868409.1254                   20868403.5474
 11  8  2  2 12 30.0000000  0  7G17G10G12G04G05G25G02
 -31387734.98847 -24427343.99644  24224289.0864                   24224287.0124
 -22250483.03948 -17310230.19946  21325679.1954                   21325676.4264
 -20703227.92248 -16104033.21946  20959619.1254                   20959615.8834
 -25629919.12547 -19936314.64144  22967192.3204                   22967190.7234
 -17814596.35548 -13866976.29346  21061587.5164                   21061584.9884
  -4449761.19947  -3453870.13745  22944854.1414                   22944853.1804
 -28385068.60548 -22086667.13746  20868217.8914                   20868212.6954
 11  8  2  2 13  0.0000000  0  7G17G10G12G04G05G25G02
 -31339552.67247 -24389799.34843  24233458.1334                   24233455.5354
 -22226041.83248 -17291185.08246  21330330.1724                   21330327.4064
 -20741511.84448 -16133864.83646  20952334.2114                   20952330.4614
 -25566918.09447 -19887222.95744  22979180.7194                   22979179.0314
 -17894345.85248 -13929118.72746  21046411.2344                   21046408.6604
  -4547151.66447  -3529758.80545  22926320.8524                   22926320.1294
 -28385799.68448 -22087236.81246  20868078.2194                   20868073.0664
 11  8  2  2 13 30.0000000  0  7G17G10G12G04G05G25G02
 -31291124.21946 -24352062.87544  24242674.0944                   24242671.8524
 -22200961.48048 -17271641.94546  21335102.6414                   21335100.3014
 -20779163.60948 -16163203.87146  20945169.2424                   20945165.8554
 -25503831.24247 -19838064.38744  22991186.2814                   22991184.3054
 -17973539.95748 -13990828.37946  21031341.6644                   21031338.8244
  -4644096.43047  -3605300.17245  22907872.9534                   22907872.0084
 -28386260.37548 -22087595.77346  20867990.6564                   20867985.5864
 11  8  2  2 14  0.0000000  0  7G17G10G12G04G05G25G02
 -31242451.26647 -24314135.88344  24251936.5234                   24251933.6954
 -22175245.27748 -17251603.34846  21339996.6094                   21339993.7814
 -20816183.93448 -16192050.87146  20938124.5864                   20938120.9694
 -25440661.71547 -19788841.38344  23003206.8284                   23003204.8714
 -18052178.40248 -14052105.06246  21016377.3284                   21016374.4414
  -4740594.84447  -3680493.72345  22889510.0164                   22889510.0594
 -28386453.61348 -22087746.34446  20867954.1644                   20867949.3404
 11  8  2  2 14 30.0000000  0  7G17G10G12G04G05G25G02
 -31193534.89147 -24276019.24244  24261244.8984                   24261243.4144
 -22148896.09848 -17231071.52046  21345010.7504                   21345007.7584
 -20852573.30948 -16220406.22347  20931199.7274                   20931196.3554
 -25377411.78547 -19739555.73844  23015242.7504                   23015240.9104
 -18130260.25448 -14112948.03146  21001518.7424                   21001515.7934
  -4836645.37147  -3755338.27045  22871232.5394                   22871232.0434
 -28386381.14848 -22087689.86746  20867967.7274                   20867962.9964
 11  8  2  2 15  0.0000000  0  7G17G10G12G04G05G25G02
 -31144377.20347 -24237714.54344  24270599.0474                   24270596.9884
 -22121917.79748 -17210049.45346  21350144.6254                   21350141.5984
 -20888332.35948 -16248270.41046  20924394.9774                   20924392.1294
 -25314084.77047 -19690210.00844  23027293.8524                   23027291.9184
 -18207785.77048 -14173357.48046  20986765.8204                   20986763.1724
  -4932247.56247  -3829833.44945  22853039.3524                   22853039.5864
 -28386046.30548 -22087428.93746  20868031.4534                   20868026.5354
 11  8  2  2 15 30.0000000  0  7G17G10G12G04G05G25G02
 -31094978.68747 -24199222.18444  24279998.7814                   24279997.5864
 -22094312.94948 -17188539.18746  21355397.5864                   21355394.5514
 -20923460.69548 -16275643.13346  20917710.2114                   20917706.7934
 -25250682.39847 -19640805.58244  23039359.0164                   23039357.1134
 -18284753.59048 -14233332.37946  20972119.3524                   20972116.3954
  -5027399.61747  -3903977.87545  22834932.1884                   22834932.2034
 -28385450.99648 -22086965.05146  20868144.9774                   20868139.7934
 11  8  2  2 16  0.0000000  0  7G17G10G12G04G05G25G02
 -31045339.90647 -24160542.64144  24289445.2584                   24289443.4104
 -22066084.00848 -17166542.59846  21360769.2424                   21360766.2814
 -20957959.27048 -16302525.14146  20911145.7504                   20911142.0864
 -25187206.72747 -19591344.04344  23051437.9144                   23051435.7664
 -18361162.68048 -14292871.89846  20957579.2274                   20957576.6884
  -5122099.78947  -3977770.19945  22816911.4144                   22816911.1914
 -28384597.25448 -22086299.80146  20868307.1174                   20868301.5784
 11  8  2  2 16 30.0000000  0  7G17G10G12G04G05G25G02
 -30995461.22747 -24121676.18744  24298937.0634                   24298934.8984
 -22037233.69548 -17144061.83646  21366259.5084                   21366257.0164
 -20991827.52748 -16328915.99646  20904700.5554                   20904697.0004
 -25123659.53147 -19541826.73044  23063530.5944                   23063528.5004
 -18437011.88748 -14351975.14146  20943145.6954                   20943143.0274
  -5216346.19547  -4051208.92645  22798977.1884                   22798976.7034
 -28383486.53548 -22085434.30946  20868518.6094                   20868513.4734
 11  8  2  2 17  0.0000000  0  7G17G10G12G04G05G25G02
 -30945343.24247 -24082623.18744  24308474.0784                   24308472.0234
 -22007763.94148 -17121098.39146  21371867.2274                   21371864.1214
 -21025064.76248 -16354815.12546  20898375.8364                   20898372.3714
 -25060042.25047 -19492254.80944  23075636.2114                   23075634.2664
 -18512299.55948 -14410640.82046  20928818.9534                   20928815.8674
  -5310136.58247  -4124292.29345  22781129.5394                   22781129.3714
 -28382120.29348 -22084369.69146  20868778.5314                   20868773.4384
 11  8  2  2 17 30.0000000  0  7G17G10G12G04G05G25G02
 -30894987.93747 -24043385.34844  24318056.3754                   24318054.6334
 -21977678.66848 -17097655.32446  21377592.0944                   21377589.8204
 -21057672.32448 -16380223.61346  20892170.4614                   20892167.6294
 -24996358.16447 -19442630.86344  23087755.0164                   23087752.9304
 -18587025.79348 -14468869.03546  20914598.9304                   20914595.6764
  -5403470.57847  -4197020.04745  22763368.1564                   22763368.0514
 -28380501.69148 -22083108.44146  20869086.3524                   20869080.8914
 11  8  2  2 18  0.0000000  0  7G17G10G12G04G05G25G02
 -30844396.71547 -24003963.62144  24327683.6334                   24327681.7584
 -21946981.33648 -17073735.32446  21383433.5314                   21383430.7274
 -21089650.87548 -16405141.95746  20886085.2734                   20886082.1994
 -24932609.89847 -19392956.88744  23099886.3054                   23099883.7974
 -18661190.41448 -14526659.61746  20900485.5704                   20900482.7934
  -5496347.22747  -4269391.42245  22745694.4614                   22745694.3134
 -28378633.44148 -22081652.64546  20869442.0164                   20869437.1254
 11  8  2  2 18 30.0000000  0  7G17G10G12G04G05G25G02
 -30793569.52746 -23964358.03544  24337354.9774                   24337353.9804
 -21915674.05948 -17049340.05146  21389391.1334                   21389388.5164
 -21120999.87148 -16429569.74646  20880119.8204                   20880116.8134
 -24868798.56247 -19343233.77744  23112028.6024                   23112026.6484
 -18734791.71148 -14584011.24646  20886479.7974                   20886477.0004
  -5588764.12947  -4341404.54745  22728108.1334                   22728108.1134
 -28376516.58248 -22080003.14146  20869845.0474                   20869839.6564
 11  8  2  2 19  0.0000000  0  7G17G10G12G04G05G25G02
 -30742507.72747 -23924569.67244  24347072.8754                   24347070.7734
 -21883759.83248 -17024471.81646  21395464.5634                   21395461.4264
 -21151719.88348 -16453507.41446  20874273.7894                   20874270.7934
 -24804926.71947 -19293463.49244  23124183.4144                   23124180.8954
 -18807829.00848 -14640923.39546  20872581.3134                   20872578.6374
  -5680720.02747  -4413058.46145  22710609.2734                   22710609.3914
 -28374153.46548 -22078161.75846  20870294.4694                   20870289.2194
 11  8  2  2 19 30.0000000  0  7G17G10G12G04G05G25G02
 -30691212.14547 -23884599.10244  24356833.5634                   24356831.1604
 -21851241.73848 -16999133.05546  21401652.8284                   21401649.8014
 -21181811.51648 -16476955.43746  20868547.8444                   20868545.0274
 -24740996.59447 -19243647.81644  23136348.5474                   23136346.4344
 -18880301.89148 -14697395.75046  20858790.2584                   20858786.9844
  -5772213.77747  -4484352.24245  22693198.6564                   22693198.8204
 -28371546.34848 -22076130.23446  20870790.6884                   20870786.2664
 11  8  2  2 20  0.0000000  0  8G17G10G29G12G04G05G25G02
 -30639684.55546 -23844447.77344  24366638.0634                   24366636.9964
 -21818123.46548 -16973326.60546  21407954.6884                   21407951.6884
   7732454.02056   6035328.91453  24735570.5864                   24735569.1724
 -21211275.57448 -16499914.43446  20862940.8754                   20862937.6884
 -24677010.78547 -19193788.73844  23148524.3834                   23148522.3134
 -18952210.15248 -14753428.12546  20845106.6414                   20845103.7774
  -5863244.38747  -4555285.16045  22675876.2814                   22675876.2504
 -28368697.89548 -22073910.65646  20871332.5234                   20871327.2774
 11  8  2  2 20 30.0000000  0  8G17G10G29G12G04G05G25G02
 -30587928.30946 -23804118.25844  24376487.8594                   24376486.6334
 -21784410.24248 -16947056.56646  21414369.6884                   21414367.1724
   7633955.99646   5958577.24643  24716826.3984                   24716824.9414
 -21240114.03548 -16522385.96946  20857453.2274                   20857449.9534
 -24612973.46947 -19143889.50444  23160710.9454                   23160708.6884
 -19023555.18748 -14809021.63746  20831530.0084                   20831527.1764
  -5953812.56247  -4625857.73045  22658641.4614                   22658640.9104
 -28365612.06248 -22071506.12146  20871920.0314                   20871915.3364
 11  8  2  2 21  0.0000000  0  8G17G10G29G12G04G05G25G02
 -30535946.83646 -23763613.23843  24386379.2894                   24386378.2464
 -21750107.87147 -16920327.43746  21420897.4844                   21420894.6174
   7535428.72346   5881802.82043  24698076.5864                   24698075.9884
 -21268331.10948 -16544373.28146  20852083.3524                   20852080.2344
 -24548889.76646 -19093954.14544  23172905.6334                   23172903.3834
 -19094339.20748 -14864177.98046  20818060.3834                   20818056.9844
  -6043919.74647  -4696071.08645  22641494.9384                   22641494.2704
 -28362293.99248 -22068920.60246  20872551.4534                   20872546.3634
 11  8  2  2 21 30.0000000  0  8G17G10G29G12G04G05G25G02
 -30483741.87146 -23722934.06643  24396313.8444                   24396311.7814
 -21715219.97348 -16893142.07046  21427536.6024                   21427533.2114
   7436871.12946   5805004.75443  24679321.4694                   24679320.9454
 -21295927.97748 -16565877.32846  20846832.2424                   20846829.0044
 -24484762.33246 -19043984.74244  23185108.1804                   23185107.0944
 -19164562.34848 -14918897.28546  20804697.0004                   20804694.1374
  -6133565.40647  -4765924.82845  22624435.8594                   22624435.5004
 -28358746.68048 -22066156.45346  20873226.2894                   20873221.5234
 11  8  2  2 22  0.0000000  0  8G17G10G29G12G04G05G25G02
 -30431315.54746 -23682082.40243  24406290.5394                   24406288.3874
 -21679750.51247 -16865503.52346  21434285.9694                   21434282.8914
   7338281.77746   5728181.91843  24660560.9384                   24660560.3984
 -21322905.05948 -16586898.41847  20841698.9304                   20841695.4574
 -24420593.92246 -18993983.39544  23197319.0784                   23197317.1844
 -19234224.48048 -14973179.43447  20791440.7894                   20791437.9224
  -6222748.69947  -4835418.27345  22607464.8914                   22607464.8444
 -28354972.69948 -22063215.68446  20873944.5314                   20873939.5164
 11  8  2  2 22 30.0000000  0  8G17G10G29G12G04G05G25G02
 -30378665.21946 -23641056.18743  24416309.1804                   24416307.6254
 -21643699.30547 -16837411.68746  21441146.2734                   21441143.5274
   7239663.78546   5651336.71944  24641795.0004                   24641792.6844
 -21349260.02048 -16607434.74646  20836683.3914                   20836680.1684
 -24356383.43446 -18943949.25844  23209538.6804                   23209536.6684
 -19303321.74648 -15027021.43746  20778292.0944                   20778289.1684
  -6311465.12947  -4904547.93045  22590582.8754                   22590582.1484
 -28350970.86348 -22060097.36746  20874705.8594                   20874700.5904
 11  8  2  2 23  0.0000000  0  8G17G10G29G12G04G05G25G02
 -30325791.48446 -23599855.90244  24426370.9924                   24426368.8014
 -21607068.59047 -16808868.27346  21448117.0944                   21448114.1294
   7141017.07146   5574469.22944  24623022.9774                   24623021.5044
 -21374992.69548 -16627486.16846  20831786.5084                   20831783.5354
 -24292132.60247 -18893883.65244  23221764.6884                   23221762.5944
 -19371853.14148 -15080422.49647  20765251.2424                   20765248.3244
  -6399712.66847  -4973312.23045  22573789.6254                   22573789.0664
 -28346742.41848 -22056802.46546  20875510.4534                   20875505.6454
 11  8  2  2 23 30.0000000  0  8G17G10G29G12G04G05G25G02
 -30272695.24246 -23558482.20744  24436475.3914                   24436472.8834
 -21569861.29748 -16779875.58646  21455197.2034                   21455194.4344
   7042341.48046   5497579.13744  24604245.5164                   24604245.0164
 -21400103.37948 -16647052.92647  20827008.2424                   20827004.9654
 -24227842.84046 -18843787.73444  23233998.6884                   23233997.2464
 -19439817.69948 -15133381.85947  20752317.7194                   20752315.0784
  -6487489.58647  -5041709.82045  22557086.2114                   22557086.0824
 -28342289.35548 -22053332.52346  20876357.8364                   20876352.8984
 11  8  2  2 24  0.0000000  0  8G17G10G29G12G04G05G25G02
 -30219376.82846 -23516935.36343  24446620.8134                   24446619.0784
 -21532080.07848 -16750435.68446  21462386.5474                   21462383.9774
   6943637.14846   5420666.68044  24585463.4614                   24585462.4064
 -21424592.06248 -16666134.99646  20822348.2894                   20822345.2424
 -24163515.62946 -18793662.63344  23246239.9694                   23246237.5044
 -19507214.16048 -15185898.55547  20739492.8444                   20739489.9064
  -6574794.06247  -5109739.25845  22540472.8594                   22540472.2894
 -28337613.16048 -22049688.73046  20877247.8204                   20877242.7194
 11  8  2  2 24 30.0000000  0  8G17G10G29G12G04G05G25G02
 -30165835.98046 -23475215.21543  24456809.5084                   24456807.8364
 -21493726.96947 -16720550.13745  21469685.0394                   21469682.0514
   6844905.00847   5343732.57844  24566674.7344                   24566673.8054
 -21448457.80948 -16684731.67646  20817806.7194                   20817803.3874
 -24099151.88347 -18743509.08644  23258488.3594                   23258485.4924
 -19574040.79748 -15237971.23047  20726775.9454                   20726773.1524
  -6661623.41447  -5177398.47745  22523949.8984                   22523949.7464
 -28332714.64148 -22045871.69146  20878180.3134                   20878174.9694
 11  8  2  2 25  0.0000000  0  8G17G10G29G12G04G05G25G02
 -30112074.21547 -23433322.94143  24467040.8444                   24467038.3364
 -21454805.60548 -16690221.81246  21477091.9144                   21477088.9694
   6746144.02347   5266775.98044  24547882.0864                   24547880.6024
 -21471702.09848 -16702844.09446  20813383.4144                   20813380.1374
 -24034753.72747 -18693328.69544  23270742.1884                   23270740.2344
 -19640297.69548 -15289599.95747  20714167.7974                   20714164.7154
  -6747976.89547  -5244686.88345  22507517.0314                   22507516.9224
 -28327596.39148 -22041883.44146  20879154.1254                   20879148.8404
 11  8  2  2 25 30.0000000  0  8G17G10G29G12G04G05G25G02
 -30058092.33246 -23391259.11744  24477312.5634                   24477310.2234
 -21415318.67647 -16659452.78146  21484605.5394                   21484603.2704
   6647354.34447   5189797.02044  24529082.9534                   24529080.9024
 -21494325.11748 -16720472.41446  20809078.7664                   20809074.8054
 -23970323.05146 -18643122.99244  23283002.6644                   23283000.7624
 -19705983.79748 -15340783.89547  20701667.9224                   20701665.1724
  -6833852.78947  -5311603.14545  22491175.6954                   22491174.8404
 -28322259.96948 -22037725.18746  20880169.3444                   20880164.5554
 11  8  2  2 26  0.0000000  0  8G17G10G29G12G04G05G25G02
 -30003889.33246 -23349022.99643  24487626.7424                   24487623.8754
 -21375267.18047 -16628243.83645  21492227.2424                   21492224.5554
   6548537.53547   5112796.92643  24510277.9384                   24510275.5634
 -21516325.33648 -16737615.43046  20804891.9534                   20804888.3984
 -23905859.86746 -18592891.96144  23295269.9304                   23295267.5474
 -19771096.76648 -15391521.24247  20689277.4694                   20689274.8204
  -6919247.75447  -5378144.66045  22474925.2734                   22474924.6334
 -28316705.58248 -22033397.08246  20881226.6414                   20881221.4064
 11  8  2  2 26 30.0000000  0  8G17G10G29G12G04G05G25G02
 -29949466.98846 -23306616.01243  24497982.0864                   24497981.4614
 -21334655.09047 -16596598.05546  21499955.6254                   21499952.5664
   6449692.53547   5035774.85543  24491468.0864                   24491466.3714
 -21537704.42648 -16754274.45746  20800823.6094                   20800819.8914
 -23841366.68046 -18542637.55144  23307542.8054                   23307540.5354
 -19835636.82448 -15441812.17647  20676995.8054                   20676992.9924
  -7004161.07047  -5444310.85945  22458767.1414                   22458766.5124
 -28310935.53948 -22028900.93746  20882324.4614                   20882319.5314
 11  8  2  2 27  0.0000000  0  8G17G10G29G12G04G05G25G02
 -29894825.16046 -23264037.99243  24508380.8834                   24508379.2234
 -21293484.31247 -16564516.93046  21507790.1094                   21507787.7464
   6350820.30547   4958731.53543  24472653.2504                   24472651.2854
 -21558461.31648 -16770448.64146  20796873.5164                   20796870.0984
 -23776844.32046 -18492360.41844  23319820.6024                   23319818.4654
 -19899601.90648 -15491655.06247  20664823.2974                   20664820.3674
  -7088590.20347  -5510099.77745  22442700.8284                   22442700.1094
 -28304950.50848 -22024237.26646  20883463.4144                   20883457.9654
 11  8  2  2 27 30.0000000  0  8G17G10G29G12G04G05G25G02
 -29839963.34446 -23221288.54343  24518820.5944                   24518819.8284
 -21251756.48047 -16532001.72746  21515730.8524                   21515728.2624
   6251922.24647   4881668.10543  24453834.2114                   24453831.9574
 -21578595.43048 -16786137.55946  20793042.0784                   20793038.7624
 -23712293.00046 -18442060.68444  23332104.5704                   23332102.5084
 -19962990.40248 -15541048.66047  20652761.4454                   20652758.3284
  -7172532.35547  -5575509.23045  22426727.1094                   22426726.9734
 -28298751.23048 -22019406.64846  20884642.9144                   20884638.1914
 11  8  2  2 28  0.0000000  0  8G17G10G29G12G04G05G25G02
 -29784884.79346 -23178370.19543  24529301.6724                   24529300.6334
 -21209477.35547 -16499056.96545  21523775.8204                   21523773.2384
   6152995.32046   4804582.16443  24435008.6484                   24435007.0864
 -21598110.02748 -16801343.72746  20789328.6174                   20789325.2704
 -23647716.91047 -18391741.67644  23344392.9924                   23344392.2154
 -20025804.30948 -15589994.53947  20640808.2504                   20640805.2584
  -7255988.63347  -5640540.06645  22410846.0394                   22410845.0394
 -28292342.00048 -22014412.43046  20885862.7194                   20885857.4654
 11  8  2  2 28 30.0000000  0  8G17G10G29G12G04G05G25G02
 -29729589.99246 -23135283.35943  24539823.9844                   24539822.5314
 -21166649.47747 -16465684.59845  21531925.6884                   21531922.7274
   6054040.16446   4727474.24643  24416177.2114                   24416177.2584
 -21617004.98448 -16816067.06247  20785732.8364                   20785729.6214
 -23583117.37147 -18341404.41044  23356686.5864                   23356684.0514
 -20088042.00448 -15638491.41047  20628964.4224                   20628961.5234
  -7338956.88347  -5705190.62945  22395057.5864                   22395056.6524
 -28285724.03548 -22009255.56646  20887121.6954                   20887116.8984
 11  8  2  2 29  0.0000000  0  7G10G29G12G04G05G25G02
 -21123274.27047 -16431885.73445  21540180.3364                   21540177.1524
   5955058.05946   4650345.32843  24397342.5634                   24397341.3404
 -21635279.17648 -16830306.68746  20782255.7114                   20782251.8404
 -23518494.66447 -18291049.07444  23368983.3524                   23368980.9694
 -20149702.06648 -15686538.18447  20617230.9614                   20617227.8954
  -7421434.24648  -5769458.68045  22379362.3754                   22379361.8524
 -28278897.68048 -22003936.32446  20888421.0784                   20888415.9184
 11  8  2  2 29 30.0000000  0  7G10G29G12G04G05G25G02
 -21079354.80147 -16397662.77045  21548537.7034                   21548534.5474
   5856049.35246   4573195.70343  24378501.4844                   24378500.4104
 -21652933.33248 -16844063.16847  20778896.5084                   20778893.0474
 -23453850.02347 -18240676.64844  23381285.0004                   23381282.6294
 -20210783.03148 -15734133.71947  20605607.8674                   20605604.5044
  -7503418.91447  -5833342.81645  22363761.0944                   22363760.9264
 -28271864.31248 -21998455.77046  20889759.2814                   20889754.0744
 11  8  2  2 30  0.0000000  0  7G10G29G12G04G05G25G02
 -21034892.33248 -16363016.68045  21556998.4924                   21556995.6254
   5757015.93846   4496026.82843  24359655.8284                   24359654.4104
 -21669965.97348 -16857335.34846  20775655.2344                   20775651.6484
 -23389183.18747 -18190286.91444  23393590.1484                   23393588.5274
 -20271282.71148 -15781276.30947  20594094.7894                   20594092.0354
  -7584907.57047  -5896840.43045  22348254.3674                   22348253.8134
 -28264623.63748 -21992813.66446  20891137.1484                   20891132.1134
 11  8  2  2 30 30.0000000  0  7G10G29G12G04G05G25G02
 -20989886.11747 -16327946.89845  21565562.9924                   21565560.0864
   5657961.13346   4418841.23043  24340806.9064                   24340805.3054
 -21686374.35548 -16870121.09846  20772532.7504                   20772529.4024
 -23324492.53147 -18139878.62944  23405900.5084                   23405898.7344
 -20331197.03548 -15827962.75847  20582693.6174                   20582690.6134
  -7665895.36747  -5959947.78145  22332843.0634                   22332842.4224
 -28257174.23848 -21987008.93746  20892554.9694                   20892549.6484
 11  8  2  2 31  0.0000000  0  7G10G29G12G04G05G25G02
 -20944339.00847 -16292455.63745  21574230.1094                   21574227.4654
   5558885.34047   4341639.34043  24321953.7504                   24321952.3594
 -21702158.71548 -16882420.59846  20769528.4384                   20769525.0084
 -23259779.14147 -18089452.64144  23418215.3524                   23418213.5784
 -20390525.12548 -15874192.42247  20571404.0784                   20571400.9384
  -7746380.43747  -6022663.38745  22317527.4384                   22317526.5824
 -28249517.31248 -21981042.50046  20894012.0394                   20894007.1134
 11  8  2  2 31 30.0000000  0  7G10G29G12G04G05G25G02
 -20898253.14147 -16256544.57445  21583000.2034                   21582997.3404
   5459789.18447   4264421.57044  24303096.2424                   24303094.4264
 -21717318.76248 -16894233.61746  20766644.1094                   20766640.6994
 -23195043.86747 -18039009.61744  23430533.8204                   23430531.8324
 -20449266.07048 -15919964.55947  20560226.0234                   20560223.1414
  -7826360.52347  -6084985.51645  22302307.3674                   22302307.1564
 -28241653.62148 -21974914.93046  20895508.3984                   20895503.2974
 11  8  2  2 32  0.0000000  0  7G10G29G12G04G05G25G02
 -20851633.43747 -16220217.52745  21591871.7114                   21591868.7934
   5360671.42247   4187186.95344  24284234.4304                   24284232.8674
 -21731856.64148 -16905561.82447  20763877.7814                   20763874.1454
 -23130289.69947 -17988551.86744  23442856.4144                   23442854.0984
 -20507420.43748 -15965279.62147  20549159.5164                   20549156.5234
  -7905835.61348  -6146914.11746  22287184.1094                   22287183.2504
 -28233586.44948 -21968628.80546  20897043.3284                   20897038.2304
 11  8  2  2 32 30.0000000  0  7G10G29G12G04G05G25G02
 -20804481.91847 -16183476.08245  21600844.4454                   21600841.2074
   5261532.65647   4109936.01644  24265369.0474                   24265367.8524
 -21745772.74648 -16916405.54746  20761229.4064                   20761225.5744
 -23065517.28947 -17938079.89144  23455181.9534                   23455180.3874
 -20564987.22748 -16010136.84047  20538204.5704                   20538201.8554
  -7984803.50047  -6208447.49645  22272156.5944                   22272156.2734
 -28225316.58248 -21962184.75046  20898617.0704                   20898612.3794
 11  8  2  2 33  0.0000000  0  7G10G29G12G04G05G25G02
 -20756803.36347 -16146323.94545  21609916.8284                   21609914.2734
   5162371.62147   4032667.69544  24246499.0784                   24246497.2304
 -21759068.91048 -16926766.19146  20758699.4384                   20758695.6804
 -23000730.18047 -17887596.46144  23467510.7814                   23467509.3914
 -20621967.41848 -16054536.96147  20527361.8524                   20527358.7734
  -8063264.50047  -6269585.90646  22257225.8444                   22257225.8594
 -28216847.55548 -21955585.49646  20900228.6484                   20900223.4654
 11  8  2  2 33 30.0000000  0  7G10G29G12G04G05G25G02
 -20708602.48047 -16108764.81245  21619089.7734                   21619086.7584
   5063186.79347   3955380.87544  24227625.5164                   24227623.5864
 -21771747.51648 -16936645.62146  20756286.6484                   20756283.1764
 -22935931.08646 -17837103.68044  23479841.4924                   23479839.9414
 -20678361.91448 -16098480.69147  20516630.2894                   20516627.1484
  -8141218.55148  -6330329.28546  22242391.9694                   22242391.7274
 -28208182.41048 -21948833.42646  20901877.5634                   20901872.7304
 11  8  2  2 34  0.0000000  0  7G10G29G12G04G05G25G02
 -20659880.05547 -16070799.27045  21628360.7034                   21628358.1884
   4963980.60546   3878077.43444  24208746.4534                   24208744.7774
 -21783806.89148 -16946042.54347  20753991.9224                   20753988.6414
 -22871119.08647 -17786600.85244  23492175.4844                   23492173.3754
 -20734167.74248 -16141965.72747  20506010.5394                   20506007.6294
  -8218661.77348  -6390674.62946  22227655.0314                   22227654.3634
 -28199320.15248 -21941927.75846  20903563.9534                   20903558.6254
 11  8  2  2 34 30.0000000  0  7G10G29G12G04G05G25G02
 -20610641.16447 -16032431.30145  21637730.6174                   21637727.8244
   4864751.42646   3800756.03944  24189864.1024                   24189862.4024
 -21795249.84048 -16954959.12147  20751814.3754                   20751811.0394
 -22806297.72746 -17736090.73044  23504510.0474                   23504508.6094
 -20789386.85948 -16184993.59047  20495503.1484                   20495499.6174
  -8295594.80147  -6450622.41445  22213014.9064                   22213014.2734
 -28190264.22348 -21934871.18746  20905287.5234                   20905282.7814
 11  8  2  2 35  0.0000000  0  7G10G29G12G04G05G25G02
 -20560888.84047 -15993663.25445  21647198.2194                   21647195.5204
   4765498.79746   3723416.41444  24170976.6564                   24170975.2734
 -21806077.21148 -16963396.02746  20749753.8984                   20749750.5594
 -22741468.32446 -17685574.35944  23516846.7814                   23516844.9064
 -20844018.91048 -16227564.00047  20485106.6724                   20485103.9064
  -8372016.32848  -6510171.62146  22198472.3674                   22198471.5634
 -28181016.71148 -21927665.32046  20907046.9774                   20907041.8054
 11  8  2  2 35 30.0000000  0  7G10G29G12G04G05G25G02
 -20510625.75847 -15954497.21145  21656762.9144                   21656760.4384
   4666223.70346   3646059.27044  24152085.3754                   24152083.8364
 -21816289.21148 -16971353.43746  20747810.7034                   20747807.2704
 -22676632.13347 -17635052.67244  23529185.0084                   23529182.4694
 -20898062.77348 -16269676.07047  20474822.5004                   20474819.6884
  -8447924.48448  -6569320.80546  22184027.8054                   22184026.7344
 -28171578.57448 -21920310.92246  20908843.0474                   20908837.7034
 11  8  2  2 36  0.0000000  0  7G10G29G12G04G05G25G02
 -20459854.67647 -15914935.32445  21666424.4924                   21666422.0044
   4566926.71946   3568685.05144  24133189.5944                   24133187.6604
 -21825886.49648 -16978831.82446  20745984.0554                   20745980.7814
 -22611790.07447 -17584526.41044  23541523.9224                   23541521.8094
 -20951517.90248 -16311329.38747  20464650.2274                   20464647.4144
  -8523317.49248  -6628068.58646  22169680.7504                   22169680.3324
 -28161951.14148 -21912809.01646  20910675.3204                   20910670.0164
 11  8  2  2 36 30.0000000  0  7G10G29G12G04G05G25G02
 -20408578.63747 -15874979.96145  21676181.8984                   21676179.2894
   4467608.02746   3491293.93444  24114290.3054                   24114287.9264
 -21834869.79348 -16985831.79746  20744274.9384                   20744271.7154
 -22546943.39147 -17533996.54744  23553863.5864                   23553861.5474
 -21004383.63348 -16352523.44147  20454589.9454                   20454587.2464
  -8598193.86348  -6686413.77046  22155432.0314                   22155431.7504
 -28152135.78948 -21905160.68046  20912543.0084                   20912537.4104
 11  8  2  2 37  0.0000000  0  7G10G29G12G04G05G25G02
 -20356800.60247 -15834633.44145  21686035.1174                   21686032.0354
   4368268.34046   3413886.43443  24095386.5004                   24095383.8094
 -21843239.32848 -16992353.50446  20742682.2664                   20742678.6604
 -22482093.04347 -17483463.82844  23566204.4534                   23566202.4024
 -21056659.19548 -16393257.61747  20444642.7194                   20444639.4384
  -8672551.71148  -6744354.90646  22141282.2664                   22141282.1174
 -28142133.41448 -21897366.62146  20914446.2274                   20914441.3324
 11  8  2  2 37 30.0000000  0  7G10G29G12G04G05G25G02
 -20304522.55148 -15793897.29345  21695983.4694                   21695980.6334
   4268908.75046   3336463.46943  24076478.4064                   24076476.3914
 -21850995.24648 -16998397.07446  20741205.9774                   20741202.8984
 -22417239.69547 -17432928.78144  23578545.8204                   23578543.5824
 -21108343.76248 -16433531.27747  20434807.4304                   20434804.0944
  -8746388.80548  -6801890.26246  22127231.4774                   22127230.9734
 -28131944.85548 -21889427.48846  20916384.6644                   20916379.9734
 11  8  2  2 38  0.0000000  0  7G10G29G12G04G05G25G02
 -20251749.67248 -15752775.57045  21706025.6564                   21706023.0124
   4169527.49646   3259023.58243  24057566.5944                   24057564.6644
 -21858139.96148 -17003964.37546  20739846.8284                   20739842.9884
 -22352386.31647 -17382393.69144  23590886.6334                   23590885.1174
 -21159438.21148 -16473345.10547  20425084.0554                   20425080.5984
  -8819705.59048  -6859020.19946  22113279.7584                   22113279.4414
 -28121573.47748 -21881345.88746  20918358.6644                   20918353.7584
 11  8  2  2 38 30.0000000  0  7G10G29G12G04G05G25G02
 -20198483.93047 -15711269.79345  21716161.2114                   21716159.1684
   4070126.05946   3181567.98844  24038650.6804                   24038649.2814
 -21864673.53948 -17009055.47346  20738603.1884                   20738599.6484
 -22287533.18047 -17331858.77744  23603227.8754                   23603225.9304
 -21209941.47748 -16512698.27347  20415473.9844                   20415470.8984
  -8892499.66448  -6915742.81646  22099427.2424                   22099426.7544
 -28111019.59448 -21873122.07046  20920367.1094                   20920362.2814
 11  8  2  2 39  0.0000000  0  7G10G29G12G04G05G25G02
 -20144728.13748 -15669382.16045  21726391.1254                   21726388.5164
   3970705.08646   3104097.16844  24019731.7194                   24019729.9774
 -21870596.42648 -17013670.69946  20737476.1334                   20737472.9534
 -22222681.30947 -17281324.87144  23615569.1024                   23615567.0594
 -21259853.01248 -16551590.35247  20405976.0394                   20405973.2734
  -8964769.27048  -6972056.76246  22085674.9064                   22085674.5944
 -28100284.17648 -21864756.80946  20922410.0634                   20922404.8364
 11  8  2  2 39 30.0000000  0  7G10G29G12G04G05G25G02
 -20090484.34848 -15627114.27045  21736713.5784                   21736710.3484
   3871265.62546   3026611.91444  24000809.5004                   24000807.1174
 -21875908.96548 -17017810.33246  20736465.3054                   20736461.8954
 -22157831.12947 -17230792.25444  23627909.0084                   23627907.4104
 -21309171.52348 -16590020.32847  20396591.1954                   20396587.7034
  -9036512.24648  -7027960.34046  22072022.6094                   22072022.1334
 -28089368.16448 -21856250.82046  20924487.3204                   20924481.9224
 11  8  2  2 40  0.0000000  0  7G10G29G12G04G05G25G02
 -20035756.89147 -15584469.49245  21747127.6954                   21747124.6804
   3771807.43446   2949112.09444  23981883.4774                   23981880.5164
 -21880612.87148 -17021475.70746  20735570.1724                   20735566.7154
 -22092984.69947 -17180262.59444  23640248.6954                   23640247.6844
 -21357897.85948 -16627988.87147  20387318.1644                   20387315.3244
  -9107728.14848  -7083453.22346  22058470.7664                   22058470.2774
 -28078273.49648 -21847605.60946  20926598.5314                   20926593.0124
 11  8  2  2 40 30.0000000  0  7G10G29G12G04G05G25G02
 -19980547.95747 -15541449.55145  21757633.8754                   21757630.8284
   3672331.21946   2871598.20343  23962953.6564                   23962951.6764
 -21884708.14848 -17024666.83246  20734790.9844                   20734787.3874
 -22028142.76647 -17129736.40644  23652588.3984                   23652586.9614
 -21406030.83248 -16665495.06647  20378159.3594                   20378156.2504
  -9178414.82048  -7138533.71546  22045019.5004                   22045018.9104
 -28067001.40248 -21838822.14846  20928743.5864                   20928737.9414
 11  8  2  2 41  0.0000000  0  7G10G29G12G04G05G25G02
 -19924860.09847 -15498056.41445  21768230.4774                   21768227.8794
   3572838.36347   2794071.33244  23944020.2894                   23944018.5824
 -21888195.47748 -17027384.21946  20734127.2034                   20734123.7504
 -21963305.61347 -17079213.93743  23664926.3914                   23664924.6914
 -21453569.62948 -16702538.25447  20369112.7424                   20369109.5554
  -9248570.40248  -7193200.37146  22031669.5314                   22031669.0984
 -28055552.10948 -21829900.60246  20930922.3284                   20930917.1644
 11  8  2  2 41 30.0000000  0  7G10G29G12G04G05G25G02
 -19868697.26247 -15454293.17245  21778918.4304                   21778915.5084
   3473328.38347   2716531.12944  23925083.8834                   23925082.4534
 -21891076.53948 -17029629.19946  20733579.0084                   20733575.6844
 -21898475.45747 -17028696.98043  23677262.8594                   23677260.9844
 -21500514.62547 -16739118.74247  20360179.4384                   20360176.4454
  -9318194.24248  -7247452.67646  22018420.3444                   22018420.0354
 -28043927.88348 -21820842.75846  20933134.2424                   20933128.9414
 11  8  2  2 42  0.0000000  0  7G10G29G12G04G05G25G02
 -19812062.34447 -15410162.07045  21789695.5084                   21789692.9414
   3373801.96947   2638978.13344  23906145.5474                   23906142.9454
 -21893351.88748 -17031402.18746  20733146.2114                   20733142.7704
 -21833652.96547 -16978185.96943  23689598.7584                   23689596.7504
 -21546865.41848 -16775236.21947  20351359.2814                   20351356.3134
  -9387284.62148  -7301289.30546  22005272.7584                   22005272.3404
 -28032129.78948 -21811649.42246  20935379.2814                   20935374.0084
 11  8  2  2 42 30.0000000  0  7G10G29G12G04G05G25G02
 -19754957.27747 -15365664.60945  21800562.2424                   21800559.2544
   3274260.49246   2561413.37544  23887203.1254                   23887201.7704
 -21895021.37148 -17032703.08246  20732828.4224                   20732824.5784
 -21768838.06647 -16927680.87543  23701932.4144                   23701929.9694
 -21592620.51648 -16810889.50847  20342652.1024                   20342649.4064
  -9455839.07848  -7354708.32046  21992227.5234                   21992226.8364
 -28020158.10548 -21802320.83646  20937657.5164                   20937652.6174
 11  8  2  2 43  0.0000000  0  7G10G29G12G04G05G25G02
 -19697386.48847 -15320804.25045  21811517.2424                   21811514.8054
   3174703.33246   2483836.45744  23868257.5784                   23868256.5514
 -21896087.22748 -17033533.61746  20732625.2974                   20732622.1374
 -21704033.18447 -16877183.58644  23714264.5314                   23714262.8834
 -21637781.01248 -16846079.47747  20334058.4384                   20334055.2384
  -9523857.50048  -7407709.65646  21979283.7274                   21979283.0704
 -28008015.41048 -21792858.99246  20939968.2814                   20939963.2154
 11  8  2  2 43 30.0000000  0  7G10G29G12G04G05G25G02
 -19639351.60547 -15275582.27345  21822560.7114                   21822558.2814
   3075132.85547   2406249.12544  23849310.1414                   23849308.5354
 -21896549.19548 -17033893.57846  20732537.5234                   20732533.6214
 -21639238.01247 -16826693.84044  23726594.5084                   23726592.3164
 -21682345.40648 -16880804.95347  20325578.0474                   20325574.7734
  -9591337.22748  -7460291.21946  21966442.6174                   21966442.0824
 -27995701.59048 -21783263.79346  20942311.3134                   20942306.0314
 11  8  2  2 44  0.0000000  0  7G10G29G12G04G05G25G02
 -19580855.36747 -15230000.78545  21833692.4064                   21833690.1484
   2975549.56647   2328651.85244  23830359.4844                   23830357.8524
 -21896408.05948 -17033783.59846  20732564.2504                   20732561.0984
 -21574453.38347 -16776212.32844  23738922.6644                   23738920.3714
 -21726313.57848 -16915065.84047  20317211.3054                   20317208.1604
  -9658276.74248  -7512451.84046  21953704.5784                   21953704.0354
 -27983217.32048 -21773535.78546  20944687.1254                   20944681.5664
 11  8  2  2 44 30.0000000  0  7G10G29G12G04G05G25G02
 -19521901.88347 -15184063.00845  21844910.9064                   21844907.9384
   2875953.03546   2251044.23044  23811405.8524                   23811404.8244
 -21895665.03948 -17033204.61347  20732705.8524                   20732702.3014
 -21509681.27047 -16725740.57043  23751247.9454                   23751246.4264
 -21769685.42648 -16948862.05947  20308957.7814                   20308954.8954
  -9724675.37148  -7564190.99646  21941069.6724                   21941068.5904
 -27970564.98848 -21763676.82046  20947095.0394                   20947089.3324
 11  8  2  2 45  0.0000000  0  7G10G29G12G04G05G25G02
 -19462493.48448 -15137770.74245  21856215.9304                   21856213.3554
   2776344.48847   2173427.23444  23792452.1804                   23792449.5864
 -21894321.63748 -17032157.80946  20732961.1564                   20732958.0394
 -21444921.85247 -16675278.69544  23763571.6644                   23763570.4414
 -21812460.39148 -16982193.16447  20300817.8364                   20300815.1844
  -9790531.24248  -7615507.21946  21928537.2664                   21928536.9614
 -27957745.28948 -21753687.42246  20949534.4144                   20949528.9844
 11  8  2  2 45 30.0000000  0  7G10G29G12G04G05G25G02
 -19402632.78147 -15091126.03945  21867606.8364                   21867604.3674
   2676725.01647   2095801.73444  23773495.8524                   23773492.9884
 -21892377.58248 -17030642.95346  20733331.6174                   20733327.8094
 -21380175.65247 -16624827.12544  23775891.9694                   23775891.3874
 -21854637.94148 -17015058.76647  20292791.8524                   20292788.5744
  -9855842.64148  -7666399.17246  21916109.0474                   21916109.1134
 -27944758.83648 -21743568.09846  20952005.2114                   20952000.1094
 11  8  2  2 46  0.0000000  0  7G10G29G12G04G05G25G02
 -19342322.87947 -15044131.30945  21879084.0234                   21879080.7424
   2577095.16446   2018168.15244  23754536.4774                   23754534.4694
 -21889834.33248 -17028661.20347  20733815.0944                   20733811.9454
 -21315443.94146 -16574386.84843  23788209.9844                   23788208.6684
 -21896218.01248 -17047458.79347  20284879.2114                   20284876.2664
  -9920608.36348  -7716865.92246  21903784.4304                   21903784.4024
 -27931607.00848 -21733319.92646  20954508.0784                   20954503.0274
 11  8  2  2 46 30.0000000  0  7G10G29G12G04G05G25G02
 -19281566.58648 -14996788.73045  21890645.3364                   21890642.5234
   2477456.14846   1940527.41444  23735575.9614                   23735573.2274
 -21886692.98448 -17026213.39546  20734413.0944                   20734409.7704
 -21250727.30946 -16523958.37143  23800525.7974                   23800524.4064
 -21937200.14848 -17079392.89847  20277080.8754                   20277077.8914
  -9984826.66048  -7766906.11746  21891564.2424                   21891563.8634
 -27918290.37948 -21722943.32046  20957042.0784                   20957037.2814
 11  8  2  2 47  0.0000000  0  7G10G29G12G04G05G25G02
 -19220368.09847 -14949101.58645  21902290.9844                   21902287.9884
   2377807.54746   1862879.21144  23716612.7194                   23716611.3204
 -21882954.97348 -17023300.66846  20735124.3054                   20735121.0824
 -21186027.41846 -16473542.87144  23812837.7584                   23812835.9924
 -21977585.19148 -17110861.73847  20269395.7034                   20269392.6884
 -10048497.08248  -7816519.39546  21879447.5784                   21879447.6094
 -27904811.02348 -21712439.91446  20959607.0164                   20959601.7114
 11  8  2  2 47 30.0000000  0  7G10G29G12G04G05G25G02
 -19158729.34448 -14901071.35945  21914020.2584                   21914016.9694
   2278151.21547   1785224.98044  23697649.1804                   23697646.9304
 -21878620.64148 -17019923.27046  20735949.2894                   20735945.7464
 -21121343.96946 -16423140.21943  23825146.6644                   23825144.1724
 -22017371.63748 -17141864.14147  20261824.4064                   20261821.6684
 -10111617.27348  -7865703.91446  21867436.6484                   21867436.1414
 -27891168.90648 -21701809.68046  20962203.1724                   20962198.1254
 11  8  2  2 48  0.0000000  0  7G10G29G12G04G05G25G02
 -19096653.00848 -14852700.18745  21925833.5634                   21925829.8714
   2178487.97747   1707565.33644  23678683.8134                   23678681.0904
 -21873691.02748 -17016082.02046  20736887.1564                   20736883.8754
 -21056678.09446 -16372751.25843  23837452.2814                   23837450.3054
 -22056559.74248 -17172400.29747  20254367.2194                   20254364.2384
 -10174185.93048  -7914458.68046  21855530.5394                   21855529.5634
 -27877365.37948 -21691053.67646  20964829.8674                   20964824.5824
 11  8  2  2 48 30.0000000  0  7G10G29G12G04G05G25G02
 -19034141.95347 -14803990.27045  21937728.5554                   21937726.0164
   2078818.82046   1629901.10944  23659717.5944                   23659714.8674
 -21868166.89148 -17011777.49646  20737938.4304                   20737934.9184
 -20992030.24646 -16322376.35943  23849754.3754                   23849752.3754
 -22095149.22348 -17202469.99647  20247023.9224                   20247021.1174
 -10236201.41048  -7962782.39846  21843728.7034                   21843728.1724
 -27863401.05148 -21680172.36746  20967486.9384                   20967481.9454
 11  8  2  2 49  0.0000000  0  7G10G29G12G04G05G25G02
 -18971200.13347 -14754944.69545  21949705.8444                   21949703.1644
   1979143.82847   1552232.32844  23640749.8134                   23640747.6884
 -21862050.25048 -17007011.28546  20739102.4534                   20739099.0084
 -20927401.94546 -16272016.68743  23862052.4304                   23862050.5744
 -22133140.07848 -17232073.23847  20239794.5634                   20239791.1254
 -10297663.33248  -8010674.76646  21832032.9774                   21832032.7234
 -27849277.99248 -21669167.37946  20970174.7974                   20970169.5434
 11  8  2  2 49 30.0000000  0  7G10G29G12G04G05G25G02
 -18907829.12547 -14705564.67645  21961765.2974                   21961762.5744
   1879465.14147   1474560.68844  23621781.5314                   23621780.2304
 -21855340.76248 -17001783.12146  20740378.8754                   20740375.6804
 -20862792.44947 -16221671.66044  23874347.0314                   23874345.6804
 -22170531.17648 -17261209.13747  20232679.0704                   20232676.4924
 -10358568.80548  -8058133.54346  21820443.4844                   21820442.7234
 -27834995.52048 -21658038.17646  20972892.6884                   20972887.1334
 11  8  2  2 50  0.0000000  0  7G10G29G12G04G05G25G02
 -18844032.35547 -14655852.89545  21973905.4224                   21973902.2934
   1779782.66847   1396886.10244  23602812.3754                   23602811.0824
 -21848040.11748 -16996094.30546  20741768.3284                   20741764.6214
 -20798203.37147 -16171342.55543  23886638.3204                   23886636.1254
 -22207322.78548 -17289877.90247  20225677.8054                   20225674.8834
 -10418917.29748  -8105158.31646  21808959.3834                   21808958.7074
 -27820555.25048 -21646786.00846  20975640.7344                   20975635.4104
 11  8  2  2 50 30.0000000  0  7G10G29G12G04G05G25G02
 -18779812.92647 -14605811.77745  21986125.3594                   21986122.8244
   1680097.80147   1319209.65644  23583842.9454                   23583841.3714
 -21840149.62148 -16989945.87546  20743269.8674                   20743266.6524
 -20733635.53147 -16121029.94143  23898924.5004                   23898922.8754
 -22243515.30148 -17318079.84047  20218790.5634                   20218787.9144
 -10478707.58248  -8151748.12546  21797581.6564                   21797581.2424
 -27805958.54748 -21635411.94146  20978418.1414                   20978413.0124
 11  8  2  2 51  0.0000000  0  7G10G29G12G04G05G25G02
 -18715174.05547 -14555443.82445  21998426.0554                   21998423.3444
   1580411.22747   1241531.85244  23564873.1954                   23564871.6524
 -21831670.69548 -16983338.91846  20744883.2894                   20744880.5634
 -20669089.57447 -16070734.43443  23911207.7274                   23911205.9774
 -22279108.71148 -17345814.94147  20212017.5474                   20212014.7544
 -10537938.54748  -8197902.09846  21786310.0394                   21786309.8054
 -27791206.14548 -21623916.55546  20981225.3054                   20981220.5744
 11  8  2  2 51 30.0000000  0  7G10G29G12G04G05G25G02
 -18650119.98447 -14504752.34045  22010805.3444                   22010802.7464
   1480722.29747   1163852.26244  23545902.8984                   23545901.0084
 -21822605.38348 -16976275.04746  20746608.5394                   20746605.1454
 -20604567.57447 -16020457.57843  23923486.3284                   23923484.5944
 -22314104.14848 -17373084.09047  20205358.1724                   20205355.2344
 -10596610.00848  -8243620.09046  21775145.4774                   21775145.0394
 -27776300.25848 -21612301.55146  20984062.0554                   20984056.6884
 11  8  2  2 52  0.0000000  0  7G10G29G12G04G05G25G02
 -18584652.33247 -14453738.58245  22023263.3134                   22023260.6804
   1381033.53547   1086172.77344  23526932.6254                   23526931.0864
 -21812953.59448 -16968754.17646  20748445.3914                   20748442.0634
 -20540068.59047 -15970198.66443  23935760.2974                   23935758.7034
 -22348500.30948 -17399886.27347  20198812.8594                   20198809.5744
 -10654719.43048  -8288900.13746  21764087.5634                   21764087.2774
 -27761240.30948 -21600566.52746  20986927.8364                   20986922.1724
 11  8  2  2 52 30.0000000  0  7G10G29G12G04G05G25G02
 -18518775.42647 -14402405.91845  22035799.5234                   22035796.8284
   1281344.70347   1008493.25444  23507962.6724                   23507960.6294
 -21802717.67248 -16960778.13746  20750393.1334                   20750389.6884
 -20475594.83247 -15919959.39143  23948028.8444                   23948027.3364
 -22382298.08248 -17426222.18447  20192381.3444                   20192377.9494
 -10712266.68748  -8333742.12546  21753136.8984                   21753136.5274
 -27746028.83648 -21588713.41046  20989822.3674                   20989817.2544
 11  8  2  2 53  0.0000000  0  7G10G29G12G04G05G25G02
 -18452491.68047 -14350756.24645  22048413.1884                   22048410.1294
   1181657.18447    930814.74645  23488993.1954                   23488991.2034
 -21791898.94548 -16952347.95746  20752451.5554                   20752448.2584
 -20411146.08246 -15869739.60943  23960294.1334                   23960291.0554
 -22415497.05548 -17452091.49647  20186063.7424                   20186060.8014
 -10769250.08248  -8378144.74646  21742293.2114                   21742292.4144
 -27730665.82048 -21576742.21546  20992745.6254                   20992740.7154
 11  8  2  2 53 30.0000000  0  7G10G29G12G04G05G25G02
 -18385802.73047 -14298790.82845  22061103.7734                   22061100.5944
   1081972.89147    853138.75045  23470023.8204                   23470021.4964
 -21780497.30548 -16943463.56246  20754621.6254                   20754618.0634
 -20346722.21146 -15819539.20743  23972552.7034                   23972550.5044
 -22448096.34448 -17477493.52347  20179860.2734                   20179857.4344
 -10825667.46948  -8422106.33246  21731556.9144                   21731556.6094
 -27715151.30548 -21564652.97346  20995698.3054                   20995692.9024
 11  8  2  2 54  0.0000000  0  7G10G29G12G04G05G25G02
 -18318712.99647 -14246513.12945  22073869.8054                   22073867.2274
    982292.02747    775465.44144  23451054.4454                   23451053.1134
 -21768515.05548 -16934126.74246  20756901.6804                   20756898.0904
 -20282325.04346 -15769359.63343  23984807.0554                   23984805.0314
 -22480097.12948 -17502429.17647  20173770.8134                   20173767.5314
 -10881518.71948  -8465626.77046  21720928.8984                   21720928.1724
 -27699487.36748 -21552447.28946  20998678.7504                   20998673.8014
 11  8  2  2 54 30.0000000  0  7G10G29G12G04G05G25G02
 -18251223.46547 -14193923.88745  22086713.1724                   22086710.1024
    882616.89547    697796.59844  23432086.8754                   23432084.7584
 -21755951.97348 -16924337.32446  20759292.3914                   20759288.8164
 -20217953.53946 -15719200.02343  23997055.5234                   23997054.8834
 -22511498.07448 -17526897.43047  20167795.4614                   20167792.2194
 -10936801.13348  -8508703.95346  21710409.2114                   21710408.1414
 -27683673.34048 -21540124.65646  21001688.1174                   21001682.8284
 11  8  2  2 55  0.0000000  0  7G10G29G12G04G05G25G02
 -18183337.91047 -14141026.05145  22099631.1024                   22099628.7344
    782947.87147    620132.46944  23413120.8134                   23413117.7774
 -21742810.00448 -16914096.82446  20761793.2584                   20761789.7734
 -20153608.89846 -15669061.43043  24009300.6484                   24009298.9964
 -22542299.72748 -17550898.69547  20161933.8674                   20161931.1764
 -10991514.21948  -8551337.50446  21699997.5864                   21699997.0164
 -27667710.59448 -21527686.14846  21004726.0394                   21004720.9924
 11  8  2  2 55 30.0000000  0  7G10G29G12G04G05G25G02
 -18115059.98047 -14087822.46945  22112623.9844                   22112621.4884
    683285.91047    542473.82844  23394155.7894                   23394152.8524
 -21729090.64848 -16903406.41046  20764403.8594                   20764400.1844
 -20089291.81646 -15618944.17243  24021540.0784                   24021538.2114
 -22572502.53548 -17574433.32447  20156186.5634                   20156183.2194
 -11045657.14548  -8593526.78946  21689694.3914                   21689693.7194
 -27651600.12948 -21515132.52046  21007791.0704                   21007786.0394
 11  8  2  2 56  0.0000000  0  7G10G29G12G04G05G25G02
 -18046391.82447 -14034314.81245  22125691.2894                   22125688.6914
    583632.66047    464822.00044  23375192.6564                   23375189.9224
 -21714794.72747 -16892266.72346  20767124.1094                   20767121.0234
 -20025002.32846 -15568848.49643  24033773.7664                   24033771.8284
 -22602105.87148 -17597500.83647  20150553.2194                   20150549.9884
 -11099228.03148  -8635270.31246  21679500.2584                   21679499.8714
 -27635342.29348 -21502464.06246  21010885.1804                   21010880.0594
 11  8  2  2 56 30.0000000  0  7G10G29G12G04G05G25G02
 -16401920.74247 -12752908.78545  22438624.1414                   22438620.9344
   2059410.44147   1614778.83244  23656023.0554                   23656020.5044
 -20124506.32447 -15653080.95346  21069746.2664                   21069742.4924
 -18385325.41046 -14291178.19943  24345793.4304                   24345792.2424
 -21055690.93748 -16392502.16847  20444825.7894                   20444822.9064
  -9576806.19548  -7448967.55946  21969207.4614                   21969206.6414
 -26043520.52048 -20262083.44146  21313798.9694                   21313794.0704
 11  8  2  2 57  0.0000000  0  7G10G29G12G04G05G25G02
 -16332482.75847 -12698801.27745  22451837.1484                   22451834.7274
   1959776.06347   1537141.73444  23637063.5864                   23637060.5204
 -20109063.30548 -15641047.43446  21072684.7734                   21072681.3594
 -18321094.87946 -14241128.47743  24358016.3444                   24358015.0314
 -21084097.69948 -16414637.27747  20439420.4924                   20439417.4024
  -9629231.67648  -7489818.56646  21959231.1024                   21959229.9924
 -26026972.27747 -20249188.69146  21316947.6334                   21316942.3674
 11  8  2  2 57 30.0000000  0  7G10G29G12G04G05G25G02
 -16262663.31247 -12644396.53545  22465123.4384                   22465120.3284
   1860153.93447   1459514.10244  23618105.5004                   23618103.2504
 -20093047.57048 -15628567.63346  21075732.5704                   21075728.9924
 -18256893.22346 -14191101.27043  24370233.1724                   24370232.3094
 -21111905.29748 -16436305.51247  20434128.8524                   20434125.5124
  -9681081.62948  -7530221.10946  21949364.2344                   21949364.2154
 -26010278.82448 -20236180.80146  21320124.5314                   21320119.5824
 11  8  2  2 58  0.0000000  0  7G10G29G12G04G05G25G02
 -16192465.74247 -12589697.13345  22478481.9144                   22478478.8524
   1760544.25047   1381896.19544  23599150.6024                   23599148.3874
 -20076461.03548 -15615643.06646  21078889.1024                   21078886.1174
 -18192721.75046 -14141097.57043  24382445.5004                   24382443.6804
 -21139114.45348 -16457507.43047  20428951.0704                   20428947.9184
  -9732355.66448  -7570174.88346  21939607.0704                   21939606.6374
 -25993441.51648 -20223060.79746  21323328.4534                   21323322.5084
 11  8  2  2 58 30.0000000  0  7G10G29G12G04G05G25G02
 -16121891.66847 -12534704.33245  22491911.1804                   22491908.4534
   1660949.79347   1304290.20744  23580197.6254                   23580196.8324
 -20059304.12548 -15602274.04746  21082153.6174                   21082150.4694
 -18128579.53146 -14091116.68443  24394651.2664                   24394649.4574
 -21165724.36348 -16478242.40647  20423887.2814                   20423883.9494
  -9783051.23848  -7609677.89846  21929960.5944                   21929959.7424
 -25976459.69548 -20209828.19146  21326560.0314                   21326555.0124
 11  8  2  2 59  0.0000000  0  7G10G29G12G04G05G25G02
 -16050945.19147 -12479421.36745  22505412.0704                   22505409.4804
   1561370.58647   1226696.12144  23561248.7424                   23561247.2274
 -20041579.21148 -15588462.42646  21085526.5944                   21085523.4654
 -18064467.91846 -14041159.61343  24406850.9844                   24406849.5634
 -21191736.03148 -16498511.20347  20418937.2974                   20418934.2384
  -9833168.44548  -7648730.26246  21920423.4534                   21920422.5744
 -25959335.15648 -20196484.39146  21329818.7344                   21329814.0864
 11  8  2  2 59 30.0000000  0  7G10G29G12G04G05G25G02
 -15979628.34847 -12423849.82845  22518983.2974                   22518980.2934
   1461808.91447   1149115.64545  23542303.6414                   23542300.9654
 -20023286.69148 -15574208.50846  21089007.7114                   21089004.1724
 -18000386.64846 -13991226.23043  24419045.5634                   24419043.7274
 -21217148.78948 -16518313.33647  20414101.5234                   20414098.7624
  -9882705.34048  -7687330.41446  21910996.5944                   21910995.8954
 -25942067.80148 -20183029.29746  21333104.6804                   21333099.1804
 11  8  2  3  0  0.0000000  0  7G10G29G12G04G05G25G02
 -15907945.52347 -12367993.07044  22532624.0234                   22532621.1844
   1362264.45347   1071548.55545  23523360.0784                   23523358.3244
 -20004429.53948 -15559514.62146  21092595.7664                   21092592.4344
 -17936337.45746 -13941317.81243  24431233.8364                   24431231.9344
 -21241964.40648 -16537650.16447  20409379.2894                   20409376.4184
  -9931662.30548  -7725478.68446  21901680.7344                   21901679.8834
 -25924659.56248 -20169464.42246  21336417.2584                   21336412.0944
 11  8  2  3  0 30.0000000  0  7G10G29G12G04G05G25G02
 -15835899.62147 -12311853.40645  22546333.7974                   22546331.0124
   1262738.52747    993995.93444  23504420.6884                   23504418.8674
 -19985009.00048 -15544381.73446  21096291.4144                   21096288.0594
 -17872320.92646 -13891434.79743  24443415.2194                   24443414.3284
 -21266183.12948 -16556521.86747  20404770.4694                   20404767.5234
  -9980038.36348  -7763174.28546  21892474.7974                   21892474.0204
 -25907111.23448 -20155790.39546  21339756.2424                   21339751.3324
 11  8  2  3  1  0.0000000  0  8G26G10G29G12G04G05G25G02
   9290549.56656   7250546.87953  24918419.6724                   24918419.1524
 -15763494.96947 -12255434.21545  22560112.1884                   22560108.7344
   1163230.66847    916457.39145  23485485.4064                   23485484.1174
 -19965028.30148 -15528812.35946  21100093.5164                   21100090.1214
 -17808338.97347 -13841578.80143  24455591.3054                   24455589.1564
 -21289806.75848 -16574929.86747  20400275.2194                   20400271.7774
 -10027834.15648  -7800417.73446  21883379.6024                   21883378.7344
 -25889425.05948 -20142008.94946  21343122.4694                   21343116.9144
 11  8  2  3  1 30.0000000  0  8G26G10G29G12G04G05G25G02
   9180231.51646   7164584.83242  24897427.2584                   24897425.9454
 -15690734.66447 -12198737.88345  22573957.8834                   22573954.8714
   1063742.47747    838934.17245  23466553.3914                   23466551.9734
 -19944489.10248 -15512807.79346  21104002.4454                   21103998.9344
 -17744391.73447 -13791749.81243  24467759.8754                   24467758.1254
 -21312835.75448 -16592874.51647  20395892.9774                   20395889.2584
 -10075048.61348  -7837208.19546  21874395.0004                   21874394.1254
 -25871601.87148 -20128120.75046  21346513.7034                   21346508.2934
 11  8  2  3  2  0.0000000  0  8G26G10G29G12G04G05G25G02
   9069806.50846   7078539.46543  24876413.8204                   24876413.0984
 -15617624.37547 -12141768.84044  22587870.1484                   22587867.4144
    964272.12547    761424.86745  23447624.9924                   23447622.9694
 -19923395.98448 -15496371.60246  21108015.9144                   21108012.5354
 -17680482.69547 -13741950.59443  24479921.2504                   24479919.9804
 -21335272.95348 -16610358.02747  20391623.1884                   20391620.0204
 -10121683.68748  -7873547.20346  21865520.5234                   21865520.0204
 -25853644.85248 -20114128.26246  21349930.8524                   21349925.6374
 11  8  2  3  2 30.0000000  0  8G26G10G29G12G04G05G25G02
   8959276.76246   6992412.50843  24855380.7504                   24855379.2584
 -15544167.74247 -12084529.91044  22601848.4774                   22601845.7464
    864820.39147    683930.08645  23428699.8834                   23428697.8754
 -19901750.50448 -15479504.99246  21112134.9224                   21112131.6604
 -17616612.71547 -13692181.80943  24492075.6564                   24492074.2934
 -21357119.39148 -16627381.21147  20387465.9454                   20387462.7894
 -10167738.97748  -7909434.42246  21856756.6564                   21856755.4964
 -25835555.39148 -20100032.56646  21353372.9534                   21353367.7934
 11  8  2  3  3  0.0000000  0  8G26G10G29G12G04G05G25G02
   8848645.04346   6906206.08642  24834328.7504                   24834327.0744
 -15470367.39847 -12027023.14844  22615892.7344                   22615889.5824
    765388.30147    606450.60244  23409778.2974                   23409775.6454
 -19879554.69148 -15462209.55546  21116358.8204                   21116355.4384
 -17552782.27347 -13642443.82043  24504221.8364                   24504219.8984
 -21378375.94148 -16643944.73847  20383421.1724                   20383417.7624
 -10213213.78948  -7944869.32846  21848102.9774                   21848102.0044
 -25817334.28548 -20085834.29346  21356840.6024                   21356835.3674
 11  8  2  3  3 30.0000000  0  8G26G10G29G12G04G05G25G02
   8737915.44546   6819923.46143  24813257.4144                   24813255.8984
 -15396225.50047 -11969250.24644  22630001.7424                   22629998.2424
    665978.66447    528988.60944  23390861.8444                   23390858.9614
 -19856808.83648 -15444485.51646  21120687.2894                   21120683.3954
 -17488990.30947 -13592735.79743  24516361.5084                   24516359.5434
 -21399041.61348 -16660047.83247  20379488.3754                   20379485.0394
 -10258105.97348  -7979850.22346  21839560.3364                   21839558.9104
 -25798980.84848 -20071532.89546  21360333.2274                   21360327.9924
 11  8  2  3  4  0.0000000  0  8G26G10G29G12G04G05G25G02
   8627092.19946   6733567.79343  24792169.0474                   24792166.9494
 -15321743.50047 -11911212.32844  22644174.5864                   22644172.2034
    566593.95347    451546.05144  23371948.9304                   23371946.7624
 -19833512.95748 -15426332.88346  21125120.5234                   21125116.3324
 -17425236.02747 -13543057.14143  24528493.2734                   24528491.7704
 -21419115.14148 -16675689.52047  20375668.7194                   20375665.2234
 -10302413.23448  -8014375.34846  21831128.9774                   21831127.6604
 -25780494.15248 -20057127.66846  21363850.9844                   21363845.9694
 11  8  2  3  4 30.0000000  0  8G26G10G29G12G04G05G25G02
   8516178.25846   6647141.44143  24771062.4844                   24771060.2464
 -15246924.23047 -11852911.63345  22658412.1254                   22658409.7274
    467235.63347    374124.09044  23353041.1884                   23353039.5554
 -19809668.98048 -15407753.16846  21129657.5864                   21129653.9844
 -17361519.64147 -13493408.00043  24540618.2424                   24540616.3554
 -21438597.43748 -16690870.51247  20371961.3204                   20371958.1214
 -10346134.89848  -8048444.16046  21822808.8754                   21822807.6524
 -25761874.99648 -20042619.25046  21367394.1884                   21367388.8874
 11  8  2  3  5  0.0000000  0  8G26G10G29G12G04G05G25G02
   8405177.10246   6560647.14142  24749938.0234                   24749936.6094
 -15171770.13347 -11794350.01244  22672713.5004                   22672711.0664
    367905.46147    296724.06644  23334139.8524                   23334136.3634
 -19785278.09448 -15388747.28546  21134299.1954                   21134295.0904
 -17297841.07046 -13443788.30943  24552735.5084                   24552734.0864
 -21457488.22348 -16705590.58247  20368366.4614                   20368363.1094
 -10389269.59448  -8082055.59046  21814600.4064                   21814599.6294
 -25743123.57448 -20028007.74646  21370962.4454                   21370956.9064
 11  8  2  3  5 30.0000000  0  8G26G10G29G12G04G05G25G02
   8294091.05546   6474086.68842  24728799.6884                   24728797.1254
 -15096284.30147 -11735529.91844  22687077.9534                   22687075.8094
    268604.44147    219346.69544  23315243.0784                   23315239.9304
 -19760342.33648 -15369316.83246  21139044.1024                   21139040.5944
 -17234200.84446 -13394198.55943  24564845.5004                   24564845.2114
 -21475788.27348 -16719850.34447  20364883.7734                   20364880.7304
 -10431816.91848  -8115209.33646  21806504.1254                   21806503.0984
 -25724240.66448 -20013293.78146  21374555.8054                   21374550.2894
 11  8  2  3  6  0.0000000  0  8G26G10G29G12G04G05G25G02
   8182924.49646   6387463.48842  24707645.9844                   24707643.0234
 -15020468.73447 -11676452.85944  22701504.9384                   22701503.1844
    169335.35247    141994.23444  23296353.2034                   23296350.6254
 -19734862.27748 -15349462.25046  21143892.6484                   21143889.1484
 -17170598.07046 -13344637.97343  24576949.5634                   24576946.9384
 -21493497.05548 -16733649.37147  20361514.3204                   20361510.7154
 -10473774.84848  -8147903.80946  21798519.8054                   21798518.7664
 -25705225.60948 -19998476.85546  21378174.3754                   21378169.1094
 11  8  2  3  6 30.0000000  0  8G26G10G29G12G04G05G25G02
   8071681.12947   6300780.42243  24686476.8284                   24686475.2344
 -14944325.31247 -11617120.34844  22715994.6564                   22715992.3244
     70100.16046     64668.26244  23277469.1334                   23277466.2974
 -19708838.75048 -15329184.18446  21148845.1094                   21148841.5204
 -17107032.30947 -13295106.18043  24589045.2274                   24589043.7304
 -21510614.32848 -16746987.48847  20358256.6804                   20358253.7664
 -10515141.76648  -8180137.76246  21790647.8284                   21790646.5664
 -25686078.20748 -19983556.80146  21381817.6644                   21381812.5004
 11  8  2  3  7  0.0000000  0  8G26G10G29G12G04G05G25G02
   7960363.75847   6214039.61743  24665293.6564                   24665291.5474
 -14867857.22347 -11557534.83244  22730546.5634                   22730543.6334
    -29099.65647    -12630.19944  23258591.8054                   23258588.3674
 -19682273.44948 -15308483.95746  21153899.9534                   21153896.6994
 -17043503.72346 -13245603.38743  24601134.5704                   24601132.6914
 -21527140.70748 -16759865.16047  20355111.8594                   20355108.8364
 -10555917.16448  -8211910.78146  21782888.2894                   21782887.6414
 -25666799.44148 -19968534.35946  21385486.5164                   21385481.0944
 11  8  2  3  7 30.0000000  0  8G26G10G29G12G04G05G25G02
   7848975.16047   6127243.35943  24644097.1174                   24644095.4304
 -14791067.64547 -11497698.81644  22745158.9064                   22745156.3874
   -128263.26247    -89900.47345  23239721.8984                   23239718.6764
 -19655168.56648 -15287363.27346  21159058.0084                   21159054.8834
 -16980013.26646 -13196130.30543  24613216.1254                   24613214.4144
 -21543077.21148 -16772283.19547  20352079.1724                   20352075.8914
 -10596100.67648  -8243222.60246  21775241.7424                   21775240.7624
 -25647389.81648 -19953409.97346  21389179.8204                   21389174.8204
 11  8  2  3  8  0.0000000  0  8G26G10G29G12G04G05G25G02
   7737518.15646   6040393.80543  24622887.1254                   24622885.9414
 -14713959.44147 -11437614.54344  22759832.7274                   22759829.3164
   -227389.33247   -167141.49645  23220858.2114                   23220856.5824
 -19627525.75048 -15265823.42246  21164318.3364                   21164314.5274
 -16916561.10946 -13146686.99643  24625290.7814                   24625288.2234
 -21558424.27048 -16784241.91847  20349158.6644                   20349155.6994
 -10635691.80948  -8274072.82846  21767707.8594                   21767706.8204
 -25627850.01247 -19938184.15246  21392898.1724                   21392892.8364
 11  8  2  3  8 30.0000000  0  8G26G10G29G12G04G05G25G02
   7625995.98846   5953493.51643  24601665.8284                   24601664.7504
 -14636535.67247 -11377284.35945  22774565.2424                   22774562.9344
   -326476.11747   -244351.87945  23202002.2814                   23202000.8874
 -19599346.77048 -15243865.78946  21169680.5784                   21169676.9454
 -16853147.27746 -13097273.67243  24637358.1954                   24637355.8014
 -21573182.50848 -16795741.81247  20346350.3134                   20346346.7384
 -10674689.57448  -8304460.68046  21760286.4924                   21760285.6214
 -25608180.34448 -19922857.13346  21396640.9064                   21396636.1134
 11  8  2  3  9  0.0000000  0  8G26G10G29G12G04G05G25G02
   7514411.45747   5866544.62143  24580431.7734                   24580430.0474
 -14558799.55947 -11316710.77344  22789358.5784                   22789355.5354
   -425522.59447   -321530.86345  23183155.2734                   23183152.8914
 -19570634.09448 -15221492.28946  21175144.4064                   21175141.1524
 -16789772.43046 -13047890.60243  24649418.3204                   24649416.1294
 -21587352.82848 -16806783.60947  20343654.1174                   20343650.4264
 -10713093.73848  -8334386.00046  21752978.5394                   21752977.7704
 -25588381.75448 -19907429.65246  21400408.7974                   21400403.4694
 11  8  2  3  9 30.0000000  0  8G26G10G29G12G04G05G25G02
   7402767.28146   5779549.21143  24559186.5394                   24559184.6724
 -14480754.03947 -11255896.09444  22804209.9694                   22804206.8324
   -524527.25047   -398677.27745  23164314.5634                   23164312.2154
 -19541389.19548 -15198704.06246  21180709.8674                   21180706.3244
 -16726436.86346 -12998538.26643  24661470.5784                   24661468.4344
 -21600936.31648 -16817368.12547  20341069.0234                   20341065.2974
 -10750903.80148  -8363848.36346  21745783.6644                   21745782.6174
 -25568455.10248 -19891902.37146  21404200.3204                   21404195.1334
 11  8  2  3 10  0.0000000  0  8G26G10G29G12G04G05G25G02
   7291067.36346   5692510.37543  24537929.9774                   24537928.8284
 -14402400.93047 -11194841.71944  22819119.6724                   22819116.3284
   -623488.00047   -475789.46945  23145482.7034                   23145480.2424
 -19511613.54748 -15175502.27046  21186375.6564                   21186372.1684
 -16663140.25446 -12949216.18042  24673515.1884                   24673513.1764
 -21613932.73448 -16827495.17647  20338595.9774                   20338592.5984
 -10788118.49648  -8392846.81246  21738702.1484                   21738701.6134
 -25548399.83248 -19876274.88746  21408016.7734                   21408011.7114
 11  8  2  3 10 30.0000000  0  8G26G10G29G12G04G05G25G02
   7179315.45746   5605431.00843  24516664.2274                   24516663.2664
 -14323742.33247 -11133549.34444  22834088.0084                   22834085.4414
   -722402.58647   -552865.69545  23126660.2814                   23126657.9534
 -19481308.04348 -15151887.59846  21192142.7114                   21192139.2344
 -16599881.84446 -12899923.87943  24685552.8524                   24685550.5904
 -21626341.93048 -16837164.66047  20336234.7274                   20336231.2304
 -10824736.37548  -8421380.21546  21731733.8674                   21731732.5514
 -25528215.56648 -19860546.89146  21411857.6884                   21411852.7774
 11  8  2  3 11  0.0000000  0  8G26G10G29G12G04G05G25G02
   7067513.96946   5518313.01643  24495389.1094                   24495388.0514
 -14244782.14147 -11072021.95344  22849113.7114                   22849111.1334
   -821270.29347   -629905.38745  23107846.1644                   23107843.4924
 -19450475.20348 -15127862.00846  21198010.1094                   21198006.5004
 -16536662.43446 -12850661.99642  24697582.4614                   24697580.5434
 -21638165.29348 -16846377.66047  20333984.5944                   20333981.2774
 -10860757.61748  -8449448.69546  21724879.1334                   21724878.4844
 -25507903.75847 -19844719.50446  21415723.2194                   21415717.6564
 11  8  2  3 11 30.0000000  0  8G26G10G29G12G04G05G25G02
   6955665.71947   5431158.58643  24474105.9064                   24474103.7504
 -14165523.63347 -11010262.10544  22864196.0944                   22864194.1294
   -920090.01247   -706907.67645  23089041.7504                   23089038.8324
 -19419117.60248 -15103427.51646  21203977.1024                   21203973.4184
 -16473482.76646 -12801431.05543  24709605.6564                   24709603.5354
 -21649404.16048 -16855135.19547  20331845.6174                   20331842.6804
 -10896182.25048  -8477052.28546  21718138.4614                   21718137.1214
 -25487465.18748 -19828793.33246  21419612.3204                   21419607.4384
 11  8  2  3 12  0.0000000  0  8G26G10G29G12G04G05G25G02
   6843774.42246   5343970.63343  24452813.1414                   24452811.9494
 -14085968.79347 -10948271.32044  22879335.1884                   22879331.9964
  -1018859.18047   -783870.60545  23070246.0634                   23070243.3874
 -19387236.07048 -15078584.77346  21210044.1334                   21210040.4184
 -16410342.33246 -12752230.73443  24721621.4454                   24721619.3324
 -21660058.48448 -16863437.24647  20329818.4694                   20329814.8164
 -10931008.93448  -8504189.94546  21711510.9844                   21711510.0514
 -25466899.66047 -19812768.24246  21423525.7344                   21423520.8524
 11  8  2  3 12 30.0000000  0  8G26G10G29G12G04G05G25G02
   6731841.12546   5256749.94943  24431512.0784                   24431511.0394
 -14006122.64146 -10886053.58644  22894529.0084                   22894526.4614
  -1117578.56647   -860794.76245  23051461.0084                   23051458.4844
 -19354834.69148 -15053336.94546  21216209.6564                   21216206.2274
 -16347243.17646 -12703062.55143  24733628.5784                   24733626.7034
 -21670131.05148 -16871285.98447  20327901.4924                   20327898.5744
 -10965239.25848  -8530862.90246  21704996.4844                   21704995.7504
 -25446209.70748 -19796646.18446  21427463.2274                   21427457.5984
 11  8  2  3 13  0.0000000  0  7G26G10G29G12G05G25G02
   6619869.60946   5169499.53143  24410204.5784                   24410204.1174
 -13925987.57047 -10823610.68744  22909779.1174                   22909775.7504
  -1216245.89547   -937678.31645  23032684.8284                   23032682.8444
 -19321914.98048 -15027685.23046  21222474.4614                   21222470.8524
 -21679622.04748 -16878681.54747  20326095.4144                   20326091.7424
 -10998872.20748  -8557070.36746  21698596.5704                   21698595.5474
 -25425395.07048 -19780426.98846  21431424.0634                   21431418.8674
 11  8  2  3 13 30.0000000  0  7G26G10G29G12G05G25G02
   6507863.87146   5082222.37543  24388891.0784                   24388890.4804
 -13845565.37546 -10760944.05144  22925082.1884                   22925079.7734
  -1314858.76647  -1014519.45345  23013919.8444                   23013916.7424
 -19288478.05948 -15001630.49246  21228837.1644                   21228833.8484
 -21688531.64148 -16885624.07447  20324399.8054                   20324396.5984
 -11031906.47348  -8582811.33246  21692310.3364                   21692309.4414
 -25404455.32448 -19764110.29746  21435408.7504                   21435403.5744
 11  8  2  3 14  0.0000000  0  7G26G10G29G12G05G25G02
   6395828.78146   4994922.39843  24367571.4384                   24367569.5124
 -13764857.39147 -10698054.72744  22940440.5944                   22940438.3524
  -1413413.97347  -1091315.66845  22995165.1094                   22995161.8404
 -19254524.12948 -14975172.90246  21235298.1094                   21235294.5744
 -21696858.79748 -16892112.74647  20322815.6564                   20322812.1334
 -11064340.00848  -8608084.20346  21686138.4774                   21686137.5474
 -25383389.14547 -19747695.08246  21439417.2274                   21439412.0634
 11  8  2  3 14 30.0000000  0  7G26G10G29G12G05G25G02
   6283770.64846   4907604.46143  24346247.9774                   24346245.5394
 -13683863.50046 -10634942.63344  22955852.9304                   22955850.2034
  -1511907.11747  -1168063.52745  22976422.1094                   22976419.7664
 -19220052.22348 -14948311.67646  21241857.8834                   21241854.3834
 -21704601.96948 -16898146.37947  20321342.1254                   20321338.4344
 -11096169.44948  -8632886.33646  21680081.8834                   21680080.7154
 -25362193.91847 -19731179.32046  21443450.8364                   21443445.2584
 11  8  2  3 15  0.0000000  0  7G26G10G29G12G05G25G02
   6171692.48447   4820270.88743  24324919.8834                   24324918.3204
 -13602586.28546 -10571609.77044  22971319.6414                   22971316.8834
  -1610336.52347  -1244761.71145  22957691.5864                   22957688.7934
 -19185064.12148 -14921048.23046  21248515.7894                   21248512.3164
 -21711761.53148 -16903725.24247  20319979.3284                   20319976.1484
 -11127394.41048  -8657217.44946  21674139.8754                   21674138.8874
 -25340870.04748 -19714563.30546  21447508.1094                   21447503.4924
 11  8  2  3 15 30.0000000  0  7G26G10G29G12G05G25G02
   6059597.71546   4732924.37943  24303589.2584                   24303587.2814
 -13521028.88747 -10508058.58244  22986839.7194                   22986836.7234
  -1708700.49647  -1321408.91045  22938972.7734                   22938971.0164
 -19149562.36348 -14893384.52746  21255271.9384                   21255268.2974
 -21718338.37948 -16908850.05547  20318727.8134                   20318724.4844
 -11158014.55148  -8681077.28546  21668313.1094                   21668312.2664
 -25319418.07448 -19697847.48446  21451590.8054                   21451585.6024
 11  8  2  3 16  0.0000000  0  7G26G10G29G12G05G25G02
   5947487.48446   4645565.83643  24282254.8984                   24282253.3014
 -13439195.99247 -10444292.68744  23002411.8754                   23002409.0234
  -1806999.06647  -1398005.16445  22920267.9694                   22920265.0354
 -19113550.85948 -14865323.62546  21262124.3834                   21262121.3284
 -21724335.25848 -16913522.93047  20317586.7664                   20317583.4774
 -11188031.35548  -8704466.99246  21662601.0004                   21662599.7734
 -25297839.92248 -19681033.34046  21455696.8284                   21455691.5944
 11  8  2  3 16 30.0000000  0  7G26G10G29G12G05G25G02
   5835365.85946   4558198.39843  24260919.3984                   24260917.2384
 -13357089.39147 -10380313.53144  23018036.0234                   23018033.4224
  -1905229.87547  -1474548.63745  22901575.5004                   22901572.2344
 -19077030.39548 -14836866.12946  21269074.5944                   21269071.0044
 -21729752.24648 -16917743.95347  20316555.9224                   20316552.2154
 -11217443.78948  -8727385.75046  21657003.9534                   21657002.8794
 -25276135.38748 -19664120.71146  21459826.7974                   21459822.2074
 11  8  2  3 17  0.0000000  0  7G26G10G29G12G05G25G02
   5723234.23446   4470823.19543  24239581.1564                   24239579.0984
 -13274713.74247 -10316124.73444  23033712.0944                   23033709.3834
  -2003393.13747  -1551039.45345  22882895.8444                   22882892.5514
 -19040004.67248 -14808014.91446  21276120.1414                   21276116.9654
 -21734592.30948 -16921515.41447  20315634.9454                   20315631.7464
 -11246253.31248  -8749834.71146  21651521.8204                   21651520.8954
 -25254306.66048 -19647111.31246  21463980.7504                   21463975.9224
 11  8  2  3 17 30.0000000  0  7G26G10G29G12G05G25G02
   5611094.92646   4383441.96143  24218242.0554                   24218239.7704
 -13192073.16847 -10251729.49644  23049437.4304                   23049434.7504
  -2101488.36347  -1627477.25045  22864228.9064                   22864225.9184
 -19002477.46548 -14778772.93746  21283261.3834                   21283257.8754
 -21738857.33248 -16924838.80947  20314823.3594                   20314819.9534
 -11274460.90248  -8771814.64146  21646153.8834                   21646152.9104
 -25232355.27748 -19630006.33646  21468157.7894                   21468152.8954
 11  8  2  3 18  0.0000000  0  7G26G10G29G12G05G25G02
   5498951.38746   4296057.47343  24196901.7584                   24196899.2814
 -13109169.94547 -10187129.58644  23065213.9304                   23065210.5314
  -2199513.38747  -1703860.34445  22845575.0004                   22845571.8594
 -18964450.07448 -14749141.20746  21290497.8524                   21290494.5004
 -21742548.23048 -16927714.81647  20314121.0314                   20314117.7584
 -11302065.87948  -8793325.00046  21640901.1334                   21640900.1024
 -25210281.19548 -19612805.74246  21472358.7974                   21472353.6334
 11  8  2  3 18 30.0000000  0  7G26G10G29G12G05G25G02
   5386806.09446   4208671.58643  24175560.6024                   24175559.3164
 -13026007.75446 -10122327.89144  23081039.3754                   23081036.2814
  -2297467.50447  -1780188.18745  22826934.5394                   22826931.8164
 -18925925.86748 -14719122.35246  21297828.4144                   21297825.3284
 -21745666.94948 -16930144.98447  20313527.6564                   20313524.1684
 -11329068.99248  -8814366.38346  21635762.0394                   21635761.4184
 -25188085.44548 -19595510.35246  21476582.4064                   21476576.6094
 11  8  2  3 19  0.0000000  0  7G26G10G29G12G05G25G02
   5274661.32846   4121286.17243  24154220.4064                   24154218.7154
 -12942590.61747 -10057327.55544  23096913.1644                   23096910.0084
  -2395349.99247  -1856460.20745  22808308.4924                   22808305.7424
 -18886907.96548 -14688718.79346  21305253.4614                   21305249.8914
 -21748215.69548 -16932131.00047  20313042.2424                   20313038.5594
 -11355471.24648  -8834939.54746  21630738.2734                   21630737.3754
 -25165769.42648 -19578121.24246  21480828.9614                   21480823.2424
 11  8  2  3 19 30.0000000  0  7G26G10G29G12G05G25G02
   5162520.81346   4033904.04343  24132880.3754                   24132878.4104
 -12858920.75047  -9992130.25044  23112834.6564                   23112832.2774
  -2493158.84047  -1932674.85545  22789695.9694                   22789693.6604
 -18847398.06248 -14657931.86746  21312771.9844                   21312768.8244
 -21750194.91048 -16933673.23847  20312665.9694                   20312662.5984
 -11381271.92648  -8855043.96946  21625828.7814                   21625827.0044
 -25143333.01248 -19560638.32046  21485098.5314                   21485093.4344
 11  8  2  3 20  0.0000000  0  7G26G10G29G12G05G25G02
   5050388.00846   3946527.96543  24111542.2974                   24111539.9184
 -12775000.52346  -9926737.88344  23128804.3914                   23128801.3674
  -2590891.92647  -2008830.44945  22771097.6954                   22771094.9494
 -18807397.89848 -14626762.91846  21320383.8594                   21320380.4064
 -21751605.40248 -16934772.31647  20312397.3754                   20312393.8794
 -11406470.81648  -8874679.46546  21621033.0314                   21621032.2274
 -25120776.48048 -19543061.78946  21489390.7424                   21489385.5354
 11  8  2  3 20 30.0000000  0  7G26G10G29G12G05G25G02
   4938266.63746   3859160.77043  24090205.7194                   24090204.0514
 -12690832.72747  -9861152.60244  23144820.5394                   23144817.3554
  -2688547.17247  -2084925.41445  22752514.8284                   22752511.8164
 -18766909.42648 -14595213.46946  21328088.5864                   21328085.1294
 -21752448.05948 -16935428.91447  20312237.0314                   20312233.9534
 -11431067.23448  -8893845.48846  21616352.8364                   21616351.7274
 -25098099.54748 -19525391.44946  21493706.2424                   21493701.3244
 11  8  2  3 21  0.0000000  0  7G26G10G29G12G05G25G02
   4826159.65246   3771804.74643  24068872.1724                   24068871.1294
 -12606420.36347  -9795376.73044  23160883.7194                   23160881.1524
  -2786123.29347  -2160958.69145  22733946.0704                   22733944.0314
 -18725935.55948 -14563285.78946  21335885.4064                   21335882.2734
 -21752724.09448 -16935644.00447  20312184.1094                   20312181.1054
 -11455061.63748  -8912542.42246  21611786.7664                   21611785.7274
 -25075302.86348 -19507627.78546  21498044.2034                   21498038.9494
 11  8  2  3 21 30.0000000  0  7G26G10G29G12G05G25G02
   4714070.23046   3684462.44143  24047542.8594                   24047541.3484
 -12521766.42647  -9729412.64544  23176993.1024                   23176990.0394
  -2883618.98847  -2236929.29345  22715394.0394                   22715391.0434
 -18684478.68048 -14530981.73446  21343774.4614                   21343771.1174
 -21752435.29348 -16935418.94947  20312239.3054                   20312236.1884
 -11478454.28548  -8930770.45746  21607335.3754                   21607334.2624
 -25052387.21948 -19489771.43446  21502404.8524                   21502399.6054
 11  8  2  3 22  0.0000000  0  7G26G10G29G12G05G25G02
   4602001.56646   3597136.28944  24026216.8364                   24026215.2934
 -12436873.61747  -9663262.42644  23193147.9614                   23193144.4804
  -2981032.03147  -2312835.52345  22696856.1334                   22696853.6214
 -18642540.44148 -14498302.60546  21351755.1954                   21351751.7194
 -21751582.52348 -16934754.44147  20312401.4304                   20312398.1844
 -11501244.92248  -8948529.37946  21602998.2504                   21602997.2664
 -25029352.63748 -19471822.40246  21506788.1094                   21506782.7934
 11  8  2  3 22 30.0000000  0  7G26G10G29G12G05G25G02
   4489956.05546   3509828.18444  24004895.3754                   24004894.3244
 -12351746.17647  -9596929.33244  23209346.8444                   23209343.9694
  -3078362.07847  -2388677.04745  22678335.0474                   22678332.0204
 -18600124.58248 -14465251.28946  21359826.3364                   21359823.3524
 -21750168.31648 -16933652.45347  20312670.7274                   20312667.5394
 -11523434.89848  -8965820.27346  21598776.0084                   21598775.1024
 -25006200.46948 -19453781.75846  21511193.9614                   21511188.5354
 11  8  2  3 23  0.0000000  0  7G26G10G29G12G05G25G02
   4377938.48446   3422541.84844  23983578.6414                   23983576.9224
 -12266385.23447  -9530414.35544  23225590.3984                   23225587.6294
  -3175605.88347  -2464451.36745  22659830.3524                   22659827.7894
 -18557232.13347 -14431828.60946  21367988.4384                   21367984.6954
 -21748192.20748 -16932112.61747  20313046.5234                   20313042.9454
 -11545022.76648  -8982641.98046  21594667.3524                   21594666.5944
 -24982929.45748 -19435648.49646  21515622.3594                   21515616.5744
 11  8  2  3 23 30.0000000  0  7G26G10G29G12G05G25G02
   4265949.51246   3335277.79744  23962267.7664                   23962266.7344
 -12180796.39547  -9463721.76244  23241877.6254                   23241874.7114
  -3272764.19547  -2540159.10245  22641341.7114                   22641338.5594
 -18513867.96948 -14398038.35546  21376240.6254                   21376237.3404
 -21745658.29348 -16930138.12947  20313529.1334                   20313525.3914
 -11566011.26248  -8998996.64846  21590673.7894                   21590672.5204
 -24959542.82048 -19417425.13746  21520072.5864                   21520066.9734
 11  8  2  3 24  0.0000000  0  7G26G10G29G12G05G25G02
   4153993.71547   3248039.58243  23940963.6254                   23940961.3794
 -12094980.88347  -9396852.53144  23258207.8364                   23258204.8754
  -3369833.99647  -2615797.84445  22622869.7814                   22622866.5204
 -18470033.05948 -14363881.28546  21384582.0784                   21384578.5744
 -21742566.36348 -16927728.81647  20314117.1254                   20314113.8204
 -11586399.25048  -9014883.37546  21586793.8674                   21586793.3634
 -24936039.65648 -19399110.98046  21524545.0084                   21524539.8164
 11  8  2  3 24 30.0000000  0  7G26G10G29G12G05G25G02
   4042072.84047   3160828.55543  23919665.9924                   23919663.7774
 -12008943.39547  -9329810.35244  23274580.1094                   23274576.6094
  -3466815.47347  -2691367.76245  22604415.1174                   22604411.8284
 -18425731.80948 -14329360.84446  21393012.7504                   21393008.7894
 -21738919.74648 -16924887.28547  20314811.2504                   20314808.0594
 -11606188.68048  -9030303.69946  21583028.3834                   21583027.1764
 -24912421.77048 -19380707.42246  21529039.2894                   21529034.1174
 11  8  2  3 25  0.0000000  0  7G26G10G29G12G05G25G02
   3930192.56347   3073649.21943  23898375.2504                   23898373.5594
 -11922684.52047  -9262595.64144  23290994.9144                   23290991.2194
  -3563704.37147  -2766865.54745  22585977.3364                   22585974.9264
 -18380963.93448 -14294476.78546  21401531.4614                   21401527.9694
 -21734717.37948 -16921612.70347  20315610.9844                   20315607.5234
 -11625377.37548  -9045255.92246  21579376.7974                   21579375.7584
 -24888686.98048 -19362212.80146  21533555.9844                   21533550.6134
 11  8  2  3 25 30.0000000  0  7G26G10G29G12G05G25G02
   3818355.20747   2986503.32043  23877093.5084                   23877091.4884
 -11836207.77747  -9195211.16044  23307450.4774                   23307448.0314
  -3660500.19947  -2842290.80145  22567557.6804                   22567554.5554
 -18335732.75448 -14259231.72346  21410138.8594                   21410135.1174
 -21729961.58648 -16917906.87947  20316515.5704                   20316512.2934
 -11643966.55948  -9059740.98446  21575839.3204                   21575838.6804
 -24864836.68448 -19343628.14846  21538094.3984                   21538089.4494
 11  8  2  3 26  0.0000000  0  7G26G10G29G12G05G25G02
   3706562.33247   2899392.03143  23855819.9694                   23855817.1134
 -11749517.74647  -9127660.50844  23323947.6564                   23323944.7974
  -3757202.34047  -2917643.05945  22549155.6804                   22549152.6954
 -18290042.73448 -14223629.11746  21418833.3134                   21418829.7234
 -21724655.63348 -16913772.35547  20317525.4614                   20317522.2774
 -11661958.12148  -9073760.37146  21572415.6254                   21572414.7074
 -24840873.00848 -19324955.15246  21542654.6484                   21542649.2274
 11  8  2  3 26 30.0000000  0  7G26G10G29G12G05G25G02
   3594818.75846   2812319.17643  23834556.2344                   23834553.0704
 -11662616.03547  -9059944.91444  23340484.1254                   23340481.5704
  -3853808.02047  -2992920.14845  22530772.6024                   22530769.5434
 -18243894.69548 -14187669.60946  21427615.1024                   21427611.6254
 -21718799.50848 -16909209.13347  20318639.8204                   20318636.5514
 -11679351.07448  -9087313.30946  21569105.6414                   21569105.3094
 -24816794.61348 -19306192.76646  21547236.6644                   21547231.1914
 11  8  2  3 27  0.0000000  0  7G26G10G29G12G05G25G02
   3483128.46946   2725287.86344  23813301.6254                   23813299.7854
 -11575504.60547  -8992065.90644  23357060.3284                   23357058.6954
  -3950314.80547  -3068120.19145  22512407.6414                   22512404.2894
 -18197290.57048 -14151354.71946  21436483.1804                   21436480.1174
 -21712394.12148 -16904217.91047  20319858.7114                   20319855.1604
 -11696145.12548  -9100399.56646  21565910.0234                   21565909.1564
 -24792601.28548 -19287340.81646  21551840.4144                   21551834.9024
 11  8  2  3 27 30.0000000  0  7G26G10G29G12G05G25G02
   3371494.21946   2638300.22744  23792058.6564                   23792056.3594
 -11488186.62547  -8924025.95344  23373676.8674                   23373674.1484
  -4046721.24247  -3143242.05145  22494061.7734                   22494058.8594
 -18150233.30548 -14114686.72746  21445437.8594                   21445435.0354
 -21705441.24648 -16898800.07047  20321181.8754                   20321178.1884
 -11712341.08648  -9113019.78546  21562828.0704                   21562826.9024
 -24768293.70748 -19268399.85546  21556465.9224                   21556460.8014
 11  8  2  3 28  0.0000000  0  7G26G10G29G12G05G25G02
   3259919.98446   2551359.34844  23770826.4844                   23770824.8594
 -11400664.91047  -8855827.25444  23390331.8984                   23390329.6254
  -4143025.40247  -3218284.20745  22475735.9454                   22475733.4344
 -18102724.84048 -14077667.16046  21454478.5944                   21454475.0124
 -21697942.14848 -16892956.60547  20322608.6954                   20322605.7774
 -11727939.04748  -9125174.02346  21559859.9614                   21559858.9144
 -24743871.62548 -19249369.66446  21561113.5554                   21561108.2704
 11  8  2  3 28 30.0000000  0  7G26G10G29G12G05G25G02
   3148408.17246   2464467.10943  23749606.3594                   23749603.9344
 -11312943.00847  -8787472.52744  23407024.5864                   23407021.7074
  -4239226.27347  -3293245.87145  22457429.2814                   22457426.1804
 -18054769.17648 -14040299.12946  21463604.2344                   21463600.9144
 -21689898.96948 -16886689.16847  20324139.6024                   20324136.1254
 -11742940.21548  -9136863.23046  21557005.2894                   21557004.1094
 -24719336.50048 -19230251.39546  21565782.6414                   21565777.2974
 11  8  2  3 29  0.0000000  0  7G26G10G29G12G05G25G02
   3036963.05946   2377626.84844  23728398.9844                   23728397.4884
 -11225023.03147  -8718963.46143  23423754.9614                   23423752.4454
  -4335321.42247  -3368125.18045  22439143.1484                   22439140.1334
 -18006367.77048 -14002583.76246  21472814.5944                   21472811.7974
 -21681312.72748 -16879998.58247  20325773.4534                   20325769.9264
 -11757344.38748  -9148087.25046  21554264.2814                   21554263.5784
 -24694688.11748 -19211044.87146  21570472.8444                   21570467.8094
 11  8  2  3 29 30.0000000  0  7G26G10G29G12G05G25G02
   2925587.65646   2290840.85544  23707204.8834                   23707203.8714
 -11136907.66047  -8650302.12943  23440523.0864                   23440520.3874
  -4431308.79347  -3442920.47345  22420877.1334                   22420874.3404
 -17957522.94548 -13964522.87546  21482109.7344                   21482106.5944
 -21672184.79348 -16872885.89147  20327510.1024                   20327506.8164
 -11771151.99648  -9158846.41846  21551636.5704                   21551635.7464
 -24669926.40648 -19191750.03146  21575184.8834                   21575179.7504
 11  8  2  3 30  0.0000000  0  7G26G10G29G12G05G25G02
   2814286.16047   2204112.47344  23686024.8834                   23686022.7664
 -11048599.20747  -8581490.38743  23457327.8444                   23457325.1724
  -4527186.27747  -3517630.14545  22402632.0864                   22402629.6374
 -17908237.10248 -13926118.33646  21491488.5314                   21491485.2114
 -21662516.38348 -16865352.05547  20329350.3674                   20329346.6684
 -11784363.07048  -9169140.75446  21549122.3914                   21549121.6844
 -24645050.99648 -19172366.57846  21579918.6254                   21579912.7424
 11  8  2  3 30 30.0000000  0  7G26G10G29G12G05G25G02
   2703060.16847   2117442.91444  23664859.5944                   23664857.8054
 -10960102.18047  -8512531.65243  23474167.9614                   23474165.4804
  -4622953.73847  -3592254.09445  22384408.0784                   22384405.4774
 -17858514.51248 -13887373.47746  21500950.0314                   21500946.5274
 -21652311.00848 -16857399.79747  20331292.1334                   20331288.5204
 -11796979.80548  -9178971.96146  21546721.6174                   21546720.8794
 -24620063.87948 -19152896.09846  21584673.5554                   21584667.8594
 11  8  2  3 31  0.0000000  0  7G26G10G29G12G05G25G02
   2591914.04747   2030835.62944  23643708.8054                   23643707.1844
 -10871418.57047  -8443427.57044  23491044.0864                   23491041.5864
  -4718608.62547  -3666790.30945  22366205.6884                   22366203.3834
 -17808357.39148 -13848290.02746  21510494.9224                   21510491.7074
 -21641569.41848 -16849029.71547  20333336.1724                   20333332.5554
 -11809002.07448  -9188339.96146  21544434.1644                   21544432.9454
 -24594964.48448 -19133338.12946  21589449.5634                   21589443.9964
 11  8  2  3 31 30.0000000  0  7G26G10G29G12G05G25G02
   2480850.99647   1944293.08644  23622574.7034                   23622572.5554
 -10782551.12547  -8374180.22343  23507954.7664                   23507952.3554
  -4814148.68047  -3741237.04345  22348025.2274                   22348022.4144
 -17757767.75847 -13808869.55146  21520122.0004                   21520118.3834
 -21630293.12548 -16840242.97747  20335482.2584                   20335478.6174
 -11820430.35548  -9197245.10546  21542258.9774                   21542258.6484
 -24569753.18748 -19113692.96146  21594247.5864                   21594241.8484
 11  8  2  3 32  0.0000000  0  8G26G10G29G12G15G05G25G02
   2369874.33647   1857817.82044  23601456.4534                   23601453.8954
 -10693502.91047  -8304792.02344  23524900.4534                   23524897.5864
  -4909572.65247  -3815593.33645  22329866.1804                   22329863.9884
 -17706748.62548 -13769114.39546  21529830.4844                   21529827.0434
   9291749.66456   7251444.43454  24554536.2114                   24554535.0594
 -21618483.91848 -16831040.98847  20337728.9144                   20337725.2034
 -11831265.55548  -9205688.11746  21540197.1254                   21540196.6334
 -24544430.42648 -19093960.93446  21599065.7034                   21599060.6054
 11  8  2  3 32 30.0000000  0  8G26G10G29G12G15G05G25G02
   2258986.48846   1771411.77344  23580355.0944                   23580352.6024
 -10604277.74247  -8235265.94944  23541878.9694                   23541876.6804
  -5004879.62947  -3889858.44945  22311730.0084                   22311727.4224
 -17655303.52347 -13729027.31246  21539620.1254                   21539616.9224
   9182207.78146   7166087.26643  24533691.5234                   24533690.4804
 -21606144.51648 -16821425.85547  20340077.3364                   20340073.8794
 -11841509.17648  -9213670.15646  21538248.2194                   21538246.7504
 -24518997.42248 -19074143.02746  21603905.5084                   21603900.3524
